[[{"header":{"parameterUnit":"m.s-1","parameterCategory":1,"la1":30.6,"la2":29.2853,"lo1":-89.7004,"lo2":-87.6739,"dy":0.0162,"dx":0.0183,"nx":112,"ny":82,"refTime":"2023-07-13T06:00:00:Z","depth":0,"parameterNumber":2,"parameterNumberName":"U-component_of_WINDS"},"data":[0.0,0.0,0.0,0.0,0.0,0.0,0.0,0.0,0.0,0.0,0.0,0.0,0.0,0.0,0.0,0.0,0.0,0.0,0.0,0.0,0.0,0.0,0.0,0.0,0.0,0.0,0.0,0.0,0.0,0.0,0.0,0.0,0.0,0.0,0.0,0.0,0.0,0.0,0.0,0.0,0.0,0.0,0.0,0.0,0.0,0.0,0.0,0.0,0.0,0.0,0.0,0.0,0.0,0.0,0.0,0.0,0.0,0.0,0.0,0.0,0.0,0.0,0.0,0.0,0.0,0.0,0.0,0.0,0.0,0.0,0.0,0.0,0.0,0.0,0.0,0.0,0.0,0.0,0.0,0.0,0.0,0.0,0.0,0.0,0.0,0.0,0.0,0.0,0.0,0.0,-1.9882,-2.0472,-2.1238,-2.1694,-2.1694,-2.1766,-2.1083,-1.9385,0.0,0.0,0.0,0.0,0.0,0.0,0.0,0.0,0.0,0.0,0.0,0.0,0.0,0.0,0.0,0.0,0.0,0.0,0.0,0.0,0.0,0.0,0.0,0.0,0.0,0.0,0.0,0.0,0.0,0.0,0.0,0.0,0.0,0.0,0.0,0.0,0.0,0.0,0.0,0.0,0.0,0.0,0.0,0.0,0.0,0.0,0.0,0.0,0.0,0.0,0.0,0.0,0.0,0.0,0.0,0.0,0.0,0.0,0.0,0.0,0.0,0.0,0.0,0.0,0.0,0.0,0.0,0.0,0.0,0.0,0.0,0.0,0.0,0.0,0.0,0.0,0.0,0.0,0.0,0.0,0.0,0.0,0.0,0.0,0.0,0.0,0.0,0.0,0.0,0.0,0.0,0.0,0.0,0.0,0.0,0.0,0.0,0.0,0.0,0.0,0.0,0.0,0.0,0.0,-1.9644,-2.0876,-2.1135,-2.1217,-2.1217,-2.158,-2.1352,-2.0286,0.0,0.0,0.0,0.0,0.0,0.0,0.0,0.0,0.0,0.0,0.0,0.0,0.0,0.0,0.0,0.0,0.0,0.0,0.0,0.0,0.0,0.0,0.0,0.0,0.0,0.0,0.0,0.0,0.0,0.0,0.0,0.0,0.0,0.0,0.0,0.0,0.0,0.0,0.0,0.0,0.0,0.0,0.0,0.0,0.0,0.0,0.0,0.0,0.0,0.0,0.0,0.0,0.0,0.0,0.0,0.0,0.0,0.0,0.0,0.0,0.0,0.0,0.0,0.0,0.0,0.0,0.0,0.0,0.0,0.0,0.0,0.0,0.0,0.0,0.0,0.0,0.0,0.0,0.0,0.0,0.0,0.0,0.0,0.0,0.0,0.0,0.0,0.0,0.0,0.0,0.0,0.0,0.0,0.0,0.0,0.0,0.0,0.0,0.0,0.0,0.0,0.0,0.0,-1.9127,-1.9592,-2.0969,-2.1114,-2.1114,-2.1114,-2.1538,-2.1197,-1.9779,-1.9499,0.0,0.0,0.0,0.0,0.0,0.0,0.0,0.0,0.0,0.0,0.0,0.0,0.0,0.0,0.0,0.0,0.0,0.0,0.0,0.0,0.0,0.0,0.0,0.0,0.0,0.0,0.0,0.0,0.0,0.0,0.0,0.0,0.0,0.0,0.0,0.0,0.0,0.0,0.0,0.0,0.0,0.0,0.0,0.0,0.0,0.0,0.0,0.0,0.0,0.0,0.0,0.0,0.0,0.0,0.0,0.0,0.0,0.0,0.0,0.0,0.0,0.0,0.0,0.0,0.0,0.0,0.0,0.0,0.0,0.0,0.0,0.0,0.0,0.0,0.0,0.0,0.0,0.0,0.0,0.0,0.0,0.0,0.0,0.0,0.0,0.0,0.0,0.0,0.0,0.0,0.0,0.0,0.0,0.0,0.0,0.0,0.0,0.0,0.0,0.0,0.0,0.0,-1.9592,-1.9717,-2.0979,-2.1114,-2.1114,-2.1114,-2.1445,-2.0959,-1.9401,-1.8993,0.0,0.0,0.0,0.0,0.0,0.0,0.0,0.0,0.0,0.0,0.0,0.0,0.0,0.0,0.0,0.0,0.0,0.0,0.0,0.0,0.0,0.0,0.0,0.0,0.0,0.0,0.0,0.0,0.0,0.0,0.0,0.0,0.0,0.0,0.0,0.0,0.0,0.0,0.0,0.0,0.0,0.0,0.0,0.0,0.0,0.0,0.0,0.0,0.0,0.0,0.0,0.0,0.0,0.0,0.0,0.0,0.0,0.0,0.0,0.0,0.0,0.0,0.0,0.0,0.0,0.0,0.0,0.0,0.0,0.0,0.0,0.0,0.0,0.0,0.0,0.0,0.0,0.0,0.0,0.0,0.0,0.0,0.0,0.0,0.0,0.0,0.0,0.0,0.0,0.0,0.0,0.0,0.0,0.0,0.0,0.0,0.0,0.0,0.0,0.0,0.0,0.0,-1.9557,-2.0079,-2.101,-2.1114,-2.1114,-2.1114,-2.1145,-2.0752,-1.9837,-1.8682,0.0,0.0,0.0,0.0,0.0,0.0,0.0,0.0,0.0,0.0,0.0,0.0,0.0,0.0,0.0,0.0,0.0,0.0,0.0,0.0,0.0,0.0,0.0,0.0,0.0,0.0,0.0,0.0,0.0,0.0,0.0,0.0,0.0,0.0,0.0,0.0,0.0,0.0,0.0,0.0,0.0,0.0,0.0,0.0,0.0,0.0,0.0,0.0,0.0,0.0,0.0,0.0,0.0,0.0,0.0,0.0,0.0,0.0,0.0,0.0,0.0,0.0,0.0,0.0,0.0,0.0,0.0,0.0,0.0,0.0,0.0,0.0,0.0,0.0,0.0,0.0,0.0,0.0,0.0,0.0,0.0,0.0,0.0,0.0,0.0,0.0,0.0,0.0,0.0,0.0,0.0,0.0,0.0,0.0,0.0,0.0,0.0,0.0,0.0,0.0,0.0,0.0,-1.9723,-2.011,-2.1021,-2.1114,-2.1114,-2.1114,-2.1114,-2.0596,-1.9406,0.0,0.0,0.0,0.0,0.0,0.0,0.0,0.0,0.0,0.0,0.0,0.0,0.0,0.0,0.0,0.0,0.0,0.0,0.0,0.0,0.0,0.0,0.0,0.0,0.0,0.0,0.0,0.0,0.0,0.0,0.0,0.0,0.0,0.0,0.0,0.0,0.0,0.0,0.0,0.0,0.0,0.0,0.0,0.0,0.0,0.0,0.0,0.0,0.0,0.0,0.0,0.0,0.0,0.0,0.0,0.0,0.0,0.0,0.0,0.0,0.0,0.0,0.0,0.0,0.0,0.0,0.0,0.0,0.0,0.0,0.0,0.0,0.0,0.0,0.0,0.0,0.0,0.0,0.0,0.0,0.0,0.0,0.0,0.0,0.0,0.0,0.0,0.0,0.0,0.0,0.0,0.0,0.0,0.0,0.0,0.0,0.0,0.0,0.0,0.0,0.0,0.0,-1.9671,-2.0017,-2.0483,-2.1248,-2.1331,-2.1269,-2.1124,-2.0979,-2.0236,-1.8675,0.0,0.0,0.0,0.0,0.0,0.0,0.0,0.0,0.0,0.0,0.0,0.0,0.0,0.0,0.0,0.0,0.0,0.0,0.0,0.0,0.0,0.0,0.0,0.0,0.0,0.0,0.0,0.0,0.0,0.0,0.0,0.0,0.0,0.0,0.0,0.0,0.0,0.0,0.0,0.0,0.0,0.0,0.0,0.0,0.0,0.0,0.0,0.0,0.0,0.0,0.0,0.0,0.0,0.0,0.0,0.0,0.0,0.0,0.0,0.0,0.0,0.0,0.0,0.0,0.0,0.0,0.0,0.0,0.0,0.0,0.0,0.0,0.0,0.0,0.0,0.0,0.0,0.0,0.0,0.0,0.0,0.0,0.0,0.0,0.0,0.0,0.0,0.0,0.0,0.0,0.0,0.0,0.0,0.0,0.0,0.0,0.0,0.0,0.0,0.0,0.0,0.0,-1.9713,-2.0565,-2.13,-2.1756,-2.1797,-2.1611,-2.1155,-2.069,-1.9563,0.0,0.0,0.0,0.0,0.0,0.0,0.0,0.0,0.0,0.0,0.0,0.0,0.0,0.0,0.0,0.0,0.0,0.0,0.0,0.0,0.0,0.0,0.0,0.0,0.0,0.0,0.0,0.0,0.0,0.0,0.0,0.0,0.0,0.0,0.0,0.0,0.0,0.0,0.0,0.0,0.0,0.0,0.0,0.0,0.0,0.0,0.0,0.0,0.0,0.0,0.0,0.0,0.0,0.0,0.0,0.0,0.0,0.0,0.0,0.0,0.0,0.0,0.0,0.0,0.0,0.0,0.0,0.0,0.0,0.0,0.0,0.0,0.0,0.0,0.0,0.0,0.0,0.0,0.0,0.0,0.0,0.0,0.0,0.0,0.0,0.0,0.0,0.0,0.0,0.0,0.0,0.0,0.0,0.0,0.0,0.0,0.0,0.0,0.0,0.0,0.0,0.0,0.0,-2.011,-2.1031,-2.1652,-2.1797,-2.1507,-2.1269,-2.1124,-2.04,-1.9236,-1.7619,0.0,0.0,0.0,0.0,0.0,0.0,0.0,0.0,0.0,0.0,0.0,0.0,0.0,0.0,0.0,0.0,0.0,0.0,0.0,0.0,0.0,0.0,0.0,0.0,0.0,0.0,0.0,0.0,0.0,0.0,0.0,0.0,0.0,0.0,0.0,0.0,0.0,0.0,0.0,0.0,0.0,0.0,0.0,0.0,0.0,0.0,0.0,0.0,0.0,0.0,0.0,0.0,0.0,0.0,0.0,0.0,0.0,0.0,0.0,0.0,0.0,0.0,0.0,0.0,0.0,0.0,0.0,0.0,0.0,0.0,0.0,0.0,0.0,0.0,0.0,0.0,0.0,0.0,0.0,0.0,0.0,0.0,0.0,0.0,0.0,0.0,0.0,0.0,0.0,0.0,0.0,0.0,0.0,0.0,0.0,0.0,0.0,0.0,0.0,0.0,0.0,0.0,-2.0286,-2.1073,-2.16,-2.1787,-2.1393,-2.1041,-2.0855,-1.989,-1.8594,-1.6898,0.0,0.0,0.0,0.0,0.0,0.0,0.0,0.0,0.0,0.0,0.0,0.0,0.0,0.0,0.0,0.0,0.0,0.0,0.0,0.0,0.0,0.0,0.0,0.0,0.0,0.0,0.0,0.0,0.0,0.0,0.0,0.0,0.0,0.0,0.0,0.0,0.0,0.0,0.0,0.0,0.0,0.0,0.0,0.0,0.0,0.0,0.0,0.0,0.0,0.0,0.0,0.0,0.0,0.0,0.0,0.0,0.0,0.0,0.0,0.0,0.0,0.0,0.0,0.0,0.0,0.0,0.0,0.0,0.0,0.0,0.0,0.0,0.0,0.0,0.0,0.0,0.0,0.0,0.0,0.0,0.0,0.0,0.0,0.0,0.0,0.0,0.0,0.0,0.0,0.0,0.0,0.0,0.0,0.0,0.0,0.0,0.0,0.0,0.0,0.0,0.0,0.0,-2.0255,-2.0866,-2.1342,-2.1756,-2.1352,-2.0803,-2.0309,-1.9253,-1.7832,-1.5864,0.0,0.0,0.0,0.0,0.0,0.0,0.0,0.0,0.0,0.0,0.0,0.0,0.0,0.0,0.0,0.0,0.0,0.0,0.0,0.0,0.0,0.0,0.0,0.0,0.0,0.0,0.0,0.0,0.0,0.0,0.0,0.0,0.0,0.0,0.0,0.0,0.0,0.0,0.0,0.0,0.0,0.0,0.0,0.0,0.0,0.0,0.0,0.0,0.0,0.0,0.0,0.0,0.0,0.0,0.0,0.0,0.0,0.0,0.0,0.0,-1.9768,-1.9406,0.0,0.0,0.0,0.0,0.0,0.0,0.0,0.0,0.0,0.0,0.0,0.0,0.0,0.0,0.0,0.0,0.0,0.0,0.0,0.0,0.0,0.0,0.0,0.0,0.0,0.0,0.0,0.0,0.0,0.0,0.0,0.0,0.0,0.0,0.0,0.0,0.0,0.0,0.0,0.0,-2.0338,-2.1145,-2.1694,-2.1797,-2.1062,-2.0237,-1.962,-1.8685,-1.7358,-1.5423,-1.5005,0.0,0.0,0.0,0.0,0.0,0.0,0.0,0.0,0.0,0.0,0.0,0.0,0.0,0.0,0.0,0.0,0.0,0.0,0.0,0.0,0.0,0.0,0.0,0.0,0.0,0.0,0.0,0.0,0.0,0.0,0.0,0.0,0.0,0.0,0.0,0.0,0.0,0.0,0.0,0.0,0.0,0.0,0.0,0.0,0.0,0.0,0.0,0.0,0.0,0.0,0.0,0.0,0.0,0.0,0.0,0.0,0.0,0.0,0.0,-2.0607,-2.0151,0.0,0.0,0.0,0.0,0.0,0.0,0.0,0.0,0.0,0.0,0.0,0.0,0.0,0.0,0.0,0.0,0.0,0.0,0.0,0.0,0.0,0.0,0.0,0.0,0.0,0.0,0.0,0.0,0.0,0.0,0.0,0.0,0.0,0.0,0.0,0.0,0.0,0.0,0.0,0.0,-2.0638,-2.0795,-2.0943,-2.1155,-2.0187,-1.9325,-1.8756,-1.78,-1.6621,-1.5274,-1.4672,0.0,0.0,0.0,0.0,0.0,0.0,0.0,0.0,0.0,0.0,0.0,0.0,0.0,0.0,0.0,0.0,0.0,0.0,0.0,0.0,0.0,0.0,0.0,0.0,0.0,0.0,0.0,0.0,0.0,0.0,0.0,0.0,0.0,0.0,0.0,0.0,0.0,0.0,0.0,0.0,0.0,0.0,0.0,0.0,0.0,0.0,0.0,0.0,0.0,0.0,0.0,0.0,0.0,-2.2045,-2.2242,-2.2615,-2.2615,-2.2408,-2.2035,-2.1725,-2.1238,-2.0659,-2.0659,0.0,0.0,0.0,0.0,0.0,0.0,0.0,0.0,0.0,0.0,0.0,0.0,0.0,0.0,0.0,0.0,0.0,0.0,0.0,0.0,0.0,0.0,-2.1195,-2.0739,-2.0954,-2.0828,-1.9485,0.0,0.0,0.0,0.0,0.0,0.0,0.0,0.0,0.0,0.0,0.0,-2.0518,-2.0197,-1.9918,-2.0265,-1.9247,-1.8373,-1.797,-1.6849,-1.5888,-1.5111,-1.4478,-1.4005,0.0,0.0,0.0,0.0,0.0,0.0,0.0,0.0,0.0,0.0,0.0,0.0,0.0,0.0,0.0,0.0,0.0,0.0,0.0,0.0,0.0,0.0,0.0,0.0,0.0,0.0,0.0,0.0,0.0,0.0,0.0,0.0,-1.9734,-1.9734,0.0,0.0,0.0,0.0,0.0,0.0,0.0,0.0,0.0,0.0,0.0,0.0,0.0,-2.2035,-2.2904,-2.2853,-2.2884,-2.3008,-2.3008,-2.3039,-2.3091,-2.3091,-2.306,-2.3018,-2.336,0.0,-2.1621,-2.1621,0.0,0.0,0.0,0.0,0.0,0.0,0.0,0.0,0.0,0.0,0.0,0.0,0.0,0.0,0.0,0.0,0.0,0.0,0.0,0.0,0.0,0.0,-2.2152,-2.1629,-2.1585,-2.1125,-1.9441,-1.9763,-2.0053,-1.8834,-1.8675,-1.8496,0.0,0.0,0.0,0.0,0.0,0.0,-1.8974,-1.9214,-1.9437,-1.9413,-1.8681,-1.7922,-1.7203,-1.6387,-1.5513,-1.4712,-1.4283,-1.4228,-1.449,-1.4204,0.0,0.0,0.0,0.0,0.0,0.0,0.0,0.0,0.0,0.0,0.0,0.0,0.0,0.0,0.0,0.0,0.0,0.0,0.0,0.0,0.0,0.0,0.0,0.0,0.0,0.0,0.0,0.0,0.0,-1.9536,-1.9827,-1.9827,-1.9827,-1.9827,0.0,0.0,0.0,0.0,0.0,0.0,0.0,0.0,0.0,-2.2553,-2.2584,-2.278,-2.3184,-2.3184,-2.3318,-2.3577,-2.3577,-2.3712,-2.395,-2.395,-2.395,-2.396,-2.4167,-2.3908,-2.3308,-2.2791,-2.2304,-2.1849,0.0,0.0,0.0,0.0,-2.159,-2.1621,-2.189,-2.1973,-2.1921,-2.1611,0.0,0.0,0.0,0.0,0.0,0.0,0.0,-2.146,-2.1446,-2.171,-2.1826,-2.1087,-2.0885,-2.0717,-1.9978,-2.0079,-1.9934,-1.8443,-1.9014,-1.9245,-1.7899,-1.8035,0.0,0.0,0.0,-1.9403,-1.932,-1.9021,-1.8709,-1.8346,-1.7545,-1.6733,-1.6038,-1.5708,-1.521,-1.4657,-1.4498,-1.4474,-1.4561,-1.449,-1.4482,0.0,0.0,0.0,0.0,0.0,0.0,0.0,0.0,0.0,0.0,0.0,0.0,0.0,0.0,0.0,0.0,0.0,0.0,0.0,0.0,0.0,0.0,0.0,0.0,0.0,0.0,0.0,0.0,-1.9572,-1.9934,-1.9934,-2.0038,-2.0151,0.0,0.0,0.0,0.0,0.0,0.0,-2.1942,-2.2097,-2.2584,-2.3505,-2.3422,-2.3474,-2.3712,-2.3598,-2.3712,-2.4043,-2.4043,-2.4219,-2.454,-2.454,-2.454,-2.454,-2.454,-2.454,-2.4478,-2.3691,-2.3163,-2.2811,-2.247,-2.2335,-2.2387,-2.2853,-2.3018,-2.307,-2.3412,-2.3463,-2.3267,-2.2687,-2.2428,-2.218,-2.1373,0.0,0.0,0.0,0.0,-2.1372,-2.1173,-2.1326,-2.1315,-2.0494,-2.0273,-2.0273,-1.9929,-2.0101,-1.9835,-1.8305,-1.9101,-1.9474,-1.8035,-1.7929,0.0,-1.8663,-1.8931,-1.9083,-1.9197,-1.8571,-1.796,-1.7204,-1.6504,-1.5833,-1.5237,-1.5102,-1.4927,-1.4585,-1.4569,-1.4569,-1.4569,-1.4569,-1.4569,-1.4569,0.0,0.0,0.0,0.0,0.0,0.0,0.0,0.0,0.0,0.0,0.0,0.0,0.0,0.0,0.0,0.0,0.0,0.0,0.0,0.0,0.0,0.0,0.0,0.0,0.0,0.0,0.0,0.0,0.0,-2.0389,-2.0772,0.0,0.0,0.0,0.0,-2.1631,-2.1725,-2.1952,-2.2439,-2.2884,-2.3536,-2.4447,-2.4064,-2.426,-2.5119,-2.4695,-2.4488,-2.4509,-2.4509,-2.4519,-2.454,-2.454,-2.454,-2.454,-2.454,-2.454,-2.4509,-2.4033,-2.3826,-2.3805,-2.3784,-2.3774,-2.3826,-2.4271,-2.4436,-2.4436,-2.4467,-2.4198,-2.3908,-2.4281,-2.4115,-2.3681,-2.3194,-2.2362,0.0,0.0,-2.1049,-2.0512,-2.0924,-2.1044,-2.0884,-2.0381,-2.0279,-2.0017,-1.9039,-1.9662,-1.9952,-1.8667,-1.8537,-1.8371,-1.7451,0.0,-1.8363,-1.7919,-1.8579,-1.8727,-1.7564,-1.7363,-1.7084,-1.6357,-1.5904,-1.5562,-1.5213,-1.4863,-1.4585,-1.4569,-1.4569,-1.4569,-1.4569,-1.4569,-1.4569,-1.4569,-1.4569,0.0,0.0,0.0,0.0,0.0,0.0,0.0,0.0,0.0,0.0,0.0,0.0,0.0,0.0,0.0,0.0,0.0,0.0,0.0,0.0,0.0,0.0,0.0,0.0,0.0,0.0,0.0,0.0,-2.1311,-2.1725,0.0,-2.2232,-2.1952,-2.189,-2.2232,-2.2532,-2.2904,-2.336,-2.3815,-2.4343,-2.4964,-2.483,-2.4902,-2.5223,-2.4767,-2.454,-2.454,-2.454,-2.454,-2.454,-2.454,-2.454,-2.454,-2.454,-2.454,-2.4529,-2.4374,-2.4478,-2.4757,-2.4757,-2.4757,-2.4767,-2.4923,-2.4799,-2.454,-2.454,-2.4436,-2.4281,-2.4157,-2.3357,-2.2611,-2.3063,-2.2493,-2.1773,-2.2045,-2.188,-2.1466,-2.0748,-2.0588,-2.0355,-1.9513,-1.9363,-1.9214,-1.8624,-1.8926,-1.9175,-1.8474,-1.8874,-1.8877,-1.78,-1.7661,-1.7795,-1.8113,-1.7999,-1.7827,-1.7666,-1.7405,-1.7,-1.6285,-1.5888,-1.5539,-1.5213,-1.4847,-1.4569,-1.4569,-1.4569,-1.4569,-1.4569,-1.4569,-1.4569,-1.4569,-1.4569,-1.4569,0.0,0.0,0.0,0.0,0.0,0.0,0.0,0.0,0.0,0.0,0.0,0.0,0.0,0.0,0.0,0.0,0.0,0.0,0.0,0.0,0.0,0.0,0.0,0.0,0.0,-2.1269,-2.2035,-2.2035,-2.2449,-2.2791,-2.2946,-2.2822,-2.2863,-2.3163,-2.3339,-2.3619,-2.4074,-2.4385,-2.4757,-2.5223,-2.5078,-2.5078,-2.5233,-2.4767,-2.454,-2.454,-2.454,-2.454,-2.454,-2.454,-2.454,-2.454,-2.454,-2.454,-2.454,-2.454,-2.4809,-2.5233,-2.5233,-2.5233,-2.5254,-2.5399,-2.5254,-2.4974,-2.483,-2.4778,-2.4609,-2.389,-2.3008,-2.2236,-2.2611,-2.2003,-2.1267,-2.1624,-2.1447,-2.0977,-2.0008,-1.9812,-1.9629,-1.892,-1.8827,-1.8732,-1.8375,-1.8486,-1.8581,-1.8343,-1.893,-1.9067,-1.8097,-1.7771,-1.7779,-1.8232,-1.7811,-1.7525,-1.7747,-1.7485,-1.7,-1.6285,-1.5991,-1.5674,-1.5229,-1.5062,-1.4887,-1.4657,-1.4752,-1.4768,-1.4649,-1.476,-1.4824,-1.4824,-1.4824,-1.4824,-1.4824,0.0,0.0,0.0,0.0,0.0,0.0,0.0,0.0,0.0,0.0,0.0,0.0,0.0,0.0,0.0,0.0,0.0,0.0,0.0,0.0,0.0,0.0,0.0,-2.1217,-2.1952,-2.2542,-2.2542,-2.2946,-2.3412,-2.3857,-2.3494,-2.3598,-2.4478,-2.4146,-2.4084,-2.4519,-2.4464,-2.4778,-2.5244,-2.4809,-2.4788,-2.5244,-2.4778,-2.454,-2.454,-2.454,-2.454,-2.454,-2.454,-2.454,-2.454,-2.454,-2.454,-2.454,-2.454,-2.4809,-2.5213,-2.5223,-2.5233,-2.5285,-2.5699,-2.5844,-2.5771,-2.5357,-2.5213,-2.4954,-2.3505,-2.3096,-2.2921,-2.1961,-2.106,-2.0339,-2.0339,-1.9629,-1.8827,-1.8827,-1.8827,-1.8827,-1.8827,-1.8827,-1.8732,-1.8375,-1.8295,-1.8295,-1.8287,-1.8557,-1.8692,-1.8359,-1.8279,-1.8271,-1.8279,-1.7969,0.0,-1.7755,-1.7469,-1.7,-1.6293,-1.6214,-1.5936,-1.5276,-1.5483,-1.5364,-1.4624,-1.4967,-1.4998,-1.4657,-1.4982,-1.5165,-1.5165,-1.5181,-1.5189,-1.5189,0.0,0.0,0.0,0.0,0.0,0.0,0.0,0.0,0.0,0.0,0.0,0.0,0.0,0.0,0.0,0.0,0.0,0.0,0.0,0.0,0.0,-2.1268,-2.2646,-2.218,-2.2915,-2.3505,-2.3505,-2.3898,-2.4219,-2.4343,-2.424,-2.4271,-2.4519,-2.4426,-2.4416,-2.4444,-2.4861,-2.5244,-2.5689,-2.5275,-2.5254,-2.5699,-2.4923,-2.454,-2.454,-2.454,-2.454,-2.454,-2.454,-2.454,-2.454,-2.454,-2.454,-2.454,-2.454,-2.4623,-2.4767,-2.5099,-2.5233,-2.5244,-2.5368,-2.5202,-2.4892,-2.4778,-2.4726,-2.4533,-2.3406,-2.2658,-2.205,-2.1784,-2.106,-2.0339,-2.0339,-2.0076,-1.972,-1.9004,-1.8827,-1.8827,-1.8827,-1.8827,-1.8732,-1.8375,-1.8295,-1.8224,-1.7962,-1.7993,-1.8112,-1.8271,-1.789,-1.7636,-1.7882,-1.7405,-1.7111,-1.7382,-1.7104,-1.681,-1.6611,-1.6357,-1.6134,-1.5936,-1.5308,-1.4959,-1.503,-1.4641,-1.4474,-1.4561,-1.4736,-1.4792,-1.4792,-1.5046,-1.5189,0.0,0.0,0.0,0.0,0.0,0.0,0.0,0.0,0.0,0.0,0.0,0.0,0.0,0.0,0.0,0.0,0.0,0.0,0.0,0.0,0.0,0.0,-2.199,-2.3453,-2.336,-2.3815,-2.4157,-2.4157,-2.4385,-2.454,-2.454,-2.454,-2.454,-2.454,-2.454,-2.454,-2.454,-2.4799,-2.515,-2.5595,-2.5357,-2.544,-2.5875,-2.5181,-2.483,-2.483,-2.4547,-2.454,-2.454,-2.454,-2.454,-2.454,-2.454,-2.454,-2.454,-2.454,-2.454,-2.4571,0.0,0.0,0.0,0.0,-2.4767,-2.454,-2.454,-2.4272,-2.3734,-2.2833,-2.1863,-2.1069,-2.0619,-2.0076,-1.9629,-1.9629,-1.9629,-1.9546,-1.8912,-1.8827,-1.8827,-1.8827,-1.8716,-1.851,-1.8152,-1.7969,-1.7811,-1.7604,-1.7564,0.0,-1.7834,-1.754,-1.735,-1.7533,-1.7088,-1.6865,-1.7231,-1.6961,-1.673,-1.673,-1.6547,-1.6365,-1.6222,-1.5785,0.0,0.0,0.0,-1.5086,-1.5284,-1.53,0.0,0.0,0.0,-1.5539,-1.5388,-1.617,0.0,0.0,-1.7559,-1.7914,0.0,0.0,0.0,0.0,0.0,0.0,0.0,0.0,0.0,0.0,0.0,0.0,0.0,0.0,0.0,0.0,-2.2905,-2.4074,-2.4416,-2.4467,-2.4488,-2.4444,-2.454,-2.454,-2.454,-2.454,-2.454,-2.454,-2.454,-2.454,-2.454,-2.454,0.0,0.0,0.0,-2.5368,-2.5802,-2.5368,-2.5161,-2.515,-2.4736,-2.454,-2.454,-2.454,-2.454,-2.454,-2.454,-2.454,-2.454,-2.454,-2.454,-2.454,-2.454,-2.454,-2.454,-2.454,-2.4454,-2.4358,-2.4358,0.0,0.0,-2.1872,-2.097,-2.0076,-1.9096,-1.8827,-1.8827,-1.8827,-1.8827,-1.8827,-1.8827,-1.8827,-1.8819,-1.878,-1.8526,-1.82,-1.7842,-1.7509,-1.7278,-1.7278,-1.7247,-1.7215,-1.7215,-1.7254,-1.7262,-1.7223,-1.6945,-1.6849,-1.7175,-1.6937,-1.673,-1.673,-1.673,0.0,-1.6293,-1.6476,-1.6365,-1.5777,-1.5991,-1.6142,-1.6142,-1.6111,-1.6087,-1.6087,-1.6087,-1.5936,-1.5626,-1.6415,-1.6839,-1.6855,-1.7299,-1.7716,0.0,0.0,0.0,0.0,0.0,0.0,0.0,0.0,0.0,0.0,0.0,0.0,0.0,0.0,0.0,-2.0764,-2.2819,-2.4322,-2.4043,-2.4002,-2.4136,-2.4498,-2.454,-2.454,-2.454,-2.454,-2.454,-2.454,-2.454,-2.454,-2.454,-2.454,-2.4757,-2.5223,-2.4871,-2.4892,-2.5357,-2.4902,-2.4674,-2.4674,-2.4495,0.0,-2.454,-2.454,-2.454,-2.454,-2.454,-2.454,-2.454,-2.454,-2.454,-2.454,-2.454,-2.454,-2.454,-2.454,-2.4003,-2.3367,-2.3367,-2.2755,-2.1774,-2.0881,-2.0439,-2.0076,-1.9096,-1.8827,0.0,-1.8827,-1.8827,-1.8827,-1.8827,-1.8827,-1.8756,-1.847,-1.8351,-1.82,-1.7842,-1.7509,-1.7278,-1.7278,-1.704,-1.6841,-1.6841,-1.7088,-1.7183,-1.6881,-1.6778,-1.6762,-1.6833,-1.6778,-1.673,-1.673,-1.673,-1.6706,-1.6635,-1.6174,-1.5944,-1.6095,-1.5896,-1.5777,-1.5777,-1.5523,-1.538,-1.538,-1.538,-1.5348,-1.5284,-1.5982,-1.6365,-1.6373,-1.7379,-1.8121,0.0,0.0,0.0,0.0,0.0,0.0,0.0,0.0,0.0,0.0,0.0,-1.7056,-1.7223,0.0,-2.0927,-2.113,-2.3004,-2.4385,-2.3939,-2.3877,-2.3877,-2.3867,-2.4064,-2.4209,-2.4209,-2.4405,-2.454,-2.454,-2.454,-2.454,-2.454,-2.454,-2.4757,-2.5223,-2.5006,-2.5109,-2.5554,-2.5109,-2.4892,-2.4892,-2.4567,-2.454,-2.454,-2.454,-2.454,-2.454,-2.454,-2.454,-2.454,-2.454,-2.454,-2.454,-2.454,-2.454,-2.454,-2.454,-2.3907,-2.3096,-2.3096,-2.2208,-2.0881,-2.043,-1.9985,-1.9455,-1.8912,-1.8827,-1.8827,-1.8827,-1.8827,-1.8827,-1.8827,-1.8827,-1.874,-1.8383,-1.816,-1.7946,-1.7596,-1.7247,-1.7008,-1.7008,-1.7008,-1.6945,-1.6762,-1.704,-1.7159,-1.6786,-1.673,-1.673,-1.673,-1.673,-1.673,-1.673,-1.673,-1.6667,-1.6484,-1.6142,-1.6015,-1.619,-1.6206,-1.6206,-1.6206,-1.588,-1.5697,-1.5697,-1.5523,-1.5348,-1.5189,-1.569,-1.5944,-1.5952,-1.67,-1.7451,0.0,0.0,0.0,0.0,0.0,0.0,0.0,-1.616,-1.6651,-1.7143,-1.7421,-1.766,-1.793,-1.9686,-2.1134,-2.164,-2.3115,-2.4088,-2.3815,-2.3826,-2.367,-2.3122,-2.3536,-2.3919,-2.4002,-2.4333,-2.454,-2.454,-2.454,-2.454,-2.454,-2.454,-2.4705,-2.5088,-2.5099,-2.5264,-2.5616,-2.5275,-2.5099,-2.5099,-2.4716,-2.454,-2.454,-2.454,-2.454,-2.454,-2.454,-2.454,-2.454,-2.454,-2.454,-2.4454,-2.4272,-2.4272,-2.4272,-2.4272,-2.3551,-2.2561,-2.2561,-2.1409,-1.9977,-1.9901,-1.9397,-1.8812,-1.874,-1.8772,-1.8827,-1.8827,-1.878,-1.8724,-1.8724,-1.8676,-1.8533,-1.8184,-1.7882,-1.758,-1.7247,-1.6945,-1.673,-1.673,-1.6969,-1.708,-1.6786,-1.6976,-1.7072,-1.6778,-1.673,-1.673,-1.673,-1.673,-1.673,-1.673,-1.6675,-1.6484,-1.6134,-1.6103,-1.6134,-1.6198,-1.6476,-1.6635,-1.6635,-1.6285,-1.6071,-1.6007,-1.5658,-1.534,-1.5078,-1.5419,-1.5578,-1.5594,-1.6007,-1.6637,-1.1262,-1.151,-1.2332,-1.3809,-1.443,-1.5298,0.0,-1.7725,-1.7874,-1.8875,-1.8851,-1.8661,-1.87,-1.9629,-2.0657,-2.1596,-2.258,-2.3262,-2.3299,-2.3619,-2.3557,-2.2677,-2.335,-2.4033,-2.4426,-2.4509,-2.454,-2.454,-2.454,-2.454,-2.454,-2.454,-2.4475,-2.4623,-2.4623,-2.4643,-2.4685,-2.4643,-2.4623,-2.4623,-2.4571,-2.454,-2.454,-2.454,-2.454,-2.454,-2.454,-2.454,-2.454,-2.454,-2.454,-2.4454,-2.3551,-2.328,-2.328,-2.328,-2.212,-2.061,-2.061,-1.9894,-1.8956,-1.8635,-1.8656,-1.8772,-1.8454,-1.8573,-1.8827,-1.8827,-1.8605,-1.8359,-1.8359,-1.812,-1.7803,-1.7469,-1.7366,-1.7231,-1.6873,-1.6762,-1.673,-1.673,-1.677,-1.6786,-1.6746,-1.677,-1.6778,-1.6738,-1.673,-1.673,-1.673,-1.673,-1.673,-1.673,-1.6452,-1.6118,-1.5761,-1.5737,-1.5872,-1.6182,-1.6238,-1.6261,-1.6261,-1.592,-1.5602,-1.5308,-1.4943,-1.4664,-1.4704,-1.5062,-1.5237,-1.5253,-1.5904,-1.6637,-1.1708,-1.2089,-1.2661,-1.3924,-1.4744,-1.57,-1.7276,-1.7758,-1.8092,-1.8923,-1.8931,-1.9004,-1.9538,-2.0439,-2.1346,-2.1985,-2.2916,-2.349,-2.3196,-2.336,-2.3432,-2.3318,-2.3639,-2.395,-2.4136,-2.4385,-2.454,-2.454,-2.454,-2.454,-2.454,-2.454,-2.454,-2.454,-2.454,-2.454,-2.454,-2.454,-2.454,-2.454,-2.454,-2.454,-2.454,-2.454,-2.454,-2.454,-2.454,-2.454,-2.454,-2.454,-2.454,-2.4454,-2.3464,-2.2746,-2.2315,-2.2315,-2.1409,-2.0314,-2.0009,-1.9314,-1.8462,-1.8105,-1.8232,-1.8454,-1.8097,-1.824,-1.8478,-1.8271,-1.8105,-1.7993,-1.7993,-1.7882,-1.7683,-1.7358,-1.7278,-1.7183,-1.681,-1.673,-1.673,-1.673,-1.673,-1.673,-1.673,-1.673,-1.673,-1.673,-1.673,-1.673,-1.673,-1.673,-1.673,-1.673,-1.6063,-1.5626,-1.5674,-1.5674,-1.5737,-1.5888,-1.6087,-1.6206,-1.6206,-1.5682,-1.5324,-1.5189,-1.4824,-1.4569,-1.4569,-1.4792,-1.4975,-1.5197,-1.5475,-1.587,-1.1709,-1.2288,-1.2675,-1.369,-1.4787,-1.5867,-1.6856,-1.7606,-1.8216,-1.8839,-1.887,-1.912,-2.0212,-2.096,-2.1548,-2.2254,-2.2978,-2.3401,-2.308,-2.3111,-2.3318,-2.365,-2.3805,-2.3929,-2.4043,-2.4353,-2.454,-2.454,-2.454,-2.454,-2.454,-2.454,-2.454,-2.454,-2.454,-2.454,-2.454,-2.454,-2.454,-2.454,-2.454,-2.454,-2.454,-2.454,-2.454,-2.454,-2.454,-2.454,-2.454,-2.454,-2.454,-2.4368,-2.3193,-2.2306,-2.1606,-2.1069,-2.0369,-1.9701,-1.944,-1.8847,-1.8097,-1.7747,-1.7938,-1.8216,-1.7771,-1.8017,-1.8367,-1.8017,-1.7914,-1.7898,-1.7795,-1.7699,-1.7548,-1.7207,-1.7127,-1.7056,-1.6794,-1.673,-1.673,-1.673,-1.673,-1.673,-1.673,-1.673,-1.673,-1.673,-1.673,-1.673,-1.673,-1.673,-1.669,-1.6595,-1.5825,-1.538,-1.5531,-1.5451,-1.5435,-1.5531,-1.5777,-1.5928,-1.5928,-1.5451,-1.5141,-1.5038,-1.4776,-1.4569,-1.4569,-1.4569,-1.4776,-1.5038,-1.5141,-1.5383,-1.1171,-1.1745,-1.2131,-1.2928,-1.4294,-1.5638,-1.6519,-1.764,-1.8652,-1.9314,-1.9115,-1.9201,-2.0551,-2.0497,-2.0837,-2.2169,-2.2451,-2.2492,-2.2477,-2.2904,-2.3194,-2.3205,-2.3598,-2.4043,-2.4478,-2.4444,-2.454,-2.454,-2.454,-2.454,-2.454,-2.454,-2.454,-2.454,-2.454,-2.454,-2.454,-2.454,-2.454,-2.454,-2.454,-2.454,-2.454,-2.454,-2.454,-2.454,-2.454,-2.454,-2.454,-2.454,-2.454,-2.4282,-2.2492,-2.1695,-2.1427,-1.9538,-1.8696,-1.8401,-1.8393,-1.8073,-1.7731,-1.7397,-1.7747,-1.8176,-1.7501,-1.8001,-1.874,-1.8383,-1.8279,-1.82,-1.7858,-1.7533,-1.7199,-1.6841,-1.6754,-1.6746,-1.6738,-1.673,-1.673,-1.673,-1.673,-1.673,-1.673,-1.673,-1.673,-1.673,-1.673,-1.673,-1.673,-1.673,-1.6603,-1.6261,-1.5888,-1.5539,-1.5229,-1.4879,-1.4824,-1.5173,-1.5213,-1.5213,-1.5213,-1.5197,-1.5014,-1.4665,-1.4649,-1.4569,-1.4569,-1.4569,-1.4649,-1.4593,-1.5022,-1.5404,-1.0841,-1.1566,-1.2289,-1.351,-1.4281,-1.507,-1.6494,-1.7159,-1.768,-1.8377,-1.8342,-1.843,-1.9356,-2.0009,-2.0649,-2.1218,-2.2169,-2.2961,-2.2998,-2.3091,-2.3412,-2.4012,-2.4219,-2.4374,-2.4529,-2.454,-2.454,-2.454,-2.454,-2.454,-2.454,-2.454,-2.454,-2.454,-2.454,-2.454,-2.454,-2.454,-2.454,-2.454,-2.454,-2.454,-2.454,-2.454,-2.454,-2.454,-2.454,-2.454,-2.454,-2.454,-2.409,-2.3454,-2.2227,-2.1338,-2.0619,-1.9271,-1.8605,-1.8295,-1.8295,-1.8224,-1.8065,-1.7715,-1.7922,-1.8208,-1.7747,-1.8009,-1.8359,-1.7787,-1.762,-1.754,-1.7175,-1.7183,-1.7191,-1.6818,-1.6921,-1.7032,-1.6786,-1.673,-1.673,-1.673,-1.673,-1.673,-1.673,-1.6937,-1.7096,-1.7096,-1.6889,-1.673,-1.673,-1.6532,-1.6428,-1.6547,-1.6031,-1.5634,-1.5523,-1.561,-1.5634,-1.5523,-1.5515,-1.5363,-1.4981,-1.4848,-1.4543,-1.4057,-1.4418,-1.4569,-1.4569,-1.4569,-1.4569,-1.4569,-1.4768,-1.5033,-1.0456,-1.1156,-1.1712,-1.2918,-1.3517,-1.411,-1.5214,-1.6183,-1.6965,-1.7242,-1.7447,-1.7945,-1.8981,-1.9867,-2.0623,-2.0927,-2.2124,-2.2946,-2.2946,-2.2801,-2.3091,-2.4178,-2.4312,-2.4364,-2.4529,-2.454,-2.454,-2.454,-2.454,-2.454,-2.454,-2.454,-2.454,-2.454,-2.454,-2.454,-2.454,-2.454,-2.454,-2.454,-2.454,-2.454,-2.454,-2.454,-2.454,-2.454,-2.454,-2.454,-2.454,-2.454,-2.3917,-2.3008,-2.205,-2.1159,-2.0158,-1.918,-1.8684,-1.847,-1.8343,-1.8216,-1.8073,-1.7842,-1.8009,-1.8232,-1.7874,-1.8017,-1.8184,-1.7612,-1.7453,-1.7397,-1.7167,-1.7278,-1.7397,-1.7159,-1.7286,-1.739,-1.7151,-1.7104,-1.7072,-1.6953,-1.7024,-1.7072,-1.6945,-1.7223,-1.7453,-1.7453,-1.7159,-1.6881,-1.6754,-1.6532,-1.6484,-1.6706,-1.5967,-1.5545,-1.5545,-1.5537,-1.5273,-1.4889,-1.4919,-1.4774,-1.4175,-1.4073,-1.384,-1.347,-1.384,-1.4129,-1.4274,-1.4274,-1.4418,-1.4569,-1.4569,-1.4919,-0.9948,-1.0444,-1.0449,-1.1212,-1.206,-1.2789,-1.2861,-1.4734,-1.6337,-1.5937,-1.6528,-1.7541,-1.9203,-1.9907,-2.0522,-2.1326,-2.2076,-2.2563,-2.2563,-2.219,-2.2408,-2.3753,-2.3992,-2.4158,-2.4498,-2.454,-2.454,-2.454,-2.454,-2.454,-2.454,-2.454,-2.454,-2.454,-2.454,-2.454,-2.454,-2.454,-2.454,-2.454,-2.454,-2.454,-2.454,-2.454,-2.454,-2.454,-2.454,-2.454,-2.454,-2.454,-2.3907,-2.2921,-2.205,-2.106,-2.0076,-1.9188,-1.8827,-1.878,-1.8446,-1.8105,-1.7826,-1.7826,-1.8041,-1.824,-1.7898,-1.8025,-1.82,-1.7842,-1.7755,-1.7763,-1.7747,-1.7771,-1.7795,-1.7771,-1.7787,-1.7795,-1.7771,-1.7771,-1.7676,-1.7366,-1.7556,-1.7676,-1.7382,-1.7572,-1.7779,-1.7795,-1.7501,-1.7151,-1.681,-1.6664,-1.6648,-1.6648,-1.5782,-1.5175,-1.516,-1.4602,-1.3935,-1.3376,-1.3593,-1.3499,-1.2921,-1.2907,-1.29,-1.2826,-1.29,-1.3185,-1.376,-1.376,-1.4057,-1.4569,-1.4569,-1.4991,-0.9372,-0.9911,-1.0251,-1.0751,-1.104,-1.1535,-1.2782,-1.3918,-1.4832,-1.5405,-1.5992,-1.6622,-1.7245,-1.8559,-1.9779,-2.0322,-2.203,-2.3268,-2.3268,-2.333,-2.3608,-2.4291,-2.4935,-2.5135,-2.4519,-2.5105,-2.5179,-2.454,-2.454,-2.454,-2.454,-2.454,-2.454,-2.454,-2.454,-2.454,-2.454,-2.454,-2.454,-2.454,-2.454,-2.454,-2.454,-2.454,-2.454,-2.454,-2.454,-2.454,-2.454,-2.454,-2.356,-2.2041,-2.1784,-2.0709,-1.9188,-1.892,-1.8827,-1.8812,-1.8724,-1.8637,-1.8557,-1.8557,-1.8438,-1.8279,-1.8192,-1.8041,-1.7834,-1.7501,-1.758,-1.7715,-1.7469,-1.7779,-1.8097,-1.7834,-1.7969,-1.8089,-1.7826,-1.7771,-1.7747,-1.766,-1.7715,-1.7826,-1.8009,-1.789,-1.7683,-1.7415,-1.6877,-1.673,-1.7067,-1.6482,-1.5982,-1.5982,-1.5245,-1.4771,-1.4448,-1.4358,-1.4087,-1.3712,-1.3549,-1.3222,-1.2632,-1.2797,-1.2673,-1.2224,-1.2673,-1.2973,-1.3112,-1.3112,-1.3404,-1.3977,-1.3977,-1.4625,-0.9066,-0.9335,-0.9543,-0.9882,-1.0461,-1.1214,-1.1915,-1.3284,-1.4443,-1.4508,-1.5479,-1.6359,-1.6604,-1.8408,-1.9984,-2.0312,-2.1909,-2.3132,-2.3492,-2.3442,-2.3805,-2.4946,-2.5505,-2.5746,-2.5684,-2.608,-2.5997,-2.5105,-2.47,-2.454,-2.454,-2.454,-2.454,-2.454,-2.454,-2.454,-2.454,-2.454,-2.454,-2.454,-2.454,-2.454,-2.454,-2.454,-2.454,-2.4454,-2.409,-2.3796,-2.3614,-2.3176,-2.2102,-2.0658,-2.0748,-1.9928,-1.8613,-1.8772,-1.8732,-1.8613,-1.8772,-1.8724,-1.8621,-1.878,-1.8692,-1.8533,-1.8533,-1.8279,-1.7962,-1.7779,-1.7747,-1.7763,-1.7739,-1.8009,-1.8287,-1.8247,-1.839,-1.8478,-1.8279,-1.8232,-1.8142,-1.7776,-1.7384,-1.7124,-1.7462,-1.7364,-1.7213,-1.6948,-1.6431,-1.6104,-1.6537,-1.5779,-1.5235,-1.5235,-1.465,-1.4108,-1.3804,-1.3736,-1.338,-1.2857,-1.2782,-1.2538,-1.1942,-1.2013,-1.1929,-1.1632,-1.1929,-1.2224,-1.2526,-1.2746,-1.3185,-1.3833,-1.4194,-1.4911,-0.9179,-0.9222,-0.9123,-0.932,-1.0374,-1.1311,-1.1141,-1.2982,-1.4547,-1.3646,-1.5053,-1.6563,-1.686,-1.8783,-2.0457,-2.0958,-2.192,-2.2847,-2.3543,-2.335,-2.3783,-2.5721,-2.6069,-2.64,-2.7069,-2.7069,-2.6823,-2.6069,-2.502,-2.454,-2.454,-2.454,-2.454,-2.454,-2.454,-2.454,-2.454,-2.454,-2.454,-2.454,-2.454,-2.454,-2.454,-2.454,-2.454,-2.4454,-2.3637,-2.3063,-2.2614,-2.1712,-2.0535,-1.9325,-1.9521,-1.9015,-1.8271,-1.8573,-1.8494,-1.8279,-1.8637,-1.8526,-1.8295,-1.8692,-1.8796,-1.8756,-1.8756,-1.851,-1.8232,-1.8232,-1.8041,-1.7914,-1.8216,-1.8335,-1.8446,-1.8756,-1.8827,-1.8827,-1.8827,-1.8735,-1.845,-1.7692,-1.6722,-1.6167,-1.6539,-1.6588,-1.6581,-1.6487,-1.5902,-1.5445,-1.5356,-1.4881,-1.4566,-1.4566,-1.3984,-1.3458,-1.3283,-1.2898,-1.2378,-1.1594,-1.174,-1.1632,-1.1111,-1.1111,-1.1111,-1.1111,-1.1111,-1.1335,-1.1855,-1.2378,-1.2966,-1.3608,-1.4482,-1.5196,-1.0995,-1.1043,-1.1168,-1.0992,-1.119,-1.1602,-1.2344,-1.3003,-1.355,-1.3933,-1.5142,-1.6403,-1.711,-1.8634,-2.0155,-2.1553,-2.234,-2.3227,-2.4407,-2.4661,-2.5249,-2.6472,-2.7232,-2.7557,-2.7151,-2.7069,-2.7069,-2.6905,-2.5443,-2.454,-2.454,-2.454,-2.454,-2.454,-2.454,-2.454,-2.454,-2.454,-2.454,-2.454,-2.454,-2.454,-2.454,-2.454,-2.454,-2.4454,-2.4358,-2.377,-2.2959,-2.2512,-2.1293,-1.9581,-1.9333,-1.8721,-1.7874,-1.793,-1.7914,-1.7914,-1.8271,-1.816,-1.7969,-1.8613,-1.8629,-1.839,-1.839,-1.8144,-1.7866,-1.7866,-1.8033,-1.8224,-1.8279,-1.8518,-1.8756,-1.8812,-1.8827,-1.8827,-1.8827,-1.835,-1.7692,-1.6951,-1.6633,-1.6518,-1.6574,-1.6588,-1.6393,-1.5724,-1.5338,-1.4844,-1.4297,-1.3969,-1.3899,-1.3899,-1.33,-1.2857,-1.2808,-1.2361,-1.1982,-1.186,-1.1465,-1.1186,-1.1111,-1.1111,-1.1111,-1.1111,-1.1111,-1.1186,-1.126,-1.1335,-1.1706,-1.2298,-1.2966,-1.3905,-1.1643,-1.1601,-1.1675,-1.1601,-1.2013,-1.2533,-1.2973,-1.3556,-1.4194,-1.4984,-1.5953,-1.6924,-1.787,-1.9175,-2.0284,-2.0879,-2.206,-2.3125,-2.4217,-2.4977,-2.6039,-2.7522,-2.8051,-2.8383,-2.8462,-2.8474,-2.8303,-2.7891,-2.7069,-2.6174,-2.5263,-2.4786,-2.454,-2.454,-2.454,-2.454,-2.454,-2.4312,-2.4198,-2.4188,-2.395,-2.396,-2.4198,-2.4198,-2.4057,-2.3724,-2.329,-2.2368,-2.1268,-2.0631,-1.9635,-1.8448,-1.8456,-1.8091,-1.7533,-1.7707,-1.766,-1.7564,-1.7906,-1.7914,-1.7858,-1.8383,-1.8438,-1.8295,-1.8295,-1.8311,-1.8319,-1.8319,-1.8446,-1.8573,-1.8573,-1.87,-1.8827,-1.8827,-1.8827,-1.8827,-1.8827,-1.7893,-1.7044,-1.6676,-1.592,-1.5439,-1.5439,-1.5439,-1.5248,-1.4867,-1.4634,-1.4272,-1.3906,-1.3724,-1.3517,-1.3374,-1.2967,-1.265,-1.2512,-1.227,-1.2011,-1.1739,-1.1473,-1.1262,-1.1117,-1.1111,-1.1111,-1.1111,-1.1111,-1.1111,-1.1111,-1.1484,-1.1855,-1.2009,-1.3631,-1.4668,-1.2432,-1.2392,-1.2439,-1.2365,-1.307,-1.3722,-1.3836,-1.4502,-1.5339,-1.6118,-1.6965,-1.7775,-1.8455,-1.9551,-2.035,-2.0632,-2.1548,-2.2819,-2.4353,-2.517,-2.6371,-2.8457,-2.87,-2.8949,-2.9714,-2.9624,-2.93,-2.8791,-2.8383,-2.7476,-2.5902,-2.4935,-2.454,-2.454,-2.454,-2.454,-2.454,-2.4198,-2.3971,-2.3877,-2.3608,-2.3526,-2.3606,-2.3606,-2.3273,-2.2689,-2.1817,-2.0729,-1.9485,-1.8707,-1.7929,-1.7294,-1.7477,-1.739,-1.7191,-1.7453,-1.7382,-1.7223,-1.7628,-1.7723,-1.7731,-1.816,-1.8351,-1.8414,-1.8414,-1.8605,-1.8827,-1.8827,-1.8827,-1.8827,-1.8827,-1.8827,-1.8827,-1.8827,-1.8635,-1.8542,-1.8357,-1.7232,-1.6298,-1.6109,-1.5153,-1.4298,-1.4298,-1.4298,-1.4298,-1.4298,-1.4123,-1.399,-1.399,-1.3761,-1.3519,-1.3314,-1.3043,-1.2771,-1.2506,-1.2433,-1.2198,-1.1727,-1.1594,-1.1431,-1.1208,-1.1141,-1.1111,-1.1111,-1.1111,-1.1111,-1.1111,-1.1706,-1.2003,-1.1935,-1.4296,-1.5429,-1.4286,-1.4506,-1.4828,-1.4672,-1.4695,-1.5001,-1.5846,-1.5993,-1.6127,-1.6711,-1.7773,-1.8553,-1.837,-1.9003,-2.0144,-2.1807,-2.1305,-2.2122,-2.6138,-2.5789,-2.6193,-2.8971,-2.9341,-2.9431,-2.9792,-2.904,-2.887,-2.9624,-2.8131,-2.6812,-2.5819,-2.4935,-2.454,-2.454,-2.454,-2.454,-2.454,-2.4498,-2.4281,-2.3888,-2.425,-2.3689,-2.2536,-2.2621,-2.2225,-2.1376,-2.0911,-2.0135,-1.9247,-1.8811,-1.8146,-1.7247,-1.6945,-1.681,-1.6786,-1.6818,-1.681,-1.6881,-1.754,-1.7572,-1.7429,-1.8089,-1.8518,-1.878,-1.878,-1.8804,-1.8827,-1.8827,-1.8827,-1.8827,-1.8827,-1.8827,-1.8827,-1.8827,-1.8257,-1.7598,-1.6958,-1.6103,-1.5343,-1.4675,-1.4394,-1.4298,-1.4298,-1.4298,-1.4298,-1.4298,-1.428,-1.4262,-1.4262,-1.4032,-1.3857,-1.3839,-1.3598,-1.3332,-1.3073,-1.2813,-1.2542,-1.2258,-1.1793,-1.1516,-1.1492,-1.1244,-1.1111,-1.1111,-1.1111,-1.1111,-1.1111,-1.1186,-1.126,-1.149,-1.3404,-1.453,-1.5655,-1.6232,-1.6885,-1.6296,-1.6343,-1.6529,-1.6964,-1.6777,-1.6838,-1.7773,-1.8143,-1.8449,-1.9063,-1.9247,-1.975,-2.1107,-2.1544,-2.2722,-2.5498,-2.6089,-2.6928,-2.8886,-2.9099,-2.9313,-2.9754,-2.9468,-2.9319,-2.9226,-2.7577,-2.645,-2.6127,-2.5114,-2.4416,-2.4146,-2.4146,-2.4146,-2.4146,-2.3867,-2.3639,-2.3463,-2.336,-2.2706,-2.1689,-2.1689,-2.108,-1.9945,-1.9871,-1.9204,-1.8362,-1.8214,-1.7786,-1.7262,-1.7119,-1.6929,-1.673,-1.673,-1.673,-1.6778,-1.7048,-1.7334,-1.762,-1.789,-1.8367,-1.8788,-1.8573,-1.8661,-1.8827,-1.8827,-1.845,-1.8164,-1.8164,-1.7792,-1.752,-1.752,-1.7232,-1.6958,-1.6676,-1.6008,-1.5337,-1.5057,-1.458,-1.4298,-1.4298,-1.4298,-1.4298,-1.4298,-1.4298,-1.4298,-1.4298,-1.4208,-1.4141,-1.4141,-1.3628,-1.3236,-1.3133,-1.2868,-1.2596,-1.233,-1.2119,-1.1932,-1.1775,-1.1661,-1.1528,-1.1365,-1.1676,-1.176,-1.16,-1.1815,-1.1891,-1.1904,-1.3436,-1.4502,-1.6616,-1.7405,-1.8247,-1.7663,-1.7584,-1.7705,-1.7921,-1.7685,-1.7719,-1.8597,-1.8635,-1.8771,-1.9452,-1.9484,-1.9732,0.0,-2.1767,-2.3084,-2.5259,-2.6257,-2.7321,-2.8725,-2.9089,-2.934,-2.9754,-2.9641,-2.9351,-2.8795,-2.7274,-2.6303,-2.6129,-2.4965,-2.4198,-2.3888,-2.3877,-2.3815,-2.3681,-2.335,-2.3122,-2.2977,-2.2541,-2.18,-2.078,-2.0538,-1.9788,-1.8633,-1.8515,-1.805,-1.7461,-1.7461,-1.7326,-1.7119,-1.7119,-1.6961,-1.673,-1.673,-1.673,-1.6746,-1.6857,-1.7215,-1.766,-1.7858,-1.8263,-1.8645,-1.8494,-1.8629,-1.8827,-1.8827,-1.8257,-1.7692,-1.7692,-1.7138,-1.6588,-1.6588,-1.6393,-1.6204,-1.6204,-1.5629,-1.5057,-1.5057,-1.4675,-1.4298,-1.4298,-1.4298,-1.4298,-1.4298,-1.4298,-1.4298,-1.4298,-1.4298,-1.4298,-1.4298,-1.3731,-1.332,-1.3248,-1.3055,-1.2795,-1.2451,-1.2355,-1.2234,-1.2047,-1.1962,-1.1836,-1.1655,-1.2074,-1.2238,-1.2045,-1.2344,-1.2499,-1.2441,-1.3663,-1.4941,-1.6982,-1.7834,-1.8764,-1.8764,-1.8451,-1.8295,-1.9029,-1.8916,-1.8775,-1.9034,-1.9437,-1.9613,-1.9158,-1.966,-2.0499,-2.169,-2.1901,-2.2987,-2.6077,-2.6365,-2.6956,-2.8712,-2.944,-2.9779,-2.9792,-2.9277,-2.8771,-2.8493,-2.7158,-2.6129,-2.5786,-2.4597,-2.3888,-2.3877,-2.3877,-2.366,-2.3194,-2.3184,-2.2956,-2.2511,-2.2129,-2.1183,-1.9788,-1.905,-1.8171,-1.7262,-1.6897,-1.6746,-1.6746,-1.6746,-1.6746,-1.6738,-1.6738,-1.6738,-1.673,-1.673,-1.673,-1.6786,-1.7151,-1.7278,-1.7397,-1.8073,-1.8295,-1.8367,-1.8716,-1.8827,-1.8827,-1.8827,-1.8257,-1.7692,-1.7692,-1.7138,-1.6588,-1.6588,-1.6008,-1.5439,-1.5439,-1.4867,-1.4298,-1.4298,-1.4298,-1.4298,-1.4298,-1.4298,-1.4298,-1.4298,-1.4298,-1.4298,-1.4298,-1.4298,-1.4298,-1.4298,-1.4057,-1.3791,-1.3538,-1.3507,-1.3272,-1.2735,-1.2457,-1.2312,-1.2312,-1.2059,-1.192,-1.192,-1.2166,-1.2332,-1.2326,-1.2485,-1.2724,-1.2896,-1.4037,-1.5779,-1.8228,-1.8963,-1.9756,-1.9242,-1.9141,-1.9324,-1.9545,-1.9259,-1.8971,-1.9096,-1.9899,-2.0407,-1.9866,-2.0964,-2.2191,-2.3096,-2.378,-2.4912,-2.6822,-2.7351,-2.7889,-2.8775,-2.944,-2.9641,-2.9239,-2.8699,-2.8199,-2.7693,-2.6221,-2.5199,-2.5115,-2.4004,-2.3412,-2.3412,-2.3101,-2.2863,-2.2718,-2.2718,-2.2646,-2.2501,-2.174,-2.0751,-1.9457,-1.8574,-1.7704,-1.6905,-1.6786,-1.673,-1.673,-1.673,-1.673,-1.673,-1.673,-1.673,-1.673,-1.673,-1.673,-1.6754,-1.6865,-1.7072,-1.731,-1.7533,-1.7755,-1.7866,-1.7532,-1.7913,-1.8379,-1.7834,-1.718,-1.648,-1.6223,-1.5622,-1.5057,-1.5057,-1.4867,-1.4675,-1.4675,-1.4484,-1.4298,-1.4298,-1.4298,-1.4298,-1.4298,-1.4298,-1.4298,-1.4298,-1.4298,-1.4298,-1.4298,-1.4298,-1.4298,-1.4298,-1.422,-1.4063,-1.3803,-1.3622,-1.3441,-1.3266,-1.3181,-1.3055,-1.2874,-1.2789,-1.2572,-1.2198,-1.2787,-1.2959,-1.277,-1.3101,-1.3239,-1.3134,-1.4917,-1.6158,-1.9458,-1.9916,-2.052,-2.0438,-2.0339,-2.0275,-2.0525,-2.0191,-1.9846,-1.9846,-2.0468,-2.0962,-2.0828,-2.1904,-2.3077,-2.3688,-2.4706,-2.582,-2.6822,-2.762,-2.8386,-2.9164,-2.9578,-2.9566,-2.8988,-2.8114,-2.7336,-2.67,-2.5217,-2.4366,-2.4183,-2.3398,-2.2925,-2.2925,-2.2646,-2.2418,-2.2242,-2.2232,-2.2232,-2.2232,-2.1036,-2.0089,-1.9256,-1.8078,-1.7204,-1.673,-1.673,-1.673,0.0,-1.673,-1.673,-1.673,-1.673,-1.673,-1.673,-1.673,-1.673,-1.673,-1.673,-1.6881,-1.7096,-1.7231,-1.7329,-1.7303,-1.6745,-1.6934,-1.7318,-1.6904,-1.6204,-1.5602,-1.5324,-1.4791,-1.4268,-1.4171,-1.4226,-1.4298,-1.4298,-1.4298,-1.4298,-1.4298,-1.4298,-1.4298,-1.4298,-1.4298,-1.4298,-1.4298,-1.4298,-1.4298,-1.4298,-1.4298,-1.4298,-1.4298,-1.4298,-1.4232,-1.4069,-1.3815,-1.3622,-1.3519,-1.361,-1.3489,-1.3303,-1.3291,-1.317,-1.272,-1.3218,-1.3393,-1.322,-1.3642,-1.3721,-1.3628,-1.5564,-1.6461,0.0,-2.0586,-2.1039,-2.208,-2.1635,-2.1088,-2.1655,-2.1403,0.0,-2.1123,-2.1158,-2.1394,-2.1932,-2.2669,-2.3349,-2.3881,-2.4987,-2.5963,-2.6502,-2.7532,-2.8599,-2.9616,-2.9729,-2.949,-2.8875,-2.763,-2.6542,-2.5685,-2.4413,-2.3533,-2.3221,-2.2725,-2.2397,-2.2397,-2.2366,-2.217,-2.1807,-2.1807,-2.1807,-2.1721,-2.0079,-1.9283,-1.9177,-1.7448,-1.673,-1.673,-1.6706,-1.669,-1.669,-1.6667,-1.6659,-1.6659,-1.6683,-1.669,-1.6698,-1.6722,-1.673,-1.673,-1.673,-1.673,-1.6786,-1.7127,-1.7009,-1.6585,-1.6294,-1.5988,-1.5857,-1.607,-1.5613,-1.4989,-1.5034,-1.4678,-1.4238,-1.399,-1.4123,-1.4298,-1.4298,-1.4298,-1.4298,-1.4298,-1.4298,-1.4298,-1.4298,-1.4298,-1.4298,-1.4298,-1.4298,-1.4298,-1.4298,-1.4298,-1.4298,-1.4298,-1.4298,-1.4298,-1.4298,-1.4075,-1.3827,-1.3586,-1.3853,-1.3814,-1.3617,-1.3762,-1.3709,-1.343,-1.3574,-1.3737,-1.3737,-1.3997,-1.4088,-1.4173,-1.5824,-1.6656,-2.1888,0.0,-2.0483,-2.0774,-2.0659,-2.0625,0.0,0.0,0.0,0.0,0.0,-2.2703,-2.3227,-2.4254,-2.5199,-2.5759,-2.6809,-2.7557,-2.7695,-2.8687,-2.9327,-2.9151,-2.9139,-2.875,-2.7758,-2.7388,-2.6697,-2.5481,-2.4519,-2.3698,-2.3102,-2.1985,-2.1445,-2.1445,-2.1093,-2.1197,-2.1797,-2.1807,-2.1492,-2.0779,-1.9747,-1.8948,-1.8238,-1.7212,-1.673,-1.6722,-1.6444,-1.6333,-1.6309,-1.6039,-1.5928,-1.5952,-1.6222,-1.6333,-1.6365,-1.6635,-1.673,-1.673,-1.673,-1.673,-1.6746,-1.6833,-1.6073,-1.5191,-1.512,-1.5227,-1.5444,-1.5672,-1.5217,-1.4695,-1.5223,-1.4816,-1.428,-1.422,-1.425,-1.4298,-1.4298,-1.4298,-1.4298,-1.4298,-1.4298,-1.4298,-1.4298,-1.4298,-1.4298,-1.4298,-1.4298,-1.4298,-1.4298,-1.4298,-1.4298,-1.4298,-1.4298,-1.4394,-1.4592,-1.4339,-1.4279,-1.4407,-1.4502,-1.4465,-1.446,-1.4237,-1.3989,-1.3716,-1.3677,-1.3822,-1.3997,-1.4088,-1.4088,-1.4088,-1.5389,-1.6007,-2.2309,-2.1587,-2.0973,-2.1463,-2.1404,-2.1356,-2.1894,0.0,0.0,0.0,0.0,-2.3317,-2.4128,-2.4959,-2.5875,-2.6703,-2.7557,-2.8197,-2.8448,-2.9013,-2.9377,-2.934,-2.8863,-2.831,-2.772,-2.6611,-2.5504,-2.4555,-2.3213,-2.223,-2.1827,-2.1146,-2.0803,-2.0803,-2.0555,-2.0659,-2.1166,-2.1008,-2.0611,-1.9951,-1.8976,-1.8118,-1.7492,-1.6643,-1.6246,-1.6238,-1.6047,-1.6055,-1.6174,-1.5825,-1.5777,-1.592,-1.5952,-1.6063,-1.623,-1.642,-1.6595,-1.673,-1.673,-1.673,-1.673,-1.673,-1.5816,-1.4734,-1.4734,-1.4423,-1.421,-1.4556,-1.4315,-1.4145,-1.4571,-1.4487,-1.4268,-1.4147,-1.4208,-1.4298,-1.4298,-1.4298,-1.4298,-1.4298,-1.4298,-1.4298,-1.4298,-1.4298,-1.4298,-1.4298,-1.4298,-1.4298,-1.4298,-1.4298,-1.4298,-1.4298,-1.4394,-1.4496,-1.4688,-1.4576,-1.4558,-1.4879,-1.4855,-1.4746,-1.4649,-1.4456,-1.4171,-1.3972,-1.39,-1.3913,-1.4088,-1.4088,-1.4088,-1.4088,-1.5155,-1.5646,-2.2083,-2.1845,-2.1845,-2.2774,-2.2661,-2.246,-2.2952,0.0,0.0,0.0,0.0,-2.3615,-2.4732,-2.5297,-2.5963,-2.7092,-2.7745,-2.8335,-2.8963,-2.9063,-2.9176,-2.9503,-2.8687,-2.7936,-2.7601,-2.5625,-2.4024,-2.3235,-2.1555,-2.0563,-2.0431,-2.0358,-2.0327,-2.0327,-2.0255,-2.0143,-2.0001,-1.9855,-1.9545,-1.8956,-1.7881,-1.7192,-1.6741,-1.6057,-1.5674,-1.5674,-1.5626,-1.5769,-1.6023,-1.5666,-1.5697,-1.5944,-1.5753,-1.5864,-1.6142,-1.6246,-1.6444,-1.6651,-1.6651,-1.6601,-1.6566,-1.6566,-1.565,-1.4566,-1.4566,-1.375,-1.2874,-1.3375,-1.3513,-1.3586,-1.3888,-1.4129,-1.4244,-1.402,-1.4135,-1.4298,-1.4298,-1.4298,-1.4298,-1.4298,-1.4298,-1.4298,-1.4298,-1.4298,-1.4298,-1.4298,-1.4298,-1.4394,-1.4394,-1.4394,-1.4394,-1.4394,-1.4592,-1.4669,-1.4727,-1.4697,-1.474,-1.5038,-1.5039,-1.4884,-1.4694,-1.4628,-1.4449,-1.4162,-1.4195,-1.4222,-1.4222,-1.4175,-1.4155,-1.4148,-1.4888,-1.536,-2.1041,-2.1543,-2.2234,-2.2397,-2.2372,-2.246,-2.2952,-2.3078,0.0,0.0,-2.3527,-2.4192,-2.5285,-2.5536,-2.5963,-2.7092,-2.7745,-2.8473,-2.9515,-2.9666,-2.934,-2.8461,-2.821,-2.7329,-2.5359,-2.4792,-2.378,-2.2029,-2.1581,-2.1118,-2.0431,-2.0069,-1.9862,-1.9862,-1.9479,-1.9002,-1.837,-1.9027,-1.873,-1.7345,-1.718,-1.6649,-1.5904,-1.575,-1.5674,-1.5666,-1.538,-1.5292,-1.5316,-1.4951,-1.4832,-1.4935,-1.5467,-1.5713,-1.5833,-1.6428,-1.65,-1.6285,-1.6285,-1.6071,-1.5816,-1.5816,-1.4985,-1.3815,-1.3815,-1.3477,-1.3127,-1.3429,-1.3513,-1.3628,-1.4111,-1.4268,-1.4286,-1.425,-1.4268,-1.4298,-1.4298,-1.4298,-1.4298,-1.4298,-1.4298,-1.4298,-1.4298,-1.4298,-1.4298,-1.4298,-1.449,-1.4592,-1.4592,-1.4592,-1.4688,-1.4987,-1.479,-1.469,-1.4727,-1.4855,-1.4838,-1.4644,-1.4904,-1.4983,-1.497,-1.4923,-1.4756,-1.4456,-1.4703,-1.483,-1.483,-1.4576,-1.4456,-1.4449,-1.4622,-1.4556,-2.1863,-2.2117,-2.2385,-2.2636,-2.271,-2.2824,-2.3015,-2.3376,-2.3602,-2.3602,-2.4054,-2.4682,-2.5448,-2.6088,-2.6979,-2.8411,-2.8586,-2.8737,-2.9252,-2.8812,-2.8348,-2.8134,-2.7306,-2.6288,-2.5114,-2.3863,-2.259,-2.1303,-2.0644,-2.0096,-1.9696,-1.9499,-1.9385,-1.9385,-1.9178,-1.8519,-1.7413,-1.7792,-1.7422,-1.6366,-1.6137,-1.5682,-1.5118,-1.5118,-1.5118,-1.511,-1.4959,-1.5006,-1.5157,-1.4792,-1.476,-1.4951,-1.507,-1.5237,-1.5467,-1.5975,-1.6063,-1.5944,-1.6142,-1.6069,-1.5909,-1.5756,-1.5068,-1.4153,-1.3822,-1.3423,-1.3151,-1.3272,-1.3507,-1.3815,-1.4201,-1.4298,-1.4298,-1.4298,-1.4298,-1.4298,-1.4298,-1.4298,-1.4298,-1.4298,-1.4298,-1.4298,-1.4298,-1.4298,-1.4394,-1.449,-1.4592,-1.479,-1.4885,-1.4892,-1.4981,-1.5083,-1.507,-1.505,-1.4849,-1.5107,-1.5081,-1.4797,-1.4751,-1.4767,-1.473,-1.4569,-1.4429,-1.4289,-1.4422,-1.4489,-1.4489,-1.4355,-1.4196,-1.4111,-1.4111,-1.4017,-2.2186,-2.2338,-2.2325,-2.2627,-2.2795,-2.2975,-2.304,-2.359,-2.4029,-2.4167,-2.4619,-2.5172,-2.5699,-2.6502,-2.7507,-2.88,-2.875,-2.8586,-2.8712,-2.7896,-2.7394,-2.7682,-2.6327,-2.5179,-2.4642,-2.2805,-2.134,-2.0519,-1.9596,-1.9075,-1.9075,-1.9075,-1.9075,-1.9075,-1.8931,-1.824,-1.6932,-1.6724,-1.6245,-1.5488,-1.5211,-1.4911,-1.4569,-1.4569,-1.4569,-1.4569,-1.4569,-1.48,-1.5038,-1.4752,-1.48,-1.5038,-1.4847,-1.4982,-1.5324,-1.5499,-1.561,-1.5705,-1.5896,-1.5992,-1.5927,-1.5457,-1.492,-1.4314,-1.3646,-1.325,-1.3127,-1.3127,-1.3501,-1.3954,-1.4153,-1.425,-1.4298,-1.4298,-1.4298,-1.4298,-1.4298,-1.4298,-1.4298,-1.4298,-1.4298,-1.4298,-1.4298,-1.4394,-1.449,-1.4688,-1.4783,-1.4975,-1.5172,-1.5172,-1.5178,-1.5267,-1.5452,-1.5396,-1.5042,-1.5041,-1.5097,-1.4877,-1.4562,-1.4435,-1.4522,-1.4216,-1.4188,-1.4188,-1.4255,-1.4289,-1.4203,-1.4137,-1.4012,-1.3749,-1.3678,-1.3592,-2.0759,-2.1456,-2.2096,-2.1645,-2.1914,-2.2498,-2.2965,-2.359,-2.4142,-2.4657,-2.5172,-2.5724,-2.6289,-2.6533,-2.6634,-2.6747,-2.7092,-2.7582,-2.8097,-2.7657,-2.7105,-2.6697,-2.5443,-2.3986,-2.2286,-2.1464,-2.0497,-1.9348,-1.9152,-1.9075,-1.9075,-1.9075,-1.9075,-1.9075,-1.8452,-1.7687,-1.6941,-1.6245,-1.548,-1.4713,-1.4665,-1.4593,-1.4569,-1.4569,-1.4569,-1.4569,-1.4569,-1.4657,-1.4601,-1.4577,-1.4657,-1.4712,-1.5022,-1.5348,-1.5602,-1.5324,-1.5411,-1.5634,-1.5356,-1.5289,-1.516,-1.4536,-1.409,-1.3646,-1.296,-1.2904,-1.3127,-1.3127,-1.3501,-1.3912,-1.393,-1.4117,-1.4298,-1.4298,-1.4298,-1.4298,-1.4298,-1.4298,-1.4298,-1.4298,-1.4298,-1.4298,-1.4298,-1.4496,-1.4694,-1.4688,-1.5166,-1.5445,-1.5452,-1.5445,-1.554,-1.5737,-1.5635,-1.5317,-1.5044,-1.4559,-1.4394,-1.4549,-1.4355,-1.4342,-1.4516,-1.4322,-1.4315,-1.4489,-1.4763,-1.4807,-1.4532,-1.4353,-1.4047,-1.3773,-1.3512,-1.3319,-2.1611,-2.1897,-2.2342,-2.2829,-2.2898,-2.291,-2.3026,-2.4138,-2.5096,-2.4916,-2.555,-2.6228,-2.6488,-2.6741,-2.6967,-2.6967,-2.6854,-2.6841,-2.7055,-2.6314,-2.5674,-2.5473,-2.4333,-2.3156,-2.2001,-2.0984,-2.004,-1.9152,-1.9075,-1.9075,-1.9075,-1.8654,-1.8452,-1.8452,-1.7687,-1.6812,-1.5875,-1.5844,-1.5292,-1.4315,-1.4538,-1.4569,-1.4569,-1.4569,-1.4522,-1.4323,-1.4546,-1.4443,-1.4331,-1.4474,-1.4569,-1.4657,-1.4792,-1.4919,-1.5022,-1.4895,-1.4927,-1.5046,-1.5149,-1.5339,-1.5435,-1.5005,-1.4564,-1.4237,-1.3561,-1.325,-1.3127,-1.3127,-1.3501,-1.3906,-1.3906,-1.4099,-1.4298,-1.4298,-1.4298,-1.4298,-1.4298,-1.4298,-1.4298,-1.4298,-1.4394,-1.4592,-1.4592,-1.479,-1.4981,-1.5166,-1.535,-1.554,-1.5635,-1.5737,-1.5737,-1.5825,-1.5571,-1.5451,-1.5504,-1.498,-1.4691,-1.4773,-1.4193,-1.4064,-1.4509,-1.4084,-1.39,-1.3985,-1.409,-1.4063,-1.3883,-1.3774,-1.355,-1.3379,-1.3272,-1.3151,-2.217,-2.2069,-2.2165,-2.3119,0.0,-2.3171,-2.3115,-2.4492,-2.566,-2.5195,-2.5859,-2.6358,-2.5845,-2.6138,-2.6452,-2.6276,-2.6076,-2.5937,-2.5937,-2.5146,-2.4493,-2.4288,-2.3143,-2.2086,-2.1194,-2.0182,-1.9307,-1.8726,-1.8651,-1.8651,-1.8651,-1.8172,-1.7843,-1.7635,-1.69,-1.6022,-1.5076,-1.5187,-1.4899,-1.4117,-1.4474,-1.4569,-1.4569,-1.4569,-1.4435,-1.4291,-1.4538,-1.4506,-1.4299,-1.4538,-1.4569,-1.4569,-1.4569,-1.4569,-1.4569,-1.4569,-1.4569,-1.4601,-1.4927,-1.53,-1.5636,-1.5166,-1.505,-1.4817,-1.3984,-1.3531,-1.3256,-1.2988,-1.3375,-1.3779,-1.3779,-1.4039,-1.4298,-1.4298,-1.4298,-1.4298,-1.4394,-1.4394,-1.449,-1.4496,-1.4688,-1.479,-1.479,-1.5077,-1.5267,-1.5445,-1.554,-1.5635,-1.5737,-1.5832,-1.5832,-1.5832,-1.5651,-1.5578,-1.5685,-1.5232,-1.4962,-1.4969,-1.4158,-1.3873,-1.4241,-1.3885,-1.3658,-1.3568,-1.3652,-1.3476,-1.3307,-1.3307,-1.3222,-1.2966,-1.2966,-1.2985,-2.2049,-2.186,-2.1518,-2.2065,-2.2688,-2.3191,-2.3149,-2.4492,-2.5741,-2.561,-2.6105,-2.6005,-2.4305,-2.4456,-2.4644,-2.4092,-2.4456,-2.4808,-2.4808,-2.4343,-2.3716,-2.3047,-2.1881,-2.0665,-1.9471,-1.8807,-1.8195,-1.7698,-1.7668,-1.7668,-1.7668,-1.7678,-1.7419,-1.6782,-1.6074,-1.5366,-1.4706,-1.4266,-1.4101,-1.4109,-1.4458,-1.4561,-1.4561,-1.4561,-1.4561,-1.4553,-1.4553,-1.4561,-1.4561,-1.4561,-1.4569,-1.4569,-1.4569,-1.4649,-1.4649,-1.4577,-1.4577,-1.4649,-1.4577,-1.5102,-1.5597,-1.4902,-1.5195,-1.5484,-1.4153,-1.3737,-1.3561,-1.2881,-1.3097,-1.3513,-1.3519,-1.3906,-1.4292,-1.4298,-1.4298,-1.4394,-1.4688,-1.4688,-1.479,-1.5083,-1.5083,-1.5083,-1.5083,-1.5363,-1.554,-1.554,-1.5635,-1.5832,-1.5832,-1.5832,-1.5832,-1.5832,-1.5832,-1.5712,-1.5424,-1.5114,-1.4989,-1.4983,-1.4059,-1.3636,-1.3805,-1.363,-1.3498,-1.3404,-1.3398,-1.3307,-1.3137,-1.3137,-1.2966,-1.2705,-1.2705,-1.2705,-2.1997,-2.177,-2.1789,-2.2804,-2.3138,-2.3184,-2.3201,-2.4554,-2.5852,-2.5735,-2.5563,-2.5113,-2.4142,-2.4456,-2.4644,-2.4092,-2.4142,-2.4243,-2.4243,-2.3753,-2.2996,-2.2019,-2.1108,-2.0143,-1.9028,-1.8268,-1.7874,-1.774,-1.7668,-1.7668,-1.7668,-1.6835,-1.6201,-1.601,-1.4828,-1.3991,-1.3558,-1.3701,-1.3624,-1.3394,-1.3735,-1.4029,-1.4268,-1.4268,-1.4005,-1.3568,-1.3799,-1.3894,-1.3934,-1.4434,-1.4569,-1.4593,-1.4919,-1.5022,-1.5054,-1.5284,-1.5221,-1.5062,-1.5292,-1.5356,-1.5411,-1.5654,-1.5545,-1.5346,-1.517,-1.4482,-1.3691,-1.3713,-1.3461,-1.3326,-1.3884,-1.4192,-1.4358,-1.4549,-1.4688,-1.4885,-1.4981,-1.4987,-1.4981,-1.5083,-1.5267,-1.5356,-1.5356,-1.5547,-1.573,-1.573,-1.573,-1.5832,-1.5832,-1.5832,-1.5737,-1.5635,-1.5737,-1.5697,-1.5516,-1.551,-1.5384,-1.4819,-1.4532,-1.4308,-1.4093,-1.354,-1.3218,-1.3228,-1.3222,-1.3052,-1.279,-1.279,-1.279,-1.2705,-1.2705,-1.2813,-2.1894,-2.1589,-2.1524,-2.2405,-2.2753,-2.2967,-2.3472,-2.4385,-2.5141,-2.5132,-2.4629,-2.4055,-2.3714,-2.3753,-2.3791,-2.3678,-2.3653,-2.3577,-2.3351,-2.2832,-2.1968,-2.0831,-2.0116,-1.926,-1.8126,-1.7683,-1.7388,-1.7212,-1.7191,-1.7191,-1.7191,-1.613,-1.5452,-1.5203,-1.4124,-1.3332,-1.2885,-1.3219,-1.329,-1.3092,-1.3425,-1.3624,-1.3711,-1.3839,-1.368,-1.3298,-1.3497,-1.3584,-1.3624,-1.4196,-1.4426,-1.4466,-1.4824,-1.5062,-1.5205,-1.5411,-1.5443,-1.5388,-1.5459,-1.5435,-1.5427,-1.5705,-1.5748,-1.5599,-1.5553,-1.5133,-1.4685,-1.419,-1.3976,-1.3969,-1.405,-1.4302,-1.4633,-1.4816,-1.4987,-1.5083,-1.5267,-1.5267,-1.5267,-1.5363,-1.5547,-1.5635,-1.5635,-1.5737,-1.5832,-1.5832,-1.5832,-1.5832,-1.5832,-1.5832,-1.5737,-1.5635,-1.5642,-1.5635,-1.554,-1.5452,-1.5139,-1.475,-1.4358,-1.4101,-1.3918,-1.3392,-1.3083,-1.2966,-1.2966,-1.2875,-1.2705,-1.2705,-1.2705,-1.2705,-1.2705,-1.2795,-2.1797,-2.1472,-2.1107,-2.1479,-2.1927,-2.2559,-2.3755,-2.3952,-2.395,-2.406,-2.3505,-2.3002,-2.3002,-2.2648,-2.246,-2.2852,-2.3025,-2.2802,-2.2251,-2.1673,-2.0866,-1.9597,-1.9007,-1.8224,-1.7085,-1.6925,-1.6808,-1.6415,-1.6384,-1.6374,-1.6316,-1.5652,-1.5059,-1.441,-1.3752,-1.3155,-1.2629,-1.2885,-1.3044,-1.3044,-1.3346,-1.333,-1.306,-1.3386,-1.3521,-1.3489,-1.3521,-1.3537,-1.3568,-1.3918,-1.4077,-1.4148,-1.4506,-1.4879,-1.5303,-1.5343,-1.5543,-1.5835,-1.557,-1.5559,-1.571,-1.5514,-1.5774,-1.6126,-1.5473,-1.5789,-1.6139,-1.4636,-1.4654,-1.4867,-1.4141,-1.4449,-1.4922,-1.5063,-1.5159,-1.5267,-1.5452,-1.554,-1.554,-1.573,-1.5832,-1.5832,-1.5832,-1.5832,-1.5832,-1.5832,-1.5832,-1.5832,-1.5832,-1.5832,-1.5825,-1.5737,-1.5635,-1.5445,-1.5452,-1.4975,-1.476,-1.4663,-1.3952,-1.3519,-1.3504,-1.3197,-1.2964,-1.2711,-1.2705,-1.2705,-1.2705,-1.2705,-1.2705,-1.2705,-1.2705,-1.2705,-2.2352,-2.2083,-2.1947,-2.2021,-2.1959,-2.2091,-2.3077,-2.3286,-2.3457,-2.3982,-2.3244,-2.2485,-2.2485,-2.2397,-2.2209,-2.1895,-2.2209,-2.211,-2.1125,-2.0867,-2.0203,-1.8619,-1.8331,-1.7806,-1.6618,-1.6529,-1.6477,-1.6384,-1.6384,-1.6192,-1.5652,-1.5001,-1.441,-1.3752,-1.3094,-1.2744,-1.2621,-1.2701,-1.2741,-1.2741,-1.2813,-1.2805,-1.2749,-1.3036,-1.3044,-1.2861,-1.3076,-1.3195,-1.3219,-1.3561,-1.3862,-1.4148,-1.4506,-1.5161,-1.6127,-1.6431,-1.6813,-1.7139,-1.7358,-1.6863,-1.6242,-1.6757,-1.6863,-1.6602,-1.6111,-1.6356,-1.6624,-1.5621,-1.5082,-1.486,-1.5112,-1.4764,-1.4569,-1.5186,-1.5477,-1.5642,-1.5737,-1.573,-1.5737,-1.5825,-1.5832,-1.5832,-1.5832,-1.5832,-1.5832,-1.5832,-1.5832,-1.5832,-1.5832,-1.5832,-1.573,-1.554,-1.554,-1.5452,-1.5172,-1.5083,-1.4867,-1.4397,-1.4235,-1.3982,-1.3525,-1.3019,-1.2765,-1.2705,-1.2705,-1.2705,-1.2705,-1.2705,-1.2705,-1.2705,-1.2705,-1.2705,-2.2411,-2.2418,-2.2622,-2.285,-2.2483,-2.2337,-2.3069,-2.3198,-2.3122,-2.3198,-2.2528,-2.1995,-2.2259,-2.1882,-2.1518,-2.1493,-2.148,-2.1182,-2.035,-1.9757,-1.8988,-1.782,-1.7435,-1.7026,-1.6462,-1.6384,-1.6259,-1.5961,-1.5894,-1.5652,-1.5001,-1.435,-1.3872,-1.3502,-1.292,-1.2621,-1.2621,-1.2621,-1.2621,-1.2621,-1.2621,-1.2621,-1.2629,-1.275,-1.2742,-1.2637,-1.2758,-1.2838,-1.2869,-1.3211,-1.3685,-1.4174,-1.453,-1.5314,-1.6371,-1.6758,-1.7157,-1.7492,-1.7697,-1.7344,-1.6936,-1.7107,-1.6924,-1.6602,-1.6752,-1.6998,-1.7033,-1.6124,-1.5786,-1.5492,-1.5014,-1.4575,-1.4421,-1.4903,-1.5311,-1.5658,-1.5798,-1.5832,-1.5832,-1.5832,-1.5832,-1.5832,-1.5832,-1.5832,-1.5832,-1.5832,-1.5832,-1.5832,-1.5832,-1.5832,-1.573,-1.5635,-1.554,-1.5356,-1.5083,-1.4987,-1.4671,-1.4111,-1.3982,-1.375,-1.3519,-1.3121,-1.2964,-1.3091,-1.297,-1.2964,-1.3091,-1.2964,-1.2904,-1.2904,-1.2904,-1.2831,-2.2483,-2.2648,-2.314,-2.3546,-2.3147,-2.2821,-2.3335,-2.3271,-2.3012,-2.2606,-2.1945,-2.1594,-2.1958,-2.128,-2.0832,-2.1142,-2.0797,-2.0213,-1.9598,-1.8612,-1.7728,-1.7145,-1.6694,-1.6384,-1.6384,-1.6384,-1.6134,-1.5468,-1.541,-1.5118,-1.435,-1.3812,-1.345,-1.3329,-1.2793,-1.2557,-1.2621,-1.2557,-1.2533,-1.2533,-1.2533,-1.2504,-1.2621,-1.2621,-1.2621,-1.2621,-1.2621,-1.2621,-1.2645,-1.2877,-1.3461,-1.4148,-1.4496,-1.5286,-1.6358,-1.6745,-1.7242,-1.7614,-1.77,-1.7744,-1.7657,-1.7275,-1.6927,-1.6665,-1.7234,-1.7384,-1.7195,-1.6445,-1.6296,-1.6131,-1.4741,-1.4347,-1.4456,-1.4509,-1.489,-1.5337,-1.5678,-1.5792,-1.5832,-1.5832,-1.5832,-1.5832,-1.5832,-1.5832,-1.5832,-1.5832,-1.5832,-1.5832,-1.5832,-1.5832,-1.5832,-1.5832,-1.5635,-1.5452,-1.5178,-1.4885,-1.4595,-1.4178,-1.3823,-1.3677,-1.3677,-1.329,-1.3248,-1.3507,-1.3302,-1.3278,-1.3447,-1.323,-1.3127,-1.3127,-1.3073,-1.2928,-2.3063,-2.3102,-2.3311,-2.3735,-2.3393,-2.3038,-2.35,-2.345,-2.3318,-2.3242,-2.2337,-2.1368,-2.0966,-2.0819,-2.0526,-2.01,-1.9956,-1.9519,-1.8495,-1.7745,-1.7121,-1.6602,-1.6431,-1.6384,-1.6384,-1.6384,-1.6134,-1.5468,-1.541,-1.4874,-1.3692,-1.3571,-1.3268,-1.2744,-1.231,-1.2242,-1.2621,-1.225,-1.2091,-1.2091,-1.2091,-1.2258,-1.2621,-1.2621,-1.2621,-1.2621,-1.2621,-1.2621,-1.2629,-1.2677,-1.3089,-1.3686,-1.4131,-1.5129,-1.6325,-1.6784,-1.7608,-1.8552,-1.8561,-1.8554,-1.8497,-1.8064,-1.793,-1.7717,-1.7072,-1.7158,-1.7271,-1.6782,-1.6124,-1.556,-1.5311,-1.4692,-1.4208,-1.4456,-1.4576,-1.4783,-1.5337,-1.5651,-1.5832,-1.5832,-1.5832,-1.5832,-1.5832,-1.5832,-1.5832,-1.5832,-1.5832,-1.5832,-1.5832,-1.5832,-1.5832,-1.5832,-1.5635,-1.5445,-1.5452,-1.5172,-1.5064,-1.493,-1.4478,-1.4235,-1.4235,-1.3477,-1.3248,-1.3507,-1.3477,-1.3369,-1.3175,-1.3139,-1.3127,-1.3115,-1.2874,-1.2741,-2.3132,-2.3459,-2.3728,-2.3943,-2.3755,-2.3567,-2.3708,-2.3641,-2.342,-2.3056,-2.2217,-2.1516,-2.1222,-2.092,-2.0476,-1.9899,-1.9516,-1.9013,-1.8216,-1.7335,-1.6637,-1.6441,-1.6384,-1.6384,-1.6384,-1.6077,-1.5594,-1.4942,-1.4366,-1.3655,-1.272,-1.2463,-1.224,-1.2022,-1.1805,-1.1797,-1.1956,-1.1797,-1.1725,-1.1725,-1.1725,-1.1805,-1.1964,-1.217,-1.2369,-1.2621,-1.2621,-1.2741,-1.2916,-1.3097,-1.3553,-1.4208,-1.459,-1.5393,-1.6351,-1.6738,-1.7533,-1.8385,-1.8385,-1.8634,-1.8946,-1.8309,-1.793,-1.7735,-1.7808,-1.763,-1.7291,-1.6847,-1.6453,-1.5884,-1.4908,-1.4419,-1.4122,-1.4249,-1.4402,-1.4589,-1.485,-1.5137,-1.5391,-1.5558,-1.5585,-1.5638,-1.5798,-1.5832,-1.5832,-1.5832,-1.5832,-1.5832,-1.5832,-1.5832,-1.5832,-1.5832,-1.5635,-1.5452,-1.5267,-1.5077,-1.479,-1.4688,-1.4105,-1.4007,-1.4306,-1.3574,-1.3248,-1.3507,-1.3369,-1.3314,-1.3344,-1.3194,-1.3127,-1.3121,-1.3,-1.2856,-2.3106,-2.3655,-2.4112,-2.4112,-2.4008,-2.3949,-2.3949,-2.3819,-2.3513,-2.3045,-2.2382,-2.1868,-2.1617,-2.0861,-2.0101,-1.9666,-1.8951,-1.835,-1.792,-1.7119,-1.6508,-1.6394,-1.6384,-1.6275,-1.6028,-1.5442,-1.4792,-1.4041,-1.3301,-1.2571,-1.1884,-1.1638,-1.1527,-1.1622,-1.1455,-1.1495,-1.1757,-1.167,-1.1622,-1.1622,-1.1535,-1.1551,-1.1624,-1.1765,-1.2142,-1.2546,-1.2589,-1.2773,-1.3076,-1.332,-1.3849,-1.4487,-1.4921,-1.5411,-1.6056,-1.645,-1.7046,-1.7678,-1.7779,-1.8265,-1.8742,-1.8155,-1.7707,-1.755,-1.8176,-1.7858,-1.7234,-1.6951,-1.6627,-1.6049,-1.4741,-1.425,-1.4088,-1.4088,-1.4255,-1.4449,-1.4603,-1.481,-1.503,-1.5244,-1.5344,-1.5464,-1.5678,-1.5778,-1.5832,-1.5832,-1.5832,-1.5832,-1.5832,-1.5832,-1.5737,-1.573,-1.5635,-1.5356,-1.5083,-1.4981,-1.4783,-1.4586,-1.4142,-1.397,-1.4368,-1.3659,-1.3314,-1.3513,-1.332,-1.329,-1.3417,-1.3218,-1.3127,-1.3121,-1.3049,-1.2946,-2.321,-2.3655,-2.4112,-2.4112,-2.4112,-2.4112,-2.4112,-2.3995,-2.3878,-2.3852,-2.3154,-2.2363,-2.1805,-2.0266,-1.9076,-1.9052,-1.8061,-1.729,-1.7257,-1.7111,-1.685,-1.6425,-1.6384,-1.6028,-1.5068,-1.4533,-1.3793,-1.27,-1.2581,-1.2231,-1.1567,-1.1495,-1.1646,-1.198,-1.136,-1.1503,-1.2557,-1.2162,-1.1988,-1.1988,-1.1646,-1.1616,-1.1857,-1.1624,-1.1824,-1.2413,-1.253,-1.2752,-1.3014,-1.3014,-1.3449,-1.4047,-1.4462,-1.4881,-1.5212,-1.5606,-1.6028,-1.6468,-1.6844,-1.7238,-1.7578,-1.7541,-1.7541,-1.7487,-1.7559,-1.7237,-1.6936,-1.7294,-1.6444,-1.5477,-1.5394,-1.4741,-1.4088,-1.4088,-1.4095,-1.4262,-1.4823,-1.495,-1.497,-1.4983,-1.5211,-1.5398,-1.5418,-1.5645,-1.5832,-1.5832,-1.5832,-1.5832,-1.5832,-1.5832,-1.573,-1.554,-1.554,-1.5356,-1.5083,-1.5356,-1.5445,-1.5445,-1.4971,-1.4631,-1.4663,-1.3921,-1.3501,-1.3513,-1.3501,-1.3381,-1.3145,-1.3133,-1.3127,-1.3115,-1.285,-1.2862,-2.257,-2.3093,-2.3629,-2.4021,-2.4112,-2.4112,-2.4112,-2.4067,-2.4008,-2.3891,-2.3005,-2.2018,-2.1331,-2.0563,-1.9812,-1.9095,-1.8324,-1.7619,-1.7245,-1.6878,-1.656,-1.6394,-1.6115,-1.569,-1.4952,-1.4157,-1.3304,-1.2538,-1.1885,-1.1532,-1.1479,-1.1289,-1.1233,-1.136,-1.113,-1.1177,-1.1559,-1.1638,-1.1678,-1.1678,-1.1777,-1.1718,-1.1576,-1.2206,-1.2413,-1.2459,-1.2948,-1.3289,-1.3468,-1.4153,-1.4371,-1.4365,-1.5061,-1.5196,-1.5148,-1.5542,-1.5955,-1.6376,-1.6771,-1.7165,-1.7449,-1.7202,-1.7284,-1.7495,-1.7495,-1.756,-1.7592,-1.7424,-1.683,-1.6124,-1.556,-1.4741,-1.4088,-1.4088,-1.4088,-1.4148,-1.4355,-1.4402,-1.4516,-1.489,-1.505,-1.5237,-1.5611,-1.5758,-1.5832,-1.5832,-1.5832,-1.5832,-1.5832,-1.5832,-1.5737,-1.573,-1.554,-1.5445,-1.5356,-1.5267,-1.5267,-1.5267,-1.4897,-1.482,-1.4918,-1.421,-1.3872,-1.4044,-1.3695,-1.3387,-1.3127,-1.3127,-1.3031,-1.2856,-1.2934,-1.3025,-2.2258,-2.2779,-2.3354,-2.3968,-2.4112,-2.4112,-2.4112,-2.3923,-2.3734,-2.3628,-2.2765,-2.1689,-2.0843,-2.0411,-1.9724,-1.8592,-1.7891,-1.7377,-1.6998,-1.6717,-1.655,-1.6394,-1.5936,-1.5275,-1.446,-1.345,-1.252,-1.1851,-1.1206,-1.0915,-1.1138,-1.0939,-1.0875,-1.0995,-1.1106,-1.1161,-1.1161,-1.1616,-1.1777,-1.1664,-1.2132,-1.21,-1.1699,-1.2363,-1.2573,-1.2581,-1.3093,-1.3485,-1.3797,-1.4626,-1.4818,-1.4568,-1.5205,-1.5249,-1.4937,-1.5194,-1.556,-1.5945,-1.6211,-1.6652,-1.7055,-1.6798,-1.6972,-1.7293,-1.7293,-1.7688,-1.8024,-1.7737,-1.7384,-1.6944,-1.6041,-1.4985,-1.4088,-1.4088,-1.4088,-1.4088,-1.4088,-1.4162,-1.4349,-1.4736,-1.4897,-1.5117,-1.5605,-1.5605,-1.5605,-1.5798,-1.5745,-1.5718,-1.5818,-1.5832,-1.5737,-1.573,-1.554,-1.5445,-1.5356,-1.5267,-1.5267,-1.5267,-1.5081,-1.5061,-1.5261,-1.4627,-1.4427,-1.4609,-1.4248,-1.3927,-1.365,-1.3385,-1.3157,-1.2982,-1.3169,-1.3254,0.0,0.0,0.0,-2.3942,-2.4112,-2.4112,-2.4054,-2.3603,-2.3075,-2.3088,-2.2421,-2.1568,-2.0452,-1.9678,-1.8751,-1.7422,-1.674,-1.6384,-1.6384,-1.6757,-1.6801,-1.6425,-1.5758,-1.4821,-1.3496,-1.2431,-1.1442,-1.0577,-1.0553,-1.0553,-1.0553,-1.0545,-1.0637,-1.0987,-1.1304,-1.1479,-1.1487,-1.2184,-1.2307,-1.2025,-1.2685,-1.2746,-1.2316,-1.207,-1.2279,-1.2848,-1.293,-1.3366,-1.4028,-1.4488,-1.4567,-1.457,-1.4964,-1.4873,-1.4533,-1.4533,-1.4772,-1.5102,-1.5129,-1.5661,-1.6321,-1.6331,-1.6597,-1.6908,-1.6908,-1.7468,-1.8109,-1.8119,-1.8053,-1.7738,-1.6854,-1.5394,-1.4173,-1.4088,-1.4088,-1.4088,-1.4095,-1.4322,-1.4522,-1.4529,-1.4776,-1.507,-1.5357,-1.5177,-1.5177,-1.5745,-1.5591,-1.5511,-1.5792,-1.5832,-1.573,-1.554,-1.554,-1.5356,-1.5178,-1.5356,-1.554,-1.554,-1.554,-1.554,-1.554,-1.5267,-1.5083,-1.5083,-1.5083,-1.4943,-1.475,-1.3927,-1.3525,-1.3513,-1.3519,-1.3525,-2.1694,0.0,0.0,0.0,0.0,0.0,-2.3471,-2.322,-2.2967,-2.247,-2.1803,-2.1001,-1.9922,-1.9168,-1.8322,-1.7116,-1.6694,-1.6534,-1.6431,-1.6487,-1.6335,-1.573,-1.5194,-1.4449,-1.3256,-1.2552,-1.191,-1.1272,-1.1201,-1.1201,-1.1201,-1.0979,-1.0899,-1.0995,-1.109,-1.1359,-1.1888,-1.2003,-1.2249,-1.2685,-1.3093,-1.3055,-1.2689,-1.3811,-1.4044,-1.3614,-1.4297,-1.4333,-1.4005,-1.4987,-1.5223,-1.4974,-1.5377,-1.5285,-1.4937,-1.4937,-1.5001,-1.5184,-1.578,-1.6129,-1.6367,-1.6652,-1.6817,-1.6908,-1.6908,-1.7266,-1.7734,-1.8036,-1.7867,-1.7267,-1.607,-1.5394,-1.4908,-1.425,-1.4088,-1.4142,-1.4355,-1.4462,-1.4583,-1.4803,-1.5077,-1.5364,-1.5658,-1.5645,-1.5645,-1.5805,-1.5758,-1.5738,-1.5818,-1.5832,-1.5737,-1.5737,-1.5737,-1.5737,-1.5642,-1.5642,-1.5737,-1.5737,-1.5737,-1.5737,-1.5737,-1.5547,-1.5356,-1.5356,-1.5172,-1.5045,-1.4962,-1.4403,-1.3982,-1.3798,-1.3805,-1.3797,-2.1864,-2.2531,-2.3276,-2.3524,0.0,0.0,-2.293,-2.2392,-2.1825,-2.1247,-2.0554,-1.9834,-1.9011,-1.8522,-1.7986,-1.7038,-1.6797,-1.6684,-1.6534,-1.6239,-1.5884,-1.5468,-1.4657,-1.3865,-1.307,-1.2512,-1.193,-1.136,-1.1416,-1.1431,-1.1289,-1.0963,-1.0897,-1.1156,-1.1011,-1.126,-1.1885,-1.2003,-1.2269,-1.2659,-1.3492,-1.3671,-1.335,-1.4665,-1.4953,-1.4514,-1.4811,-1.4668,-1.4232,-1.513,-1.513,-1.4662,-1.5404,-1.5349,-1.4873,-1.5038,-1.5203,-1.5368,-1.5515,-1.601,-1.6541,-1.6431,-1.6633,-1.6908,-1.6908,-1.7183,-1.7587,-1.8009,-1.7902,-1.7485,-1.6724,-1.6206,-1.5718,-1.4824,-1.4901,-1.5034,-1.4473,-1.4688,-1.5067,-1.5154,-1.5184,-1.5344,-1.5758,-1.5625,-1.5504,-1.5631,-1.5545,-1.5471,-1.5471,-1.5571,-1.5651,-1.5651,-1.5758,-1.5832,-1.5832,-1.5832,-1.5832,-1.5832,-1.5832,-1.5832,-1.5832,-1.5737,-1.5635,-1.5635,-1.5458,-1.5363,-1.5267,-1.4817,-1.4472,-1.4223,-1.419,-1.4163,-2.2428,-2.2763,-2.3306,-2.3774,-2.3433,0.0,-2.238,-2.1356,-2.032,-1.9872,-1.9253,-1.8709,-1.825,-1.8119,-1.7875,-1.7305,-1.7076,-1.6899,-1.657,-1.6036,-1.5565,-1.5352,-1.4282,-1.3434,-1.304,-1.248,-1.1863,-1.1161,-1.1368,-1.1384,-1.112,-1.0789,-1.0821,-1.135,-1.1096,-1.125,-1.1833,-1.2105,-1.2305,-1.2411,-1.3881,-1.4347,-1.4107,-1.5024,-1.5411,-1.5356,-1.4956,-1.4739,-1.4634,-1.4946,-1.4638,-1.4066,-1.5247,-1.5284,-1.468,-1.4983,-1.5349,-1.5588,-1.4882,-1.5606,-1.6734,-1.6046,-1.6312,-1.6908,-1.6908,-1.7156,-1.7523,-1.799,-1.8139,-1.8158,-1.7997,-1.7432,-1.6617,-1.5718,-1.6131,-1.6296,-1.479,-1.5227,-1.5836,-1.5679,-1.5345,-1.5177,-1.5691,-1.5378,-1.5137,-1.5364,-1.5204,-1.505,-1.5017,-1.5237,-1.5404,-1.5438,-1.5645,-1.5792,-1.5825,-1.5832,-1.5832,-1.5832,-1.5832,-1.5832,-1.5832,-1.5832,-1.5832,-1.5832,-1.5832,-1.573,-1.554,-1.5267,-1.4987,-1.479,-1.479,-1.4592,-2.2546,-2.2755,-2.3027,-2.264,-2.2404,0.0,-2.1498,-2.1163,-2.0762,-2.0123,-1.992,-1.965,-1.9233,-1.8829,-1.8523,-1.8365,-1.7712,-1.6987,-1.6285,-1.6104,-1.57,-1.4765,-1.4469,-1.3965,-1.3055,-1.3107,-1.2796,-1.1911,-1.1582,-1.1513,-1.1686,-1.1339,-1.1209,-1.1336,-1.126,-1.1558,-1.2193,-1.1944,-1.225,-1.3096,-1.3811,-1.4228,-1.4533,-1.578,-1.6151,-1.581,-1.6095,-1.5628,-1.462,-1.5014,-1.485,-1.4442,-1.535,-1.5607,-1.5432,-1.5194,-1.5349,-1.567,-1.5515,-1.5881,-1.6459,-1.6615,-1.6771,-1.6908,-1.6908,-1.6963,-1.7174,-1.7917,-1.8534,-1.8895,-1.8158,-1.7836,-1.7513,-1.6617,-1.6617,-1.6688,-1.6553,-1.6529,-1.6674,-1.7098,-1.6159,-1.5351,-1.5464,-1.5578,-1.5605,-1.5424,-1.5545,-1.5578,-1.5344,-1.5357,-1.5484,-1.5718,-1.5585,-1.5578,-1.5805,-1.5832,-1.5832,-1.5832,-1.5832,-1.5832,-1.5832,-1.5832,-1.5832,-1.5832,-1.5832,-1.5737,-1.573,-1.5547,-1.5261,-1.4987,-1.4987,-1.4987,-2.2588,-2.2693,-2.2965,-2.232,-2.1848,0.0,0.0,-2.0506,-2.0072,-1.9525,-1.9419,-1.9342,-1.9102,-1.8851,-1.8611,-1.8392,-1.777,-1.7043,-1.6392,-1.5966,-1.5468,-1.4588,-1.4231,-1.3812,-1.3277,-1.3228,-1.2781,-1.1839,-1.1494,-1.1353,-1.1445,-1.1377,-1.1377,-1.1528,-1.1528,-1.1716,-1.2217,-1.2177,-1.2476,-1.2993,-1.387,-1.449,-1.4945,-1.6062,-1.6573,-1.657,-1.657,-1.6126,-1.5275,-1.5167,-1.4919,-1.4648,-1.5425,-1.5576,-1.5423,-1.5634,-1.5835,-1.5973,-1.5762,-1.6092,-1.6615,-1.6615,-1.6743,-1.6908,-1.6908,-1.7193,-1.7596,-1.8009,-1.8687,-1.9222,-1.8727,-1.8647,-1.8407,-1.7594,-1.7674,-1.7806,-1.7078,-1.6818,-1.6802,-1.7067,-1.63,-1.5666,-1.5965,-1.579,-1.5565,-1.5418,-1.5271,-1.5124,-1.4977,-1.4957,-1.507,-1.5364,-1.5398,-1.5518,-1.5805,-1.5832,-1.5832,-1.5832,-1.5832,-1.5832,-1.5832,-1.5832,-1.5832,-1.5832,-1.5832,-1.5832,-1.5832,-1.573,-1.5547,-1.5267,-1.5267,-1.5267,-2.2723,-2.2571,-2.2592,-2.2051,-2.1376,-2.0842,0.0,0.0,0.0,-1.9058,-1.8971,-1.8971,-1.8971,-1.8895,-1.8709,-1.8338,-1.7771,-1.7189,-1.6568,-1.595,-1.5243,-1.4708,-1.4036,-1.3692,-1.3571,-1.3059,-1.2423,-1.1785,-1.1481,-1.1283,-1.1204,-1.142,-1.1683,-1.1885,-1.1885,-1.195,-1.2076,-1.248,-1.2725,-1.2822,-1.3967,-1.4774,-1.5351,-1.619,-1.6906,-1.739,-1.6976,-1.6543,-1.601,-1.5542,-1.5112,-1.472,-1.5361,-1.5425,-1.5309,-1.5927,-1.6248,-1.6266,-1.5927,-1.6239,-1.6752,-1.6514,-1.6642,-1.6908,-1.6908,-1.7422,-1.8018,-1.81,-1.8641,-1.9201,-1.9283,-1.9301,-1.9134,-1.8407,-1.8816,-1.8895,-1.7513,-1.7188,-1.7188,-1.7188,-1.6727,-1.6369,-1.6729,-1.607,-1.5558,-1.5504,-1.4959,-1.4583,-1.4529,-1.4522,-1.4636,-1.493,-1.5124,-1.5371,-1.5718,-1.5745,-1.5772,-1.5825,-1.5832,-1.5832,-1.5832,-1.5832,-1.5832,-1.5832,-1.5832,-1.5832,-1.5832,-1.5832,-1.5737,-1.554,-1.554,-1.5452,-2.3238,-2.2299,-2.1313,-2.125,-2.07,-2.0194,-2.0139,0.0,-1.9987,-1.9933,0.0,-1.9911,-1.9911,0.0,0.0,-1.9266,-1.8454,-1.7542,-1.6718,-1.6086,-1.5571,-1.509,-1.4656,-1.4258,-1.395,-1.2822,-1.2238,-1.2481,-1.1754,-1.1444,-1.187,-1.2281,-1.2547,-1.2599,-1.2599,-1.2434,-1.2076,-1.248,-1.2861,-1.3122,-1.4055,-1.4935,-1.5745,-1.658,-1.7187,-1.7656,-1.7601,-1.7066,-1.6283,-1.6337,-1.5818,-1.5038,-1.5084,-1.5313,-1.5624,-1.5716,-1.6001,-1.6312,-1.6266,-1.6312,-1.6431,-1.6743,-1.6872,-1.6908,-1.6908,-1.7211,-1.7642,-1.8018,-1.844,-1.8861,-1.921,-1.9301,-1.9301,-1.9143,-1.9222,-1.9222,-1.9054,-1.8975,-1.8975,-1.8975,-1.8542,-1.7903,-1.7148,-1.6563,-1.6139,-1.5763,-1.5306,-1.4823,-1.4556,-1.4522,-1.4636,-1.493,-1.4756,-1.4843,-1.5398,-1.5444,-1.5558,-1.5812,-1.5832,-1.5832,-1.5832,-1.5832,-1.5832,-1.5832,-1.5832,-1.5832,-1.5832,-1.5832,-1.5825,-1.5737,-1.5737,-1.5737,-2.2713,-2.1812,-2.0943,-2.0812,-2.0242,-1.9801,-2.002,-2.0085,-2.0085,-2.0085,0.0,0.0,0.0,0.0,0.0,0.0,-1.8089,-1.7258,-1.688,-1.6214,-1.5517,-1.4808,-1.4818,-1.4602,-1.401,-1.3195,-1.2505,-1.1896,-1.1982,-1.1956,-1.1589,-1.2323,-1.2614,-1.2383,-1.2595,-1.2633,-1.2431,-1.2803,-1.318,-1.3573,-1.4286,-1.4967,-1.5659,-1.6108,-1.6729,-1.7466,-1.7466,-1.7398,-1.7338,-1.7089,-1.6774,-1.6398,-1.5719,-1.572,-1.6109,-1.6095,-1.6312,-1.6661,-1.6661,-1.6661,-1.6688,-1.6853,-1.6908,-1.6908,-1.6908,-1.7348,-1.7899,-1.8073,-1.8577,-1.9091,-1.9256,-1.9301,-1.9301,-1.9301,-1.9301,-1.9301,-1.9301,-1.8895,-1.8727,-1.9222,-1.87,-1.8228,-1.831,-1.7451,-1.6428,-1.5455,-1.5273,-1.506,-1.4596,-1.4369,-1.4382,-1.4676,-1.4596,-1.4689,-1.511,-1.5297,-1.5444,-1.5571,-1.5732,-1.5832,-1.5832,-1.5832,-1.5832,-1.5832,-1.5832,-1.5832,-1.5832,-1.5832,-1.5832,-1.5832,-1.5832,-1.5832,-2.2189,-2.1473,-2.0938,-2.0631,-2.0214,-1.9957,-2.0182,-2.016,-2.0008,-1.9943,-1.9781,0.0,0.0,0.0,-1.8826,-1.8438,0.0,-1.7042,-1.6852,-1.629,-1.5652,-1.5074,-1.5157,-1.5029,-1.4433,-1.3722,-1.2823,-1.1842,-1.2096,-1.2123,-1.1636,-1.2411,-1.2709,-1.2424,-1.2837,-1.2898,-1.2686,-1.3142,-1.3563,-1.3905,-1.4477,-1.5012,-1.5578,-1.5818,-1.6504,-1.7462,-1.7462,-1.7682,-1.8016,-1.7679,-1.7507,-1.7288,-1.6375,-1.6277,-1.6572,-1.6374,-1.6529,-1.6899,-1.6932,-1.6978,-1.6908,-1.6908,-1.6908,-1.6908,-1.6908,-1.7394,-1.7981,-1.8091,-1.8614,-1.9164,-1.9274,-1.9301,-1.9301,-1.9301,-1.9301,-1.9301,-1.9301,-1.8807,-1.8567,-1.9143,-1.8816,-1.8487,-1.8895,-1.8057,-1.6907,-1.5632,-1.5439,-1.5154,-1.4455,-1.4215,-1.4202,-1.4489,-1.4522,-1.4676,-1.505,-1.5277,-1.5431,-1.5504,-1.5712,-1.5832,-1.5832,-1.5832,-1.5832,-1.5832,-1.5832,-1.5832,-1.5832,-1.5832,-1.5792,-1.5712,-1.5792,-1.5832,-2.1739,-2.1436,-2.1083,-2.0549,-2.0791,-2.1008,-2.07,-2.0202,-1.9794,-1.9503,-1.9069,-1.8731,-1.8731,-1.8355,-1.8038,-1.7915,-1.7456,0.0,0.0,-1.6309,-1.6285,-1.6266,-1.5909,-1.5661,-1.5634,-1.4111,-1.3091,-1.3079,-1.2004,-1.1688,-1.2448,-1.2977,-1.3268,-1.3259,-1.3629,-1.3503,-1.2686,-1.344,-1.3905,-1.4176,-1.4558,-1.5105,-1.5782,-1.6138,-1.6857,-1.7784,-1.7784,-1.7796,-1.7803,-1.8028,-1.7817,-1.7322,-1.674,-1.6775,-1.7088,-1.6427,-1.6485,-1.6854,-1.7104,-1.7038,-1.6908,-1.6908,-1.6908,-1.6908,-1.6908,-1.7193,-1.7596,-1.8009,-1.8421,-1.8815,-1.9201,-1.9301,-1.9301,-1.9301,-1.9301,-1.9301,-1.9301,-1.9301,-1.9301,-1.9301,-1.9301,-1.8975,-1.8158,-1.8006,-1.7691,-1.6812,-1.5891,-1.5068,-1.4179,-1.4095,-1.4202,-1.4489,-1.4522,-1.4756,-1.5337,-1.5391,-1.5518,-1.5798,-1.5825,-1.5832,-1.5832,-1.5832,-1.5832,-1.5832,-1.5832,-1.5832,-1.5832,-1.5832,-1.5685,-1.5418,-1.5698,-1.5832,-2.0991,-2.0486,-2.0006,-2.0158,-2.0201,-2.0076,-1.9722,-1.9784,-1.9745,-1.9065,-1.8542,-1.824,-1.824,-1.7554,-1.7093,-1.7338,-1.6929,-1.6617,0.0,-1.681,-1.6971,-1.7048,-1.6011,-1.5404,-1.5661,-1.4461,-1.3535,-1.3247,-1.2864,-1.2615,-1.2609,-1.3332,-1.3561,-1.3305,-1.3711,-1.3848,-1.3671,-1.3957,-1.4316,-1.4777,-1.5108,-1.5382,-1.559,-1.5875,-1.6538,-1.7528,-1.7528,-1.7921,-1.8577,-1.865,-1.8614,-1.8366,-1.7368,-1.7076,-1.7109,-1.6164,-1.623,-1.6835,-1.7095,-1.7166,-1.7107,-1.6968,-1.6908,-1.6954,-1.722,-1.7587,-1.799,-1.8394,-1.8797,-1.9136,-1.9265,-1.9301,-1.9301,-1.9301,-1.9301,-1.9301,-1.9301,-1.9301,-1.9301,-1.9301,-1.9301,-1.9222,-1.8895,-1.8895,-1.8407,-1.6944,-1.6453,-1.5966,-1.5068,-1.4583,-1.4409,-1.4509,-1.4696,-1.489,-1.5097,-1.5284,-1.5518,-1.5812,-1.5832,-1.5832,-1.5832,-1.5832,-1.5832,-1.5832,-1.5832,-1.5832,-1.5832,-1.5638,-1.5491,-1.5391,-1.5297,-1.5357,-2.0346,-2.0088,-1.9847,-1.9977,-1.997,-1.9866,-1.9513,-1.9448,-1.9291,-1.8848,-1.8046,-1.7452,-1.769,-1.7033,-1.6548,-1.6986,-1.6608,-1.6429,0.0,-1.7083,-1.7323,-1.747,-1.6552,-1.5984,-1.603,-1.5122,-1.4209,-1.3561,-1.3275,-1.3104,-1.2963,-1.3497,-1.3737,-1.3682,-1.4247,-1.4566,-1.4582,-1.4709,-1.5047,-1.551,-1.5517,-1.5558,-1.5603,-1.5748,-1.6368,-1.7412,-1.7412,-1.8013,-1.8987,-1.8987,-1.8987,-1.8881,-1.7929,-1.7368,-1.7088,-1.6128,-1.6233,-1.6959,-1.73,-1.7304,-1.7166,-1.7038,-1.6968,-1.6954,-1.7211,-1.7678,-1.8174,-1.843,-1.8889,-1.9301,-1.9301,-1.9301,-1.9301,-1.9301,-1.9301,-1.9301,-1.9301,-1.9301,-1.9301,-1.9301,-1.9301,-1.9301,-1.9301,-1.9301,-1.8807,-1.735,-1.7188,-1.6902,-1.6202,-1.5738,-1.5446,-1.532,-1.5528,-1.5604,-1.5349,-1.5351,-1.5478,-1.5665,-1.5578,-1.5565,-1.5671,-1.5671,-1.5725,-1.5825,-1.5832,-1.5832,-1.5832,-1.5645,-1.5444,-1.5237,-1.505,-1.5003]},{"header":{"parameterUnit":"m.s-1","parameterCategory":1,"la1":30.6,"la2":29.2853,"lo1":-89.7004,"lo2":-87.6739,"dy":0.0162,"dx":0.0183,"nx":112,"ny":82,"refTime":"2023-07-13T06:00:00:Z","depth":0,"parameterNumber":3,"parameterNumberName":"V-component_of_WINDS"},"data":[0.0,0.0,0.0,0.0,0.0,0.0,0.0,0.0,0.0,0.0,0.0,0.0,0.0,0.0,0.0,0.0,0.0,0.0,0.0,0.0,0.0,0.0,0.0,0.0,0.0,0.0,0.0,0.0,0.0,0.0,0.0,0.0,0.0,0.0,0.0,0.0,0.0,0.0,0.0,0.0,0.0,0.0,0.0,0.0,0.0,0.0,0.0,0.0,0.0,0.0,0.0,0.0,0.0,0.0,0.0,0.0,0.0,0.0,0.0,0.0,0.0,0.0,0.0,0.0,0.0,0.0,0.0,0.0,0.0,0.0,0.0,0.0,0.0,0.0,0.0,0.0,0.0,0.0,0.0,0.0,0.0,0.0,0.0,0.0,0.0,0.0,0.0,0.0,0.0,0.0,-3.1818,-3.2762,-3.3988,-3.4717,-3.4717,-3.4833,-3.374,-3.1023,0.0,0.0,0.0,0.0,0.0,0.0,0.0,0.0,0.0,0.0,0.0,0.0,0.0,0.0,0.0,0.0,0.0,0.0,0.0,0.0,0.0,0.0,0.0,0.0,0.0,0.0,0.0,0.0,0.0,0.0,0.0,0.0,0.0,0.0,0.0,0.0,0.0,0.0,0.0,0.0,0.0,0.0,0.0,0.0,0.0,0.0,0.0,0.0,0.0,0.0,0.0,0.0,0.0,0.0,0.0,0.0,0.0,0.0,0.0,0.0,0.0,0.0,0.0,0.0,0.0,0.0,0.0,0.0,0.0,0.0,0.0,0.0,0.0,0.0,0.0,0.0,0.0,0.0,0.0,0.0,0.0,0.0,0.0,0.0,0.0,0.0,0.0,0.0,0.0,0.0,0.0,0.0,0.0,0.0,0.0,0.0,0.0,0.0,0.0,0.0,0.0,0.0,0.0,0.0,-3.1437,-3.3408,-3.3822,-3.3955,-3.3955,-3.4535,-3.417,-3.2464,0.0,0.0,0.0,0.0,0.0,0.0,0.0,0.0,0.0,0.0,0.0,0.0,0.0,0.0,0.0,0.0,0.0,0.0,0.0,0.0,0.0,0.0,0.0,0.0,0.0,0.0,0.0,0.0,0.0,0.0,0.0,0.0,0.0,0.0,0.0,0.0,0.0,0.0,0.0,0.0,0.0,0.0,0.0,0.0,0.0,0.0,0.0,0.0,0.0,0.0,0.0,0.0,0.0,0.0,0.0,0.0,0.0,0.0,0.0,0.0,0.0,0.0,0.0,0.0,0.0,0.0,0.0,0.0,0.0,0.0,0.0,0.0,0.0,0.0,0.0,0.0,0.0,0.0,0.0,0.0,0.0,0.0,0.0,0.0,0.0,0.0,0.0,0.0,0.0,0.0,0.0,0.0,0.0,0.0,0.0,0.0,0.0,0.0,0.0,0.0,0.0,0.0,0.0,-3.0609,-3.1355,-3.3557,-3.3789,-3.3789,-3.3789,-3.4468,-3.3922,-3.1653,-3.1205,0.0,0.0,0.0,0.0,0.0,0.0,0.0,0.0,0.0,0.0,0.0,0.0,0.0,0.0,0.0,0.0,0.0,0.0,0.0,0.0,0.0,0.0,0.0,0.0,0.0,0.0,0.0,0.0,0.0,0.0,0.0,0.0,0.0,0.0,0.0,0.0,0.0,0.0,0.0,0.0,0.0,0.0,0.0,0.0,0.0,0.0,0.0,0.0,0.0,0.0,0.0,0.0,0.0,0.0,0.0,0.0,0.0,0.0,0.0,0.0,0.0,0.0,0.0,0.0,0.0,0.0,0.0,0.0,0.0,0.0,0.0,0.0,0.0,0.0,0.0,0.0,0.0,0.0,0.0,0.0,0.0,0.0,0.0,0.0,0.0,0.0,0.0,0.0,0.0,0.0,0.0,0.0,0.0,0.0,0.0,0.0,0.0,0.0,0.0,0.0,0.0,0.0,-3.1355,-3.1553,-3.3574,-3.3789,-3.3789,-3.3789,-3.4319,-3.3541,-3.0898,-3.0692,0.0,0.0,0.0,0.0,0.0,0.0,0.0,0.0,0.0,0.0,0.0,0.0,0.0,0.0,0.0,0.0,0.0,0.0,0.0,0.0,0.0,0.0,0.0,0.0,0.0,0.0,0.0,0.0,0.0,0.0,0.0,0.0,0.0,0.0,0.0,0.0,0.0,0.0,0.0,0.0,0.0,0.0,0.0,0.0,0.0,0.0,0.0,0.0,0.0,0.0,0.0,0.0,0.0,0.0,0.0,0.0,0.0,0.0,0.0,0.0,0.0,0.0,0.0,0.0,0.0,0.0,0.0,0.0,0.0,0.0,0.0,0.0,0.0,0.0,0.0,0.0,0.0,0.0,0.0,0.0,0.0,0.0,0.0,0.0,0.0,0.0,0.0,0.0,0.0,0.0,0.0,0.0,0.0,0.0,0.0,0.0,0.0,0.0,0.0,0.0,0.0,0.0,-3.1146,-3.2133,-3.3624,-3.3789,-3.3789,-3.3789,-3.3839,-3.321,-3.1593,-3.1247,0.0,0.0,0.0,0.0,0.0,0.0,0.0,0.0,0.0,0.0,0.0,0.0,0.0,0.0,0.0,0.0,0.0,0.0,0.0,0.0,0.0,0.0,0.0,0.0,0.0,0.0,0.0,0.0,0.0,0.0,0.0,0.0,0.0,0.0,0.0,0.0,0.0,0.0,0.0,0.0,0.0,0.0,0.0,0.0,0.0,0.0,0.0,0.0,0.0,0.0,0.0,0.0,0.0,0.0,0.0,0.0,0.0,0.0,0.0,0.0,0.0,0.0,0.0,0.0,0.0,0.0,0.0,0.0,0.0,0.0,0.0,0.0,0.0,0.0,0.0,0.0,0.0,0.0,0.0,0.0,0.0,0.0,0.0,0.0,0.0,0.0,0.0,0.0,0.0,0.0,0.0,0.0,0.0,0.0,0.0,0.0,0.0,0.0,0.0,0.0,0.0,0.0,-3.1411,-3.2183,-3.364,-3.3789,-3.3789,-3.3789,-3.3789,-3.2961,-3.1056,0.0,0.0,0.0,0.0,0.0,0.0,0.0,0.0,0.0,0.0,0.0,0.0,0.0,0.0,0.0,0.0,0.0,0.0,0.0,0.0,0.0,0.0,0.0,0.0,0.0,0.0,0.0,0.0,0.0,0.0,0.0,0.0,0.0,0.0,0.0,0.0,0.0,0.0,0.0,0.0,0.0,0.0,0.0,0.0,0.0,0.0,0.0,0.0,0.0,0.0,0.0,0.0,0.0,0.0,0.0,0.0,0.0,0.0,0.0,0.0,0.0,0.0,0.0,0.0,0.0,0.0,0.0,0.0,0.0,0.0,0.0,0.0,0.0,0.0,0.0,0.0,0.0,0.0,0.0,0.0,0.0,0.0,0.0,0.0,0.0,0.0,0.0,0.0,0.0,0.0,0.0,0.0,0.0,0.0,0.0,0.0,0.0,0.0,0.0,0.0,0.0,0.0,-3.1328,-3.2034,-3.2779,-3.4005,-3.4137,-3.4038,-3.3806,-3.3574,-3.2542,-3.0475,0.0,0.0,0.0,0.0,0.0,0.0,0.0,0.0,0.0,0.0,0.0,0.0,0.0,0.0,0.0,0.0,0.0,0.0,0.0,0.0,0.0,0.0,0.0,0.0,0.0,0.0,0.0,0.0,0.0,0.0,0.0,0.0,0.0,0.0,0.0,0.0,0.0,0.0,0.0,0.0,0.0,0.0,0.0,0.0,0.0,0.0,0.0,0.0,0.0,0.0,0.0,0.0,0.0,0.0,0.0,0.0,0.0,0.0,0.0,0.0,0.0,0.0,0.0,0.0,0.0,0.0,0.0,0.0,0.0,0.0,0.0,0.0,0.0,0.0,0.0,0.0,0.0,0.0,0.0,0.0,0.0,0.0,0.0,0.0,0.0,0.0,0.0,0.0,0.0,0.0,0.0,0.0,0.0,0.0,0.0,0.0,0.0,0.0,0.0,0.0,0.0,0.0,-3.1394,-3.2911,-3.4087,-3.4816,-3.4883,-3.4584,-3.3856,-3.311,-3.1924,0.0,0.0,0.0,0.0,0.0,0.0,0.0,0.0,0.0,0.0,0.0,0.0,0.0,0.0,0.0,0.0,0.0,0.0,0.0,0.0,0.0,0.0,0.0,0.0,0.0,0.0,0.0,0.0,0.0,0.0,0.0,0.0,0.0,0.0,0.0,0.0,0.0,0.0,0.0,0.0,0.0,0.0,0.0,0.0,0.0,0.0,0.0,0.0,0.0,0.0,0.0,0.0,0.0,0.0,0.0,0.0,0.0,0.0,0.0,0.0,0.0,0.0,0.0,0.0,0.0,0.0,0.0,0.0,0.0,0.0,0.0,0.0,0.0,0.0,0.0,0.0,0.0,0.0,0.0,0.0,0.0,0.0,0.0,0.0,0.0,0.0,0.0,0.0,0.0,0.0,0.0,0.0,0.0,0.0,0.0,0.0,0.0,0.0,0.0,0.0,0.0,0.0,0.0,-3.2183,-3.3657,-3.4651,-3.4883,-3.4419,-3.4038,-3.3806,-3.2646,-3.1391,-3.0061,0.0,0.0,0.0,0.0,0.0,0.0,0.0,0.0,0.0,0.0,0.0,0.0,0.0,0.0,0.0,0.0,0.0,0.0,0.0,0.0,0.0,0.0,0.0,0.0,0.0,0.0,0.0,0.0,0.0,0.0,0.0,0.0,0.0,0.0,0.0,0.0,0.0,0.0,0.0,0.0,0.0,0.0,0.0,0.0,0.0,0.0,0.0,0.0,0.0,0.0,0.0,0.0,0.0,0.0,0.0,0.0,0.0,0.0,0.0,0.0,0.0,0.0,0.0,0.0,0.0,0.0,0.0,0.0,0.0,0.0,0.0,0.0,0.0,0.0,0.0,0.0,0.0,0.0,0.0,0.0,0.0,0.0,0.0,0.0,0.0,0.0,0.0,0.0,0.0,0.0,0.0,0.0,0.0,0.0,0.0,0.0,0.0,0.0,0.0,0.0,0.0,0.0,-3.2464,-3.3723,-3.4568,-3.4866,-3.4237,-3.3673,-3.3375,-3.2457,-3.1254,-2.9867,0.0,0.0,0.0,0.0,0.0,0.0,0.0,0.0,0.0,0.0,0.0,0.0,0.0,0.0,0.0,0.0,0.0,0.0,0.0,0.0,0.0,0.0,0.0,0.0,0.0,0.0,0.0,0.0,0.0,0.0,0.0,0.0,0.0,0.0,0.0,0.0,0.0,0.0,0.0,0.0,0.0,0.0,0.0,0.0,0.0,0.0,0.0,0.0,0.0,0.0,0.0,0.0,0.0,0.0,0.0,0.0,0.0,0.0,0.0,0.0,0.0,0.0,0.0,0.0,0.0,0.0,0.0,0.0,0.0,0.0,0.0,0.0,0.0,0.0,0.0,0.0,0.0,0.0,0.0,0.0,0.0,0.0,0.0,0.0,0.0,0.0,0.0,0.0,0.0,0.0,0.0,0.0,0.0,0.0,0.0,0.0,0.0,0.0,0.0,0.0,0.0,0.0,-3.2415,-3.3392,-3.4154,-3.4816,-3.417,-3.3454,-3.2818,-3.2362,-3.1359,-2.9679,0.0,0.0,0.0,0.0,0.0,0.0,0.0,0.0,0.0,0.0,0.0,0.0,0.0,0.0,0.0,0.0,0.0,0.0,0.0,0.0,0.0,0.0,0.0,0.0,0.0,0.0,0.0,0.0,0.0,0.0,0.0,0.0,0.0,0.0,0.0,0.0,0.0,0.0,0.0,0.0,0.0,0.0,0.0,0.0,0.0,0.0,0.0,0.0,0.0,0.0,0.0,0.0,0.0,0.0,0.0,0.0,0.0,0.0,0.0,0.0,-3.1636,-3.1056,0.0,0.0,0.0,0.0,0.0,0.0,0.0,0.0,0.0,0.0,0.0,0.0,0.0,0.0,0.0,0.0,0.0,0.0,0.0,0.0,0.0,0.0,0.0,0.0,0.0,0.0,0.0,0.0,0.0,0.0,0.0,0.0,0.0,0.0,0.0,0.0,0.0,0.0,0.0,0.0,-3.2547,-3.3839,-3.4717,-3.4883,-3.3707,-3.3023,-3.3143,-3.2039,-3.1155,-3.0765,-3.0427,0.0,0.0,0.0,0.0,0.0,0.0,0.0,0.0,0.0,0.0,0.0,0.0,0.0,0.0,0.0,0.0,0.0,0.0,0.0,0.0,0.0,0.0,0.0,0.0,0.0,0.0,0.0,0.0,0.0,0.0,0.0,0.0,0.0,0.0,0.0,0.0,0.0,0.0,0.0,0.0,0.0,0.0,0.0,0.0,0.0,0.0,0.0,0.0,0.0,0.0,0.0,0.0,0.0,0.0,0.0,0.0,0.0,0.0,0.0,-3.2978,-3.2249,0.0,0.0,0.0,0.0,0.0,0.0,0.0,0.0,0.0,0.0,0.0,0.0,0.0,0.0,0.0,0.0,0.0,0.0,0.0,0.0,0.0,0.0,0.0,0.0,0.0,0.0,0.0,0.0,0.0,0.0,0.0,0.0,0.0,0.0,0.0,0.0,0.0,0.0,0.0,0.0,-3.3027,-3.4101,-3.4856,-3.5207,-3.4442,-3.3812,-3.3663,-3.2784,-3.1929,-3.1144,-3.0935,0.0,0.0,0.0,0.0,0.0,0.0,0.0,0.0,0.0,0.0,0.0,0.0,0.0,0.0,0.0,0.0,0.0,0.0,0.0,0.0,0.0,0.0,0.0,0.0,0.0,0.0,0.0,0.0,0.0,0.0,0.0,0.0,0.0,0.0,0.0,0.0,0.0,0.0,0.0,0.0,0.0,0.0,0.0,0.0,0.0,0.0,0.0,0.0,0.0,0.0,0.0,0.0,0.0,-3.528,-3.5595,-3.6191,-3.6191,-3.586,-3.5263,-3.4767,-3.3988,-3.3061,-3.3061,0.0,0.0,0.0,0.0,0.0,0.0,0.0,0.0,0.0,0.0,0.0,0.0,0.0,0.0,0.0,0.0,0.0,0.0,0.0,0.0,0.0,0.0,-3.4084,-3.3677,-3.4027,-3.4492,-3.444,0.0,0.0,0.0,0.0,0.0,0.0,0.0,0.0,0.0,0.0,0.0,-3.3812,-3.4459,-3.5026,-3.5637,-3.5265,-3.4737,-3.4155,-3.3611,-3.2756,-3.1505,-3.1586,-3.1457,0.0,0.0,0.0,0.0,0.0,0.0,0.0,0.0,0.0,0.0,0.0,0.0,0.0,0.0,0.0,0.0,0.0,0.0,0.0,0.0,0.0,0.0,0.0,0.0,0.0,0.0,0.0,0.0,0.0,0.0,0.0,0.0,-3.1427,-3.1427,0.0,0.0,0.0,0.0,0.0,0.0,0.0,0.0,0.0,0.0,0.0,0.0,0.0,-3.5263,-3.6655,-3.6572,-3.6622,-3.682,-3.682,-3.687,-3.6953,-3.6953,-3.6903,-3.6837,-3.7384,0.0,-3.4601,-3.4601,0.0,0.0,0.0,0.0,0.0,0.0,0.0,0.0,0.0,0.0,0.0,0.0,0.0,0.0,0.0,0.0,0.0,0.0,0.0,0.0,0.0,0.0,-3.5972,-3.6902,-3.7199,-3.7529,-3.8363,-3.5471,-3.2563,-3.2133,-3.2023,-3.2036,0.0,0.0,0.0,0.0,0.0,0.0,-3.4947,-3.5572,-3.5985,-3.613,-3.4949,-3.4246,-3.4504,-3.323,-3.2525,-3.266,-3.2081,-3.1956,-3.2545,-3.1903,0.0,0.0,0.0,0.0,0.0,0.0,0.0,0.0,0.0,0.0,0.0,0.0,0.0,0.0,0.0,0.0,0.0,0.0,0.0,0.0,0.0,0.0,0.0,0.0,0.0,0.0,0.0,0.0,0.0,-3.1113,-3.1576,-3.1576,-3.1576,-3.1576,0.0,0.0,0.0,0.0,0.0,0.0,0.0,0.0,0.0,-3.6092,-3.6141,-3.6456,-3.7102,-3.7102,-3.7317,-3.7731,-3.7731,-3.7947,-3.8328,-3.8328,-3.8328,-3.8344,-3.8676,-3.8261,-3.7301,-3.6473,-3.5694,-3.4965,0.0,0.0,0.0,0.0,-3.4551,-3.4601,-3.5032,-3.5164,-3.5081,-3.4584,0.0,0.0,0.0,0.0,0.0,0.0,0.0,-3.4678,-3.5693,-3.6491,-3.7239,-3.8042,-3.8265,-3.8356,-3.879,-3.7369,-3.5778,-3.5054,-3.448,-3.4015,-3.3662,-3.339,0.0,0.0,0.0,-3.5736,-3.6335,-3.6932,-3.6917,-3.6006,-3.5577,-3.5081,-3.4394,-3.3686,-3.3184,-3.292,-3.2563,-3.2509,-3.2898,-3.2545,-3.2527,0.0,0.0,0.0,0.0,0.0,0.0,0.0,0.0,0.0,0.0,0.0,0.0,0.0,0.0,0.0,0.0,0.0,0.0,0.0,0.0,0.0,0.0,0.0,0.0,0.0,0.0,0.0,0.0,-3.1321,-3.1901,-3.1901,-3.2067,-3.2249,0.0,0.0,0.0,0.0,0.0,0.0,-3.5114,-3.5363,-3.6141,-3.7615,-3.7483,-3.7566,-3.7947,-3.7765,-3.7947,-3.8477,-3.8477,-3.8758,-3.9272,-3.9272,-3.9272,-3.9272,-3.9272,-3.9272,-3.9172,-3.7914,-3.7069,-3.6506,-3.5959,-3.5744,-3.5827,-3.6572,-3.6837,-3.692,-3.7466,-3.7549,-3.7235,-3.6307,-3.5893,-3.5495,-3.4203,0.0,0.0,0.0,0.0,-3.6101,-3.7233,-3.7887,-3.8452,-3.916,-3.9363,-3.9363,-3.9539,-3.9451,-3.8929,-3.7532,-3.6693,-3.6053,-3.5397,-3.5188,0.0,-3.7027,-3.7154,-3.7252,-3.7676,-3.8076,-3.7655,-3.6068,-3.6007,-3.556,-3.4222,-3.3919,-3.3526,-3.2952,-3.2916,-3.2916,-3.2916,-3.2916,-3.2916,-3.2916,0.0,0.0,0.0,0.0,0.0,0.0,0.0,0.0,0.0,0.0,0.0,0.0,0.0,0.0,0.0,0.0,0.0,0.0,0.0,0.0,0.0,0.0,0.0,0.0,0.0,0.0,0.0,0.0,0.0,-3.263,-3.3243,0.0,0.0,0.0,0.0,-3.4618,-3.4767,-3.5131,-3.5909,-3.6622,-3.7665,-3.9123,-3.851,-3.8825,-4.0199,-3.952,-3.9189,-3.9222,-3.9222,-3.9239,-3.9272,-3.9272,-3.9272,-3.9272,-3.9272,-3.9272,-3.9222,-3.846,-3.8129,-3.8096,-3.8063,-3.8046,-3.8129,-3.8841,-3.9106,-3.9106,-3.9156,-3.8725,-3.8261,-3.8858,-3.8593,-3.7897,-3.7119,-3.7216,0.0,0.0,-3.7974,-3.8577,-3.9353,-3.9577,-3.9905,-4.1103,-4.1349,-4.1499,-4.2021,-4.169,-4.0683,-3.8485,-3.8006,-3.8086,-3.8516,0.0,-3.8285,-3.9548,-3.9393,-3.9042,-3.8765,-3.877,-3.8146,-3.6524,-3.5721,-3.4954,-3.4169,-3.3384,-3.2952,-3.2916,-3.2916,-3.2916,-3.2916,-3.2916,-3.2916,-3.2916,-3.2916,0.0,0.0,0.0,0.0,0.0,0.0,0.0,0.0,0.0,0.0,0.0,0.0,0.0,0.0,0.0,0.0,0.0,0.0,0.0,0.0,0.0,0.0,0.0,0.0,0.0,0.0,0.0,0.0,-3.4104,-3.4767,0.0,-3.5578,-3.5131,-3.5032,-3.5578,-3.6059,-3.6655,-3.7384,-3.8112,-3.8957,-3.9951,-3.9736,-3.9852,-4.0365,-3.9636,-3.9272,-3.9272,-3.9272,-3.9272,-3.9272,-3.9272,-3.9272,-3.9272,-3.9272,-3.9272,-3.9255,-3.9007,-3.9172,-3.962,-3.962,-3.962,-3.9636,-3.9885,-3.9686,-3.9272,-3.9272,-3.9106,-3.8858,-3.8659,-3.8303,-3.7818,-3.7269,-3.7434,-3.7902,-3.8376,-3.8673,-3.9127,-4.0502,-4.0847,-4.1051,-4.1846,-4.2002,-4.1919,-4.1586,-4.1772,-4.1594,-4.0304,-3.9794,-3.9576,-3.9516,-3.8978,-3.9046,-4.0446,-3.9726,-3.9118,-3.9447,-3.9093,-3.8183,-3.6577,-3.5685,-3.49,-3.4169,-3.3348,-3.2916,-3.2916,-3.2916,-3.2916,-3.2916,-3.2916,-3.2916,-3.2916,-3.2916,-3.2916,0.0,0.0,0.0,0.0,0.0,0.0,0.0,0.0,0.0,0.0,0.0,0.0,0.0,0.0,0.0,0.0,0.0,0.0,0.0,0.0,0.0,0.0,0.0,0.0,0.0,-3.4038,-3.5263,-3.5263,-3.5926,-3.6473,-3.6721,-3.6522,-3.6589,-3.7069,-3.735,-3.7798,-3.8526,-3.9023,-3.962,-4.0365,-4.0133,-4.0133,-4.0382,-3.9636,-3.9272,-3.9272,-3.9272,-3.9272,-3.9272,-3.9272,-3.9272,-3.9272,-3.9272,-3.9272,-3.9272,-3.9272,-3.9702,-4.0382,-4.0382,-4.0382,-4.0415,-4.0647,-4.0415,-3.9967,-3.9736,-3.9653,-3.9574,-3.8985,-3.8673,-3.8514,-3.8386,-3.8693,-3.9169,-3.962,-3.9915,-4.0297,-4.1481,-4.177,-4.1856,-4.2246,-4.2287,-4.2073,-4.127,-4.152,-4.1734,-4.1199,-4.1061,-4.089,-4.041,-3.9914,-3.9932,-4.0949,-4.0003,-3.9361,-3.986,-3.9272,-3.8183,-3.6577,-3.5917,-3.5204,-3.4204,-3.383,-3.3437,-3.292,-3.3134,-3.3169,-3.2902,-3.3152,-3.3294,-3.3294,-3.3294,-3.3294,-3.3294,0.0,0.0,0.0,0.0,0.0,0.0,0.0,0.0,0.0,0.0,0.0,0.0,0.0,0.0,0.0,0.0,0.0,0.0,0.0,0.0,0.0,0.0,0.0,-3.3955,-3.5131,-3.6075,-3.6075,-3.6721,-3.7466,-3.8179,-3.7599,-3.7765,-3.9172,-3.8642,-3.8543,-3.9239,-3.9342,-3.9653,-4.0398,-3.9702,-3.9669,-4.0398,-3.9653,-3.9272,-3.9272,-3.9272,-3.9272,-3.9272,-3.9272,-3.9272,-3.9272,-3.9272,-3.9272,-3.9272,-3.9272,-3.9702,-4.0348,-4.0365,-4.0382,-4.0464,-4.1127,-4.1359,-4.1243,-4.058,-4.0348,-4.0325,-4.0104,-4.0003,-4.0103,-4.0659,-4.1111,-4.1472,-4.1472,-4.1856,-4.2287,-4.2287,-4.2287,-4.2287,-4.2287,-4.2287,-4.2073,-4.127,-4.1092,-4.1092,-4.1074,-4.168,-4.1984,-4.1234,-4.1056,-4.1038,-4.1056,-4.036,0.0,-3.9878,-3.9236,-3.8183,-3.6595,-3.6417,-3.5792,-3.4311,-3.4775,-3.4508,-3.3041,-3.3616,-3.3687,-3.292,-3.3651,-3.4062,-3.4062,-3.4097,-3.4115,-3.4115,0.0,0.0,0.0,0.0,0.0,0.0,0.0,0.0,0.0,0.0,0.0,0.0,0.0,0.0,0.0,0.0,0.0,0.0,0.0,0.0,0.0,-3.5572,-3.6241,-3.5495,-3.6671,-3.7615,-3.7615,-3.8245,-3.8758,-3.8957,-3.8791,-3.8841,-3.9239,-3.909,-3.9073,-3.9309,-3.9785,-4.0398,-4.111,-4.0448,-4.0415,-4.1127,-3.9885,-3.9272,-3.9272,-3.9272,-3.9272,-3.9272,-3.9272,-3.9272,-3.9272,-3.9272,-3.9272,-3.9272,-3.9272,-3.9404,-3.9636,-4.0166,-4.0382,-4.0398,-4.0597,-4.0332,-3.9835,-3.9653,-3.957,-3.9644,-3.9935,-4.0252,-4.0611,-4.0754,-4.1111,-4.1472,-4.1472,-4.1622,-4.1813,-4.2187,-4.2287,-4.2287,-4.2287,-4.2287,-4.2073,-4.127,-4.1092,-4.0931,-4.0342,-4.0414,-4.0681,-4.1038,-4.0182,-3.9611,-4.0164,-3.9093,-3.8433,-3.904,-3.8415,-3.7755,-3.7309,-3.6738,-3.6238,-3.5792,-3.4383,-3.3598,-3.3758,-3.2884,-3.2509,-3.2898,-3.3098,-3.3223,-3.3223,-3.3794,-3.4115,0.0,0.0,0.0,0.0,0.0,0.0,0.0,0.0,0.0,0.0,0.0,0.0,0.0,0.0,0.0,0.0,0.0,0.0,0.0,0.0,0.0,0.0,-3.6961,-3.7533,-3.7384,-3.8112,-3.8659,-3.8659,-3.9023,-3.9272,-3.9272,-3.9272,-3.9272,-3.9272,-3.9272,-3.9272,-3.9272,-3.9686,-4.0249,-4.0961,-4.058,-4.0713,-4.1409,-4.0299,-3.9736,-3.9736,-3.9475,-3.9272,-3.9272,-3.9272,-3.9272,-3.9272,-3.9272,-3.9272,-3.9272,-3.9272,-3.9272,-3.9322,0.0,0.0,0.0,0.0,-3.9636,-3.9272,-3.9272,-3.9415,-3.9696,-4.0153,-4.0689,-4.1128,-4.1356,-4.1622,-4.1856,-4.1856,-4.1856,-4.1917,-4.2228,-4.2287,-4.2287,-4.2287,-4.2037,-4.1573,-4.077,-4.036,-4.0003,-3.9539,-3.945,0.0,-4.0057,-3.9397,-3.8968,-3.9379,-3.838,-3.788,-3.8701,-3.8094,-3.7577,-3.7577,-3.7166,-3.6756,-3.6435,-3.5453,0.0,0.0,0.0,-3.3883,-3.4329,-3.4365,0.0,0.0,0.0,-3.49,-3.4561,-3.5687,0.0,0.0,-3.6201,-3.6527,0.0,0.0,0.0,0.0,0.0,0.0,0.0,0.0,0.0,0.0,0.0,0.0,0.0,0.0,0.0,0.0,-3.812,-3.8526,-3.9073,-3.9156,-3.9189,-3.9309,-3.9272,-3.9272,-3.9272,-3.9272,-3.9272,-3.9272,-3.9272,-3.9272,-3.9272,-3.9272,0.0,0.0,0.0,-4.0597,-4.1293,-4.0597,-4.0266,-4.0249,-3.9587,-3.9272,-3.9272,-3.9272,-3.9272,-3.9272,-3.9272,-3.9272,-3.9272,-3.9272,-3.9272,-3.9272,-3.9272,-3.9272,-3.9272,-3.9272,-3.9325,-3.9362,-3.9362,0.0,0.0,-4.0707,-4.1157,-4.1622,-4.2145,-4.2287,-4.2287,-4.2287,-4.2287,-4.2287,-4.2287,-4.2287,-4.2269,-4.218,-4.1609,-4.0877,-4.0075,-3.9325,-3.8808,-3.8808,-3.8736,-3.8665,-3.8665,-3.8754,-3.8772,-3.8683,-3.8058,-3.7844,-3.8576,-3.8041,-3.7577,-3.7577,-3.7577,0.0,-3.6595,-3.7006,-3.6756,-3.5435,-3.5917,-3.6256,-3.6256,-3.6185,-3.6131,-3.6131,-3.6131,-3.5792,-3.5096,-3.5812,-3.6111,-3.6146,-3.6887,-3.7143,0.0,0.0,0.0,0.0,0.0,0.0,0.0,0.0,0.0,0.0,0.0,0.0,0.0,0.0,0.0,-3.8242,-3.874,-3.8924,-3.8477,-3.8411,-3.8626,-3.9206,-3.9272,-3.9272,-3.9272,-3.9272,-3.9272,-3.9272,-3.9272,-3.9272,-3.9272,-3.9272,-3.962,-4.0365,-3.9802,-3.9835,-4.058,-3.9852,-3.9487,-3.9487,-3.9392,0.0,-3.9272,-3.9272,-3.9272,-3.9272,-3.9272,-3.9272,-3.9272,-3.9272,-3.9272,-3.9272,-3.9272,-3.9272,-3.9272,-3.9272,-3.9556,-3.9868,-3.9868,-4.022,-4.0737,-4.1202,-4.1445,-4.1622,-4.2145,-4.2287,0.0,-4.2287,-4.2287,-4.2287,-4.2287,-4.2287,-4.2126,-4.1484,-4.1217,-4.0877,-4.0075,-3.9325,-3.8808,-3.8808,-3.8272,-3.7826,-3.7826,-3.838,-3.8594,-3.7916,-3.7684,-3.7648,-3.7809,-3.7684,-3.7577,-3.7577,-3.7577,-3.7523,-3.7362,-3.6328,-3.581,-3.6149,-3.5703,-3.5435,-3.5435,-3.4865,-3.4543,-3.4543,-3.4543,-3.4472,-3.4329,-3.5686,-3.6328,-3.6346,-3.6849,-3.6948,0.0,0.0,0.0,0.0,0.0,0.0,0.0,0.0,0.0,0.0,0.0,-3.8308,-3.8683,0.0,-3.9152,-3.9531,-3.9446,-3.9023,-3.8311,-3.8212,-3.8212,-3.8195,-3.851,-3.8742,-3.8742,-3.9056,-3.9272,-3.9272,-3.9272,-3.9272,-3.9272,-3.9272,-3.962,-4.0365,-4.0017,-4.0183,-4.0895,-4.0183,-3.9835,-3.9835,-3.9508,-3.9272,-3.9272,-3.9272,-3.9272,-3.9272,-3.9272,-3.9272,-3.9272,-3.9272,-3.9272,-3.9272,-3.9272,-3.9272,-3.9272,-3.9272,-3.9592,-4.0003,-4.0003,-4.048,-4.1202,-4.1428,-4.1666,-4.1959,-4.2228,-4.2287,-4.2287,-4.2287,-4.2287,-4.2287,-4.2287,-4.2287,-4.2091,-4.1288,-4.0788,-4.0307,-3.9521,-3.8736,-3.8201,-3.8201,-3.8201,-3.8058,-3.7648,-3.8272,-3.854,-3.7702,-3.7577,-3.7577,-3.7577,-3.7577,-3.7577,-3.7577,-3.7577,-3.7434,-3.7023,-3.6256,-3.5971,-3.6363,-3.6399,-3.6399,-3.6399,-3.5667,-3.5257,-3.5257,-3.4865,-3.4472,-3.4115,-3.5239,-3.581,-3.5828,-3.6433,-3.6794,0.0,0.0,0.0,0.0,0.0,0.0,0.0,-3.7613,-3.7398,-3.8504,-3.9129,-3.9664,-4.0271,-4.0139,-4.017,-4.0698,-4.0037,-3.9116,-3.8112,-3.8129,-3.788,-3.7003,-3.7665,-3.8278,-3.8411,-3.8941,-3.9272,-3.9272,-3.9272,-3.9272,-3.9272,-3.9272,-3.9537,-4.015,-4.0166,-4.0431,-4.0994,-4.0448,-4.0166,-4.0166,-3.9553,-3.9272,-3.9272,-3.9272,-3.9272,-3.9272,-3.9272,-3.9272,-3.9272,-3.9272,-3.9272,-3.9325,-3.9415,-3.9415,-3.9415,-3.9415,-3.9782,-4.0285,-4.0285,-4.0908,-4.1648,-4.149,-4.1835,-4.2251,-4.2091,-4.2162,-4.2287,-4.2287,-4.218,-4.2055,-4.2055,-4.1948,-4.1627,-4.0842,-4.0164,-3.9486,-3.8736,-3.8058,-3.7577,-3.7577,-3.8112,-3.8362,-3.7702,-3.813,-3.8344,-3.7684,-3.7577,-3.7577,-3.7577,-3.7577,-3.7577,-3.7577,-3.7452,-3.7023,-3.6238,-3.6167,-3.6238,-3.6381,-3.7006,-3.7362,-3.7362,-3.6577,-3.6096,-3.5953,-3.5168,-3.4454,-3.3865,-3.4633,-3.4989,-3.5025,-3.5953,-3.6719,-3.4661,-3.5423,-3.7126,-3.8994,-3.8852,-3.9085,0.0,-4.1256,-4.0146,-4.2394,-4.2341,-4.1912,-4.2002,-4.1619,-4.1206,-4.0832,-4.0319,-3.9295,-3.7468,-3.7798,-3.7698,-3.629,-3.7367,-3.846,-3.909,-3.9222,-3.9272,-3.9272,-3.9272,-3.9272,-3.9272,-3.9272,-3.9358,-3.9404,-3.9404,-3.9437,-3.9504,-3.9437,-3.9404,-3.9404,-3.9322,-3.9272,-3.9272,-3.9272,-3.9272,-3.9272,-3.9272,-3.9272,-3.9272,-3.9272,-3.9272,-3.9325,-3.9782,-3.9919,-3.9919,-3.9919,-4.0528,-4.1338,-4.1338,-4.1709,-4.208,-4.1368,-4.1658,-4.2162,-4.1448,-4.1716,-4.2287,-4.2287,-4.1787,-4.1234,-4.1234,-4.0699,-3.9985,-3.9236,-3.9004,-3.8701,-3.7898,-3.7648,-3.7577,-3.7577,-3.7666,-3.7702,-3.7612,-3.7666,-3.7684,-3.7594,-3.7577,-3.7577,-3.7577,-3.7577,-3.7577,-3.7577,-3.6952,-3.6203,-3.54,-3.5346,-3.565,-3.6345,-3.647,-3.6524,-3.6524,-3.5757,-3.5043,-3.4383,-3.3562,-3.313,-3.3027,-3.383,-3.4222,-3.4258,-3.5721,-3.6719,-3.6303,-3.7206,-3.8396,-3.9596,-4.0235,-4.0899,-4.2228,-4.1582,-4.1117,-4.2501,-4.2519,-4.2187,-4.1899,-4.1445,-4.0787,-3.9867,-3.9294,-3.852,-3.7302,-3.7384,-3.75,-3.7317,-3.7831,-3.8328,-3.8626,-3.9023,-3.9272,-3.9272,-3.9272,-3.9272,-3.9272,-3.9272,-3.9272,-3.9272,-3.9272,-3.9272,-3.9272,-3.9272,-3.9272,-3.9272,-3.9272,-3.9272,-3.9272,-3.9272,-3.9272,-3.9272,-3.9272,-3.9272,-3.9272,-3.9272,-3.9272,-3.9325,-3.9833,-4.0203,-4.0466,-4.0466,-4.0908,-4.142,-4.1025,-4.1184,-4.1466,-4.0663,-4.0949,-4.1448,-4.0646,-4.0967,-4.1502,-4.1038,-4.0663,-4.0414,-4.0414,-4.0164,-3.9718,-3.8986,-3.8808,-3.8594,-3.7755,-3.7577,-3.7577,-3.7577,-3.7577,-3.7577,-3.7577,-3.7577,-3.7577,-3.7577,-3.7577,-3.7577,-3.7577,-3.7577,-3.7577,-3.7577,-3.6078,-3.5096,-3.5204,-3.5204,-3.5346,-3.5685,-3.6131,-3.6399,-3.6399,-3.5221,-3.4418,-3.4115,-3.3294,-3.2916,-3.2916,-3.3223,-3.3633,-3.4133,-3.4757,-3.5437,-3.6856,-3.7819,-3.872,-3.976,-4.0905,-4.188,-4.225,-4.1985,-4.1895,-4.2816,-4.2632,-4.2199,-4.1903,-4.1359,-4.0526,-3.9134,-3.8623,-3.8001,-3.6936,-3.6986,-3.7317,-3.7847,-3.8096,-3.8295,-3.8477,-3.8974,-3.9272,-3.9272,-3.9272,-3.9272,-3.9272,-3.9272,-3.9272,-3.9272,-3.9272,-3.9272,-3.9272,-3.9272,-3.9272,-3.9272,-3.9272,-3.9272,-3.9272,-3.9272,-3.9272,-3.9272,-3.9272,-3.9272,-3.9272,-3.9272,-3.9272,-3.9379,-3.9969,-4.0449,-4.0849,-4.1128,-4.1305,-4.1304,-4.0757,-4.0648,-4.0646,-3.986,-4.0289,-4.0913,-3.9914,-4.0467,-4.1252,-4.0467,-4.0235,-4.0199,-3.9968,-3.9753,-3.9414,-3.8647,-3.8469,-3.8308,-3.7719,-3.7577,-3.7577,-3.7577,-3.7577,-3.7577,-3.7577,-3.7577,-3.7577,-3.7577,-3.7577,-3.7577,-3.7577,-3.7577,-3.7487,-3.7273,-3.5543,-3.4543,-3.4882,-3.4704,-3.4668,-3.4882,-3.5435,-3.5774,-3.5774,-3.4704,-3.4008,-3.3776,-3.3187,-3.2916,-3.2916,-3.2916,-3.3187,-3.3776,-3.4008,-3.4349,-3.5163,-3.6147,-3.7336,-3.9788,-4.0646,-4.1549,-4.3889,-4.3387,-4.2898,-4.442,-4.3441,-4.2376,-4.2607,-4.2026,-4.0896,-3.9183,-3.8886,-3.8184,-3.6323,-3.6655,-3.7119,-3.7135,-3.7765,-3.8477,-3.9172,-3.9309,-3.9272,-3.9272,-3.9272,-3.9272,-3.9272,-3.9272,-3.9272,-3.9272,-3.9272,-3.9272,-3.9272,-3.9272,-3.9272,-3.9272,-3.9272,-3.9272,-3.9272,-3.9272,-3.9272,-3.9272,-3.9272,-3.9272,-3.9272,-3.9272,-3.9272,-3.9432,-4.0368,-4.0802,-4.0943,-4.1899,-4.1747,-4.1087,-4.1069,-4.0592,-3.9825,-3.9075,-3.986,-4.0824,-3.9307,-4.0431,-4.2091,-4.1288,-4.1056,-4.0877,-4.011,-3.9379,-3.8629,-3.7826,-3.763,-3.7612,-3.7594,-3.7577,-3.7577,-3.7577,-3.7577,-3.7577,-3.7577,-3.7577,-3.7577,-3.7577,-3.7577,-3.7577,-3.7577,-3.7577,-3.7291,-3.6524,-3.5685,-3.49,-3.4204,-3.3419,-3.3294,-3.4079,-3.4169,-3.4169,-3.4169,-3.4133,-3.3723,-3.2938,-3.2902,-3.2916,-3.2916,-3.2916,-3.2902,-3.2969,-3.374,-3.3997,-3.5184,-3.6963,-3.8681,-3.9801,-4.0609,-4.1405,-4.2414,-4.2739,-4.2948,-4.3292,-4.2436,-4.1395,-4.0581,-3.9914,-3.8836,-3.6937,-3.7263,-3.7469,-3.6804,-3.6953,-3.7466,-3.8427,-3.8758,-3.9007,-3.9255,-3.9272,-3.9272,-3.9272,-3.9272,-3.9272,-3.9272,-3.9272,-3.9272,-3.9272,-3.9272,-3.9272,-3.9272,-3.9272,-3.9272,-3.9272,-3.9272,-3.9272,-3.9272,-3.9272,-3.9272,-3.9272,-3.9272,-3.9272,-3.9272,-3.9272,-3.9504,-3.9817,-4.0514,-4.099,-4.1356,-4.2044,-4.1787,-4.1092,-4.1092,-4.0931,-4.0574,-3.9789,-4.0253,-4.0895,-3.986,-4.0449,-4.1234,-3.995,-3.9575,-3.9397,-3.8576,-3.8594,-3.8611,-3.7773,-3.8005,-3.8255,-3.7702,-3.7577,-3.7577,-3.7577,-3.7577,-3.7577,-3.7577,-3.8041,-3.8397,-3.8397,-3.7933,-3.7577,-3.7577,-3.7131,-3.6899,-3.7166,-3.6006,-3.5114,-3.4865,-3.5061,-3.5114,-3.4865,-3.4847,-3.4914,-3.508,-3.3945,-3.3248,-3.3117,-3.2961,-3.2916,-3.2916,-3.2916,-3.2916,-3.2916,-3.3169,-3.3179,-3.5585,-3.7068,-3.8308,-3.9463,-4.0108,-4.0689,-4.1519,-4.2157,-4.2522,-4.241,-4.1607,-4.0542,-3.9353,-3.8782,-3.7785,-3.5706,-3.6104,-3.6721,-3.6721,-3.6489,-3.6953,-3.8692,-3.8907,-3.899,-3.9255,-3.9272,-3.9272,-3.9272,-3.9272,-3.9272,-3.9272,-3.9272,-3.9272,-3.9272,-3.9272,-3.9272,-3.9272,-3.9272,-3.9272,-3.9272,-3.9272,-3.9272,-3.9272,-3.9272,-3.9272,-3.9272,-3.9272,-3.9272,-3.9272,-3.9272,-3.9609,-4.0053,-4.0611,-4.1082,-4.1561,-4.2086,-4.1966,-4.1484,-4.1199,-4.0913,-4.0592,-4.0075,-4.0449,-4.0949,-4.0146,-4.0467,-4.0842,-3.9557,-3.92,-3.9075,-3.8558,-3.8808,-3.9075,-3.854,-3.8826,-3.9058,-3.8522,-3.8415,-3.8344,-3.8076,-3.8237,-3.8344,-3.8058,-3.8683,-3.92,-3.92,-3.854,-3.7916,-3.763,-3.7131,-3.7023,-3.7523,-3.6504,-3.5751,-3.5751,-3.5733,-3.5549,-3.5076,-3.4724,-3.4595,-3.4865,-3.3767,-3.3208,-3.3339,-3.3208,-3.3086,-3.3024,-3.3024,-3.2961,-3.2916,-3.2916,-3.2737,-3.6177,-3.6423,-3.6441,-3.8783,-3.9141,-3.9361,-4.1101,-4.1609,-4.1741,-4.1791,-4.0908,-3.9866,-3.894,-3.8651,-3.7796,-3.5492,-3.5675,-3.6108,-3.6108,-3.5512,-3.586,-3.8013,-3.8209,-3.8474,-3.9206,-3.9272,-3.9272,-3.9272,-3.9272,-3.9272,-3.9272,-3.9272,-3.9272,-3.9272,-3.9272,-3.9272,-3.9272,-3.9272,-3.9272,-3.9272,-3.9272,-3.9272,-3.9272,-3.9272,-3.9272,-3.9272,-3.9272,-3.9272,-3.9272,-3.9272,-3.9592,-4.0103,-4.0611,-4.1111,-4.1622,-4.2103,-4.2287,-4.218,-4.1431,-4.0663,-4.0039,-4.0039,-4.0521,-4.0967,-4.0199,-4.0485,-4.0877,-4.0075,-3.9878,-3.9896,-3.986,-3.9914,-3.9968,-3.9914,-3.995,-3.9968,-3.9914,-3.9914,-3.97,-3.9004,-3.9432,-3.97,-3.904,-3.9468,-3.9932,-3.9968,-3.9307,-3.8522,-3.7755,-3.7649,-3.7613,-3.7613,-3.718,-3.6862,-3.6826,-3.5471,-3.4709,-3.4845,-3.3857,-3.3411,-3.366,-3.3623,-3.3605,-3.3633,-3.3605,-3.3473,-3.322,-3.322,-3.3117,-3.2916,-3.2916,-3.2705,-3.4977,-3.6045,-3.6964,-3.7493,-3.7572,-3.7729,-3.8479,-3.9577,-4.0203,-3.9358,-3.9334,-3.8923,-3.7193,-3.7428,-3.7396,-3.5919,-3.6846,-3.7785,-3.7785,-3.7517,-3.7781,-3.8874,-3.8581,-3.8521,-3.9239,-3.8843,-3.8772,-3.9272,-3.9272,-3.9272,-3.9272,-3.9272,-3.9272,-3.9272,-3.9272,-3.9272,-3.9272,-3.9272,-3.9272,-3.9272,-3.9272,-3.9272,-3.9272,-3.9272,-3.9272,-3.9272,-3.9272,-3.9272,-3.9272,-3.9272,-3.9799,-4.0594,-4.0754,-4.1311,-4.2103,-4.2246,-4.2287,-4.2251,-4.2055,-4.1859,-4.168,-4.168,-4.1413,-4.1056,-4.086,-4.0521,-4.0057,-3.9307,-3.9486,-3.9789,-3.9236,-3.9932,-4.0646,-4.0057,-4.036,-4.0628,-4.0039,-3.9914,-3.986,-3.9664,-3.9789,-4.0039,-4.0449,-4.0182,-4.0188,-4.1027,-4.0003,-3.8941,-3.856,-3.8133,-3.788,-3.788,-3.7972,-3.774,-3.7153,-3.6685,-3.6224,-3.572,-3.4841,-3.4444,-3.4706,-3.4,-3.3671,-3.3815,-3.3671,-3.3577,-3.3502,-3.3502,-3.3386,-3.3129,-3.3129,-3.2848,-3.5057,-3.5775,-3.6245,-3.6559,-3.6784,-3.6969,-3.7221,-3.8309,-3.8889,-3.7549,-3.7602,-3.7399,-3.5811,-3.6521,-3.6999,-3.5902,-3.7009,-3.812,-3.8335,-3.8068,-3.8096,-3.8783,-3.8535,-3.8351,-3.8439,-3.8124,-3.8181,-3.8843,-3.9148,-3.9272,-3.9272,-3.9272,-3.9272,-3.9272,-3.9272,-3.9272,-3.9272,-3.9272,-3.9272,-3.9272,-3.9272,-3.9272,-3.9272,-3.9272,-3.9272,-3.9325,-3.9504,-3.9408,-3.9107,-3.9345,-3.9668,-4.011,-4.0502,-4.1086,-4.1805,-4.2162,-4.2073,-4.1805,-4.2162,-4.2055,-4.1823,-4.218,-4.1984,-4.1627,-4.1627,-4.1056,-4.0342,-3.9932,-3.986,-3.9896,-3.9843,-4.0449,-4.1074,-4.0985,-4.1306,-4.1502,-4.1056,-4.0949,-4.0989,-4.1127,-4.0955,-4.1086,-4.1897,-4.1663,-4.1556,-4.2213,-4.0926,-3.9858,-3.968,-3.881,-3.8186,-3.8186,-3.8415,-3.8242,-3.7418,-3.6985,-3.6512,-3.5809,-3.488,-3.4449,-3.4681,-3.416,-3.3921,-3.4023,-3.3921,-3.3815,-3.3726,-3.3643,-3.3473,-3.319,-3.3037,-3.2719,-3.5492,-3.534,-3.4962,-3.5718,-3.6179,-3.6429,-3.644,-3.7173,-3.7408,-3.6017,-3.5897,-3.5722,-3.476,-3.589,-3.6717,-3.5937,-3.6844,-3.7836,-3.8419,-3.7918,-3.7694,-3.8132,-3.8108,-3.7879,-3.7429,-3.7429,-3.7605,-3.8108,-3.8898,-3.9272,-3.9272,-3.9272,-3.9272,-3.9272,-3.9272,-3.9272,-3.9272,-3.9272,-3.9272,-3.9272,-3.9272,-3.9272,-3.9272,-3.9272,-3.9272,-3.9325,-3.9731,-3.9547,-3.8973,-3.9371,-3.9448,-3.9403,-4.0024,-4.0548,-4.1038,-4.1716,-4.1538,-4.1056,-4.1859,-4.1609,-4.1092,-4.1984,-4.2216,-4.2126,-4.2126,-4.1573,-4.0949,-4.0949,-4.0521,-4.0235,-4.0913,-4.1181,-4.1431,-4.2126,-4.2287,-4.2287,-4.2287,-4.2328,-4.2432,-4.2711,-4.245,-4.2393,-4.3087,-4.3214,-4.3196,-4.3232,-4.1971,-4.1037,-4.1071,-3.9538,-3.8446,-3.8446,-3.8683,-3.8538,-3.7771,-3.6934,-3.6204,-3.5683,-3.4585,-3.4023,-3.4197,-3.4197,-3.4197,-3.4197,-3.4197,-3.4124,-3.3947,-3.378,-3.3559,-3.3262,-3.2912,-3.2588,-3.4091,-3.424,-3.4117,-3.4338,-3.4439,-3.4426,-3.4146,-3.4778,-3.5071,-3.3846,-3.4413,-3.4977,-3.4506,-3.5417,-3.6549,-3.733,-3.8115,-3.8656,-3.8871,-3.871,-3.8329,-3.7806,-3.731,-3.7071,-3.737,-3.7429,-3.7429,-3.7546,-3.8623,-3.9272,-3.9272,-3.9272,-3.9272,-3.9272,-3.9272,-3.9272,-3.9272,-3.9272,-3.9272,-3.9272,-3.9272,-3.9272,-3.9272,-3.9272,-3.9272,-3.9325,-3.9362,-3.956,-3.9766,-3.9189,-3.9422,-4.0147,-3.9638,-3.9693,-4.0146,-4.0271,-4.0235,-4.0235,-4.1038,-4.0788,-4.036,-4.1805,-4.1841,-4.1306,-4.1306,-4.0753,-4.0128,-4.0128,-4.0503,-4.0931,-4.1056,-4.1591,-4.2126,-4.2251,-4.2287,-4.2287,-4.2287,-4.2454,-4.2711,-4.3032,-4.3051,-4.3032,-4.3178,-4.3214,-4.3268,-4.3495,-4.272,-4.2212,-4.2421,-4.0283,-3.8713,-3.8713,-3.8902,-3.899,-3.8841,-3.7487,-3.6604,-3.65,-3.5027,-3.4173,-3.4197,-3.4197,-3.4197,-3.4197,-3.4197,-3.4173,-3.4148,-3.4124,-3.3998,-3.3788,-3.3559,-3.316,-3.3813,-3.3931,-3.3906,-3.3931,-3.416,-3.4202,-3.3577,-3.3978,-3.4266,-3.3458,-3.3635,-3.3945,-3.3965,-3.4592,-3.5311,-3.5982,-3.6714,-3.7369,-3.765,-3.7737,-3.7536,-3.7024,-3.6723,-3.6492,-3.643,-3.6445,-3.6554,-3.6845,-3.7429,-3.8084,-3.8717,-3.9094,-3.9272,-3.9272,-3.9272,-3.9272,-3.9272,-3.8907,-3.8725,-3.8709,-3.8328,-3.8344,-3.8725,-3.8725,-3.9066,-3.9679,-3.9935,-4.0146,-4.021,-4.0058,-3.9816,-3.9562,-3.958,-3.9469,-3.9379,-3.9771,-3.9664,-3.945,-4.0217,-4.0235,-4.011,-4.1288,-4.1413,-4.1092,-4.1092,-4.1127,-4.1145,-4.1145,-4.1431,-4.1716,-4.1716,-4.2002,-4.2287,-4.2287,-4.2287,-4.2287,-4.2287,-4.267,-4.2995,-4.316,-4.3444,-4.3597,-4.3597,-4.3597,-4.3664,-4.3795,-4.3111,-4.2656,-4.2797,-4.1315,-4.0108,-3.9682,-3.9323,-3.8934,-3.8507,-3.7764,-3.6965,-3.6129,-3.5312,-3.4661,-3.4216,-3.4197,-3.4197,-3.4197,-3.4197,-3.4197,-3.4197,-3.4074,-3.3947,-3.3913,-3.3737,-3.3534,-3.3698,-3.3817,-3.3945,-3.3972,-3.4272,-3.4395,-3.3611,-3.3755,-3.3855,-3.3231,-3.2939,-3.2909,-3.3294,-3.3524,-3.3868,-3.4337,-3.4991,-3.5646,-3.6275,-3.6451,-3.6463,-3.626,-3.6243,-3.607,-3.5569,-3.5619,-3.5861,-3.6196,-3.6492,-3.7131,-3.8222,-3.8952,-3.9272,-3.9272,-3.9272,-3.9272,-3.9272,-3.8725,-3.8361,-3.8212,-3.7781,-3.7833,-3.8334,-3.8334,-3.8925,-3.9898,-4.0182,-4.0249,-4.0172,-4.0347,-3.98,-3.8843,-3.9254,-3.9058,-3.8611,-3.92,-3.904,-3.8683,-3.9593,-3.9807,-3.9825,-4.0788,-4.1217,-4.1359,-4.1359,-4.1787,-4.2287,-4.2287,-4.2287,-4.2287,-4.2287,-4.2287,-4.2287,-4.2287,-4.2351,-4.2391,-4.2472,-4.292,-4.3304,-4.3375,-4.3697,-4.4005,-4.4005,-4.4005,-4.4005,-4.4005,-4.3466,-4.3058,-4.3058,-4.2352,-4.1609,-4.0977,-4.0141,-3.9305,-3.8488,-3.8265,-3.7541,-3.6092,-3.5683,-3.5182,-3.4494,-3.429,-3.4197,-3.4197,-3.4197,-3.4197,-3.4197,-3.3998,-3.3895,-3.3939,-3.3885,-3.3857,-3.3252,-3.3562,-3.4103,-3.415,-3.4203,-3.4092,-3.3599,-3.353,-3.3248,-3.2102,-3.2064,-3.2297,-3.2468,-3.2261,-3.2552,-3.423,-3.4429,-3.4724,-3.5812,-3.5823,-3.5723,-3.5776,-3.5752,-3.5703,-3.5504,-3.6022,-3.6133,-3.5619,-3.6662,-3.7589,-3.8278,-3.8952,-3.9272,-3.9272,-3.9272,-3.9272,-3.9272,-3.9206,-3.8858,-3.8228,-3.8808,-3.9039,-3.8837,-3.8788,-3.9084,-3.9576,-3.8917,-3.8885,-3.9245,-3.8567,-3.8475,-3.8736,-3.8058,-3.7755,-3.7702,-3.7773,-3.7755,-3.7916,-3.9397,-3.9468,-3.9147,-4.0628,-4.1591,-4.218,-4.218,-4.2234,-4.2287,-4.2287,-4.2287,-4.2287,-4.2287,-4.2287,-4.2287,-4.2287,-4.2494,-4.275,-4.305,-4.3356,-4.3631,-4.386,-4.3974,-4.4005,-4.4005,-4.4005,-4.4005,-4.4005,-4.3949,-4.3893,-4.3893,-4.3188,-4.2649,-4.2593,-4.185,-4.1033,-4.0234,-3.9435,-3.8599,-3.7726,-3.6296,-3.5442,-3.5367,-3.4606,-3.4197,-3.4197,-3.4197,-3.4197,-3.4197,-3.4173,-3.4148,-3.4092,-3.4248,-3.4231,-3.3193,-3.3653,-3.4051,-3.4358,-3.3882,-3.3334,-3.3115,-3.275,-3.2345,-3.2064,-3.1743,-3.1635,-3.1884,-3.1408,-3.1302,-3.2194,-3.2396,-3.2753,-3.3684,-3.3847,-3.4158,-3.4886,-3.4988,-3.509,-3.5459,-3.5748,-3.5567,-3.4985,-3.6102,-3.6911,-3.7141,-3.8488,-3.9073,-3.8642,-3.8642,-3.8642,-3.8642,-3.8195,-3.7831,-3.7549,-3.7384,-3.7419,-3.7567,-3.7567,-3.8225,-3.9356,-3.8999,-3.9157,-3.9603,-3.9284,-3.9029,-3.8772,-3.8451,-3.8023,-3.7577,-3.7577,-3.7577,-3.7684,-3.829,-3.8933,-3.9575,-4.0182,-4.1252,-4.2198,-4.1716,-4.1912,-4.2287,-4.2287,-4.2432,-4.2534,-4.2534,-4.2691,-4.2824,-4.2824,-4.292,-4.305,-4.316,-4.3391,-4.3612,-4.373,-4.3892,-4.4005,-4.4005,-4.4005,-4.4005,-4.4005,-4.4005,-4.4005,-4.4005,-4.3726,-4.3522,-4.3522,-4.1943,-4.0736,-4.042,-3.9602,-3.8767,-3.7949,-3.7299,-3.6723,-3.624,-3.5887,-3.5479,-3.4977,-3.541,-3.5403,-3.4921,-3.4807,-3.4781,-3.4818,-3.455,-3.4582,-3.2788,-3.3613,-3.4318,-3.4666,-3.396,-3.3124,-3.3007,-3.2402,-3.1803,-3.1729,-3.1479,-3.124,-3.1281,-3.0731,-3.0385,0.0,-3.0799,-3.1196,-3.2041,-3.257,-3.3291,-3.4385,-3.4666,-3.4966,-3.5459,-3.5325,-3.5135,-3.5087,-3.5867,-3.6537,-3.6972,-3.8259,-3.8725,-3.8228,-3.8212,-3.8112,-3.7897,-3.7367,-3.7003,-3.6771,-3.6604,-3.6642,-3.6916,-3.7052,-3.7811,-3.9065,-3.8818,-3.8929,-3.9218,-3.9218,-3.8915,-3.8451,-3.8451,-3.8094,-3.7577,-3.7577,-3.7577,-3.7612,-3.7862,-3.8665,-3.9664,-4.011,-4.102,-4.1877,-4.1538,-4.1841,-4.2287,-4.2287,-4.2494,-4.2711,-4.2711,-4.2957,-4.3214,-4.3214,-4.3268,-4.3339,-4.3339,-4.3529,-4.373,-4.373,-4.386,-4.4005,-4.4005,-4.4005,-4.4005,-4.4005,-4.4005,-4.4005,-4.4005,-4.4005,-4.4005,-4.4005,-4.2259,-4.0996,-4.0773,-4.0178,-3.938,-3.8321,-3.8024,-3.7652,-3.7076,-3.6816,-3.6426,-3.5869,-3.6348,-3.6313,-3.574,-3.5596,-3.5542,-3.5625,-3.5362,-3.5415,-3.1938,-3.3365,-3.5105,-3.5105,-3.4519,-3.3871,-3.3464,-3.2763,-3.1873,-3.0759,-3.1106,-3.1388,-3.0659,-3.013,-2.9826,-2.999,-3.0006,-3.0367,-3.1354,-3.2558,-3.3587,-3.437,-3.5085,-3.5489,-3.5504,-3.4891,-3.5057,-3.6306,-3.6369,-3.6972,-3.823,-3.8241,-3.8228,-3.8212,-3.8212,-3.7864,-3.7119,-3.7102,-3.6738,-3.6025,-3.7196,-3.7631,-3.7413,-3.7795,-3.8311,-3.8772,-3.7951,-3.7612,-3.7612,-3.7612,-3.7612,-3.7594,-3.7594,-3.7594,-3.7577,-3.7577,-3.7577,-3.7702,-3.8522,-3.8808,-3.9075,-4.0592,-4.1092,-4.1252,-4.2037,-4.2287,-4.2287,-4.2287,-4.2494,-4.2711,-4.2711,-4.2957,-4.3214,-4.3214,-4.3391,-4.3597,-4.3597,-4.3795,-4.4005,-4.4005,-4.4005,-4.4005,-4.4005,-4.4005,-4.4005,-4.4005,-4.4005,-4.4005,-4.4005,-4.4005,-4.4005,-4.4005,-4.3262,-4.2445,-4.1664,-4.1571,-4.0847,-3.9194,-3.8339,-3.7894,-3.7894,-3.7113,-3.6686,-3.6686,-3.6626,-3.6591,-3.6572,-3.6518,-3.6436,-3.6417,-3.6809,-3.6948,-3.079,-3.2193,-3.354,-3.3837,-3.3152,-3.232,-3.2209,-3.1583,-3.0958,-3.0559,-3.0789,-3.0831,-3.0158,-3.036,-3.0543,-3.0235,-3.099,-3.1743,-3.2107,-3.2886,-3.3683,-3.4445,-3.5085,-3.5325,-3.4846,-3.4203,-3.3756,-3.3744,-3.4483,-3.5165,-3.5537,-3.6787,-3.7466,-3.7466,-3.697,-3.6589,-3.6357,-3.6357,-3.6241,-3.6009,-3.6723,-3.6865,-3.6594,-3.705,-3.7538,-3.7969,-3.7702,-3.7577,-3.7577,-3.7577,-3.7577,-3.7577,-3.7577,-3.7577,-3.7577,-3.7577,-3.7577,-3.763,-3.788,-3.8344,-3.8879,-3.9379,-3.9878,-4.0363,-4.0807,-4.1196,-4.1524,-4.1761,-4.1993,-4.2377,-4.3103,-4.3511,-4.373,-4.373,-4.3795,-4.386,-4.386,-4.3923,-4.4005,-4.4005,-4.4005,-4.4005,-4.4005,-4.4005,-4.4005,-4.4005,-4.4005,-4.4005,-4.4005,-4.4005,-4.4005,-4.4005,-4.3763,-4.328,-4.2482,-4.1924,-4.1367,-4.0828,-4.0568,-4.0178,-3.9621,-3.9361,-3.8692,-3.7541,-3.7942,-3.7904,-3.735,-3.7256,-3.6875,-3.6332,-3.6461,-3.6506,-2.9398,-3.0522,-3.1597,-3.2392,-3.1621,-3.0777,-3.101,-3.0505,-2.9984,-2.9984,-3.0061,-3.0076,-2.9884,-3.0148,-3.0348,-3.032,-3.106,-3.1743,-3.2107,-3.2916,-3.3829,-3.4756,-3.525,-3.5235,-3.4547,-3.4105,-3.3757,-3.3566,-3.4235,-3.4798,-3.5352,-3.6202,-3.6688,-3.6688,-3.6241,-3.5876,-3.5595,-3.5578,-3.5578,-3.5578,-3.6253,-3.6429,-3.6215,-3.686,-3.7319,-3.7577,-3.7577,-3.7577,0.0,-3.7577,-3.7577,-3.7577,-3.7577,-3.7577,-3.7577,-3.7577,-3.7577,-3.7577,-3.7577,-3.7916,-3.8397,-3.8701,-3.9383,-4.0034,-3.9932,-4.0382,-4.1047,-4.1578,-4.1939,-4.2292,-4.2975,-4.3573,-4.3912,-4.3615,-4.3782,-4.4005,-4.4005,-4.4005,-4.4005,-4.4005,-4.4005,-4.4005,-4.4005,-4.4005,-4.4005,-4.4005,-4.4005,-4.4005,-4.4005,-4.4005,-4.4005,-4.4005,-4.4005,-4.3801,-4.3299,-4.2519,-4.1924,-4.1609,-4.1579,-4.1208,-4.0344,-4.0306,-3.9647,-3.8294,-3.8662,-3.8623,-3.8124,-3.7996,-3.7698,-3.7191,-3.689,-3.6756,0.0,-2.8595,-2.9496,-3.0672,-3.0054,-2.9293,-2.9943,-2.9595,0.0,-2.9074,-2.9121,-2.9312,-2.9911,-2.9676,-2.9618,-3.0293,-3.0582,-3.0941,-3.1584,-3.2811,-3.4083,-3.5295,-3.5429,-3.5145,-3.4412,-3.4273,-3.4434,-3.503,-3.5027,-3.5554,-3.6802,-3.6191,-3.5843,-3.5843,-3.5794,-3.5479,-3.4899,-3.4899,-3.4899,-3.493,-3.5854,-3.6266,-3.6256,-3.7206,-3.7577,-3.7577,-3.7523,-3.7487,-3.7487,-3.7434,-3.7416,-3.7416,-3.747,-3.7487,-3.7505,-3.7559,-3.7577,-3.7577,-3.7577,-3.7577,-3.7702,-3.8469,-3.9352,-4.0041,-3.9337,-3.982,-4.0775,-4.1593,-4.2038,-4.2327,-4.2456,-4.3241,-4.3819,-4.3058,-4.3466,-4.4005,-4.4005,-4.4005,-4.4005,-4.4005,-4.4005,-4.4005,-4.4005,-4.4005,-4.4005,-4.4005,-4.4005,-4.4005,-4.4005,-4.4005,-4.4005,-4.4005,-4.4005,-4.4005,-4.4005,-4.3318,-4.2556,-4.1813,-4.1705,-4.1285,-4.0404,-4.0251,-3.9815,-3.9003,-3.887,-3.8792,-3.8792,-3.8719,-3.8707,-3.8676,-3.7967,-3.7631,-2.6909,0.0,-2.8453,-2.8724,-2.8566,-2.8519,0.0,0.0,0.0,0.0,0.0,-2.9453,-3.0134,-3.022,-3.0433,-3.111,-3.2092,-3.2841,-3.3006,-3.4188,-3.4951,-3.4741,-3.4726,-3.4262,-3.308,-3.2931,-3.2968,-3.3058,-3.3439,-3.4002,-3.4738,-3.451,-3.4319,-3.4319,-3.3756,-3.3922,-3.4883,-3.4899,-3.5071,-3.5453,-3.5994,-3.6399,-3.6781,-3.7337,-3.7577,-3.7559,-3.6934,-3.6684,-3.6631,-3.6024,-3.5774,-3.5828,-3.6435,-3.6684,-3.6756,-3.7362,-3.7577,-3.7577,-3.7577,-3.7577,-3.7612,-3.7809,-3.8329,-3.8813,-3.8631,-3.9155,-3.9972,-4.0826,-4.1247,-4.1788,-4.299,-4.3647,-4.3949,-4.3763,-4.3856,-4.4005,-4.4005,-4.4005,-4.4005,-4.4005,-4.4005,-4.4005,-4.4005,-4.4005,-4.4005,-4.4005,-4.4005,-4.4005,-4.4005,-4.4005,-4.4005,-4.4005,-4.4005,-4.3974,-4.3929,-4.3806,-4.3621,-4.3373,-4.3341,-4.2921,-4.1994,-4.1348,-4.0628,-3.9834,-3.9165,-3.8762,-3.8719,-3.8707,-3.8707,-3.8707,-3.8819,-3.8885,-2.6587,-2.6777,-2.7087,-2.772,-2.7643,-2.7581,-2.8276,0.0,0.0,0.0,0.0,-2.8794,-2.9796,-3.0277,-3.0836,-3.1824,-3.2841,-3.3604,-3.3903,-3.4577,-3.5011,-3.4966,-3.4397,-3.3739,-3.3036,-3.2862,-3.2644,-3.2291,-3.2695,-3.3113,-3.345,-3.3354,-3.3292,-3.3292,-3.2895,-3.3061,-3.3872,-3.4451,-3.4645,-3.4556,-3.5501,-3.5946,-3.5864,-3.6309,-3.6488,-3.647,-3.6042,-3.606,-3.6328,-3.5543,-3.5435,-3.5757,-3.5828,-3.6078,-3.6453,-3.6881,-3.7273,-3.7577,-3.7577,-3.7577,-3.7577,-3.7577,-3.7949,-3.8382,-3.8382,-3.8834,-3.9577,-4.0822,-4.128,-4.1669,-4.2926,-4.3614,-4.3912,-4.354,-4.3726,-4.4005,-4.4005,-4.4005,-4.4005,-4.4005,-4.4005,-4.4005,-4.4005,-4.4005,-4.4005,-4.4005,-4.4005,-4.4005,-4.4005,-4.4005,-4.4005,-4.4005,-4.3974,-4.3961,-4.3897,-4.3564,-4.3508,-4.3832,-4.3449,-4.2825,-4.1949,-4.1106,-4.0296,-3.9455,-3.8983,-3.875,-3.8707,-3.8707,-3.8707,-3.8707,-3.8722,-3.8969,-2.6318,-2.6033,-2.6033,-2.7141,-2.7006,-2.6767,-2.7475,0.0,0.0,0.0,0.0,-2.8143,-2.9475,-3.0148,-3.0941,-3.2287,-3.3066,-3.3769,-3.4517,-3.4637,-3.4771,-3.516,-3.4188,-3.3441,-3.3186,-3.2946,-3.2615,-3.2127,-3.2413,-3.259,-3.2696,-3.258,-3.2531,-3.2531,-3.2415,-3.2392,-3.248,-3.3708,-3.4024,-3.3505,-3.4905,-3.5249,-3.4708,-3.503,-3.5204,-3.5204,-3.5096,-3.5418,-3.5989,-3.5186,-3.5257,-3.581,-3.5382,-3.5632,-3.6256,-3.6488,-3.6934,-3.7398,-3.7398,-3.7506,-3.7649,-3.7649,-3.8018,-3.8446,-3.8446,-3.8829,-3.9621,-4.1163,-4.159,-4.1813,-4.2742,-4.3485,-4.3838,-4.315,-4.3503,-4.4005,-4.4005,-4.4005,-4.4005,-4.4005,-4.4005,-4.4005,-4.4005,-4.4005,-4.4005,-4.4005,-4.4005,-4.3974,-4.3974,-4.3974,-4.3974,-4.3974,-4.3929,-4.3841,-4.3698,-4.2987,-4.2807,-4.3365,-4.2765,-4.2032,-4.1209,-4.0464,-3.9698,-3.8909,-3.9001,-3.9074,-3.9074,-3.8946,-3.8891,-3.8872,-3.8532,-3.8746,-2.5076,-2.5674,-2.6497,-2.6692,-2.6662,-2.6767,-2.7475,-2.7625,0.0,0.0,-2.8038,-2.8831,-3.0133,-3.0432,-3.0941,-3.2287,-3.3066,-3.3933,-3.5175,-3.5355,-3.4966,-3.3918,-3.3619,-3.3006,-3.1738,-3.1589,-3.1701,-3.1903,-3.1996,-3.221,-3.2696,-3.2116,-3.1785,-3.1785,-3.1172,-3.1008,-3.1341,-3.279,-3.3789,-3.4411,-3.4646,-3.4905,-3.51,-3.5169,-3.5204,-3.5186,-3.4543,-3.4347,-3.4401,-3.358,-3.3312,-3.3544,-3.474,-3.5293,-3.556,-3.6899,-3.7059,-3.6577,-3.6577,-3.7183,-3.7949,-3.7949,-3.8285,-3.8743,-3.8743,-3.942,-4.0401,-4.133,-4.159,-4.1943,-4.3429,-4.3912,-4.3968,-4.3856,-4.3912,-4.4005,-4.4005,-4.4005,-4.4005,-4.4005,-4.4005,-4.4005,-4.4005,-4.4005,-4.4005,-4.4005,-4.3942,-4.3929,-4.3929,-4.3929,-4.3897,-4.3837,-4.3883,-4.3587,-4.277,-4.2539,-4.2193,-4.1641,-4.2087,-4.2018,-4.113,-4.1001,-4.0543,-3.9717,-4.0396,-4.0744,-4.0744,-4.0047,-3.9717,-3.9698,-3.9635,-3.9722,-2.4389,-2.4999,-2.5751,-2.6155,-2.6708,-2.72,-2.755,-2.7859,-2.8128,-2.8128,-2.8667,-2.9415,-3.0328,-3.1091,-3.2153,-3.3858,-3.4068,-3.4247,-3.4861,-3.4337,-3.3784,-3.3529,-3.2542,-3.189,-3.1857,-3.1099,-3.0809,-3.1288,-3.1189,-3.1243,-3.152,-3.1205,-3.1023,-3.1023,-3.0692,-3.0821,-3.1414,-3.2098,-3.2766,-3.3371,-3.4023,-3.4214,-3.3955,-3.3955,-3.3955,-3.3937,-3.3598,-3.3705,-3.4044,-3.3223,-3.3152,-3.358,-3.3847,-3.4222,-3.474,-3.5882,-3.6078,-3.581,-3.6256,-3.6737,-3.7253,-3.7805,-3.8252,-3.8621,-3.8762,-3.9542,-4.0476,-4.0847,-4.1571,-4.2519,-4.3708,-4.4005,-4.4005,-4.4005,-4.4005,-4.4005,-4.4005,-4.4005,-4.4005,-4.4005,-4.4005,-4.4005,-4.4005,-4.4005,-4.3974,-4.3942,-4.3929,-4.3883,-4.3851,-4.3869,-4.3818,-4.3804,-4.3767,-4.3402,-4.2521,-4.2368,-4.2004,-4.1213,-4.1084,-4.085,-4.0469,-4.0029,-3.9643,-3.9258,-3.9625,-3.9808,-3.9808,-3.9441,-3.927,-3.9301,-3.9301,-3.9583,-2.3481,-2.3955,-2.4577,-2.491,-2.6223,-2.738,-2.758,-2.8113,-2.8637,-2.8801,-2.934,-2.9998,-3.0627,-3.1584,-3.2781,-3.4322,-3.4262,-3.4068,-3.4218,-3.3245,-3.2647,-3.2991,-3.1655,-3.0955,-3.1682,-3.082,-3.0336,-3.0709,-3.0613,-3.0526,-3.0526,-3.0526,-3.0526,-3.0526,-3.0593,-3.0965,-3.1677,-3.1787,-3.2056,-3.2472,-3.3377,-3.3491,-3.2916,-3.2916,-3.2916,-3.2916,-3.2916,-3.3241,-3.3776,-3.3134,-3.3241,-3.3776,-3.3348,-3.3651,-3.4418,-3.4811,-3.5061,-3.5275,-3.5703,-3.6131,-3.6629,-3.7548,-3.8122,-3.8541,-3.8803,-3.96,-4.0401,-4.0401,-4.1553,-4.2946,-4.3559,-4.3856,-4.4005,-4.4005,-4.4005,-4.4005,-4.4005,-4.4005,-4.4005,-4.4005,-4.4005,-4.4005,-4.4005,-4.3974,-4.3942,-4.3897,-4.3865,-4.38,-4.3753,-4.3753,-4.3771,-4.3719,-4.3634,-4.3177,-4.2184,-4.1893,-4.1479,-4.0873,-4.0281,-3.9932,-3.99,-3.9326,-3.8982,-3.8982,-3.9166,-3.9258,-3.9289,-3.9105,-3.9026,-3.9098,-3.8895,-3.9195,-2.1685,-2.2315,-2.3082,-2.2513,-2.4553,-2.6811,-2.749,-2.8113,-2.8771,-2.9385,-2.9998,-3.0657,-3.133,-3.1482,-3.1601,-3.1735,-3.2287,-3.2871,-3.3484,-3.2961,-3.2302,-3.1676,-3.142,-3.0979,-3.0256,-3.0511,-3.0677,-3.0516,-3.0501,-3.0526,-3.0526,-3.0526,-3.0526,-3.0526,-3.0861,-3.1261,-3.1694,-3.2056,-3.2454,-3.2852,-3.2938,-3.2969,-3.2916,-3.2916,-3.2916,-3.2916,-3.2916,-3.292,-3.2987,-3.2934,-3.292,-3.3045,-3.374,-3.4472,-3.5043,-3.4418,-3.4615,-3.5114,-3.449,-3.5372,-3.6826,-3.7139,-3.7937,-3.8803,-3.9017,-3.9714,-4.0401,-4.0401,-4.1553,-4.2816,-4.2872,-4.3448,-4.4005,-4.4005,-4.4005,-4.4005,-4.4005,-4.4005,-4.4005,-4.4005,-4.4005,-4.4005,-4.4005,-4.3961,-4.3915,-4.3897,-4.3734,-4.3615,-4.3634,-4.3615,-4.3582,-4.3532,-4.3548,-4.2956,-4.1332,-4.0551,-4.0092,-3.9974,-3.9982,-3.9945,-3.9882,-3.989,-3.9871,-3.9808,-4.0561,-4.096,-4.1038,-4.0252,-3.9946,-4.0,-3.9243,-3.8958,-2.1423,-2.2186,-2.3035,-2.2829,-2.4448,-2.6123,-2.6488,-2.7045,-2.7628,-2.8286,-2.9263,-3.0305,-3.1289,-3.1869,-3.2138,-3.2138,-3.2003,-3.1988,-3.2243,-3.136,-3.0597,-3.0357,-3.0183,-3.0041,-3.0005,-3.0108,-3.0277,-3.0501,-3.0526,-3.0526,-3.0526,-3.074,-3.0861,-3.0861,-3.1261,-3.1453,-3.1324,-3.1952,-3.2241,-3.2152,-3.2652,-3.2916,-3.2916,-3.2916,-3.2616,-3.217,-3.267,-3.263,-3.2188,-3.2702,-3.2916,-3.292,-3.3223,-3.3508,-3.374,-3.3455,-3.3526,-3.3794,-3.4026,-3.486,-3.5926,-3.6678,-3.7694,-3.859,-3.8833,-3.96,-4.0401,-4.0401,-4.1553,-4.2797,-4.2797,-4.3392,-4.4005,-4.4005,-4.4005,-4.4005,-4.4005,-4.4005,-4.4005,-4.4005,-4.3974,-4.3929,-4.3929,-4.3883,-4.3818,-4.3734,-4.3649,-4.3582,-4.3548,-4.3532,-4.3532,-4.3479,-4.3073,-4.2742,-4.2598,-4.1438,-4.0919,-4.1429,-4.0081,-3.9442,-3.9863,-3.9498,-3.9252,-3.9222,-3.9516,-3.9712,-3.9755,-3.9441,-3.9353,-3.9412,-3.9098,-3.9303,-2.141,-2.2069,-2.2853,-2.3119,0.0,-2.5286,-2.5785,-2.6379,-2.7158,-2.8353,-2.9486,-3.0321,-3.0529,-3.115,-3.1524,-3.1315,-3.1076,-3.0911,-3.0911,-2.9968,-2.9319,-2.9463,-2.9357,-2.9309,-2.9577,-2.9641,-2.973,-2.9823,-2.9847,-2.9847,-2.9847,-3.0095,-3.0292,-3.0391,-3.0805,-3.0942,-3.074,-3.1663,-3.1951,-3.1706,-3.2509,-3.2916,-3.2916,-3.2916,-3.2612,-3.2099,-3.2652,-3.2581,-3.2117,-3.2652,-3.2916,-3.2916,-3.2916,-3.2916,-3.2916,-3.2916,-3.2916,-3.2987,-3.3526,-3.4365,-3.5327,-3.6167,-3.725,-3.835,-3.8683,-3.9298,-3.9907,-3.9974,-4.1163,-4.2407,-4.2407,-4.3206,-4.4005,-4.4005,-4.4005,-4.4005,-4.3974,-4.3974,-4.3942,-4.3961,-4.3897,-4.3883,-4.3883,-4.3786,-4.3719,-4.3615,-4.3582,-4.3548,-4.3532,-4.3497,-4.3497,-4.3497,-4.3002,-4.28,-4.3094,-4.2136,-4.1673,-4.1981,-4.0259,-3.9448,-3.9939,-3.9485,-3.911,-3.8851,-3.8822,-3.8862,-3.8921,-3.8921,-3.895,-3.9036,-3.9036,-3.9379,-2.1479,-2.167,-2.2283,-2.2949,-2.3597,-2.4332,-2.5597,-2.6379,-2.7484,-2.9985,-3.0974,-3.0854,-2.8966,-2.9146,-2.937,-2.8712,-2.9146,-2.9564,-2.9564,-2.9011,-2.877,-2.9235,-2.917,-2.8971,-2.8731,-2.91,-2.9118,-2.8461,-2.8412,-2.8412,-2.8412,-2.8428,-2.8565,-2.8921,-2.9298,-2.9676,-2.9986,-3.1124,-3.1671,-3.1689,-3.2474,-3.2898,-3.2898,-3.2898,-3.2898,-3.288,-3.288,-3.2898,-3.2898,-3.2898,-3.2916,-3.2916,-3.2916,-3.2902,-3.2902,-3.2934,-3.2934,-3.2902,-3.2934,-3.3919,-3.5238,-3.5537,-3.6684,-3.8086,-3.8621,-3.8792,-3.8833,-3.9064,-4.0308,-4.159,-4.1609,-4.2797,-4.3986,-4.4005,-4.4005,-4.3974,-4.3897,-4.3897,-4.3883,-4.3804,-4.3804,-4.3804,-4.3804,-4.3686,-4.3582,-4.3582,-4.3548,-4.3497,-4.3497,-4.3497,-4.3497,-4.3497,-4.3497,-4.3167,-4.2378,-4.2386,-4.2036,-4.1167,-4.0542,-4.017,-4.0092,-4.0152,-3.9764,-3.8929,-3.891,-3.8921,-3.8979,-3.8979,-3.9036,-3.9101,-3.9101,-3.9101,-2.258,-2.3041,-2.3264,-2.3511,-2.4382,-2.5301,-2.5655,-2.565,-2.5965,-2.7597,-2.839,-2.8763,-2.8644,-2.9146,-2.937,-2.8712,-2.8771,-2.8891,-2.8891,-2.8308,-2.7896,-2.7806,-2.8139,-2.824,-2.7946,-2.8401,-2.8605,-2.839,-2.8412,-2.8412,-2.8412,-2.8868,-2.9228,-2.9333,-2.9904,-3.0004,-2.958,-3.0416,-3.06,-3.0083,-3.085,-3.151,-3.2045,-3.2045,-3.1457,-3.0475,-3.0993,-3.1207,-3.1296,-3.242,-3.2916,-3.2969,-3.3508,-3.374,-3.3812,-3.4329,-3.4187,-3.383,-3.4347,-3.449,-3.4615,-3.5789,-3.6622,-3.7277,-3.8023,-3.8478,-3.8932,-3.9545,-4.023,-4.1014,-4.2106,-4.2724,-4.3225,-4.3799,-4.3897,-4.3851,-4.3818,-4.3837,-4.3818,-4.3804,-4.3719,-4.3667,-4.3667,-4.36,-4.3513,-4.3513,-4.3513,-4.3497,-4.3497,-4.3497,-4.3532,-4.3548,-4.3532,-4.3422,-4.3217,-4.3198,-4.2849,-4.2138,-4.1907,-4.1261,-4.0075,-3.9605,-3.9219,-3.8968,-3.895,-3.9007,-3.9073,-3.9073,-3.9073,-3.9101,-3.9101,-3.9435,-2.3274,-2.3768,-2.4116,-2.4451,-2.527,-2.6073,-2.6068,-2.6265,-2.6493,-2.6716,-2.7234,-2.7794,-2.8136,-2.8308,-2.8353,-2.8218,-2.8188,-2.8098,-2.7829,-2.7575,-2.7372,-2.7147,-2.7561,-2.7763,-2.7515,-2.7756,-2.7827,-2.7545,-2.7512,-2.7512,-2.7512,-2.808,-2.8459,-2.8592,-2.9119,-2.9254,-2.8941,-2.969,-2.9851,-2.9405,-3.0154,-3.06,-3.0796,-3.1082,-3.0725,-2.9869,-3.0315,-3.0511,-3.06,-3.1885,-3.2402,-3.2491,-3.3294,-3.383,-3.4151,-3.4615,-3.4686,-3.4561,-3.4722,-3.4668,-3.465,-3.5275,-3.6003,-3.6748,-3.7318,-3.7932,-3.8506,-3.9252,-3.9743,-4.0283,-4.1391,-4.2131,-4.2802,-4.3647,-4.3837,-4.3804,-4.3719,-4.3719,-4.3719,-4.3686,-4.36,-4.3548,-4.3548,-4.3532,-4.3497,-4.3497,-4.3497,-4.3497,-4.3497,-4.3497,-4.3532,-4.3548,-4.3566,-4.3548,-4.3582,-4.3634,-4.3351,-4.2535,-4.2297,-4.1539,-4.0136,-3.9737,-3.9388,-3.9036,-3.9036,-3.9045,-3.9101,-3.9101,-3.9101,-3.9101,-3.9101,-3.938,-2.3684,-2.4057,-2.4713,-2.5371,-2.6016,-2.653,-2.6732,-2.7676,-2.8166,-2.6957,-2.7159,-2.7535,-2.7535,-2.6991,-2.6767,-2.7355,-2.744,-2.7295,-2.6636,-2.6883,-2.7071,-2.6972,-2.7272,-2.7404,-2.721,-2.7218,-2.6899,-2.627,-2.622,-2.6203,-2.6239,-2.6572,-2.6891,-2.7244,-2.7582,-2.7893,-2.82,-2.8941,-2.9298,-2.9298,-2.9976,-2.994,-2.9333,-3.0065,-3.0368,-3.0297,-3.0368,-3.0404,-3.0475,-3.126,-3.1617,-3.1778,-3.2581,-3.3419,-3.4171,-3.426,-3.4706,-3.5153,-3.4565,-3.4741,-3.508,-3.444,-3.5223,-3.6434,-3.6674,-3.7198,-3.7792,-3.8378,-3.8935,-3.9502,-3.9933,-4.1088,-4.2433,-4.3439,-4.3716,-4.3719,-4.3634,-4.3582,-4.3582,-4.3513,-4.3497,-4.3497,-4.3497,-4.3497,-4.3497,-4.3497,-4.3497,-4.3497,-4.3497,-4.3497,-4.3479,-4.3532,-4.3548,-4.3615,-4.3634,-4.38,-4.3481,-4.2585,-4.2001,-4.1301,-4.0359,-4.0317,-3.99,-3.912,-3.9101,-3.9101,-3.9101,-3.9101,-3.9101,-3.9101,-3.9101,-3.9101,-2.45,-2.4742,-2.4916,-2.511,-2.5372,-2.5979,-2.714,-2.7629,-2.7586,-2.687,-2.6739,-2.6797,-2.6797,-2.6692,-2.6467,-2.6093,-2.6467,-2.6702,-2.6321,-2.6352,-2.6448,-2.659,-2.6671,-2.6649,-2.6465,-2.6452,-2.6369,-2.622,-2.622,-2.6293,-2.6572,-2.6923,-2.7244,-2.7582,-2.7922,-2.8126,-2.8182,-2.836,-2.8449,-2.8449,-2.861,-2.8592,-2.8467,-2.928,-2.9298,-2.8717,-2.9369,-2.9637,-2.969,-3.0457,-3.1135,-3.1778,-3.2581,-3.3657,-3.4783,-3.5438,-3.5648,-3.5731,-3.6189,-3.5754,-3.5031,-3.5329,-3.5754,-3.622,-3.6399,-3.6952,-3.7559,-3.7946,-3.8289,-3.8711,-3.9367,-4.002,-4.0859,-4.2298,-4.3106,-4.3566,-4.3532,-4.3513,-4.3532,-4.3479,-4.3497,-4.3497,-4.3497,-4.3497,-4.3497,-4.3497,-4.3497,-4.3497,-4.3497,-4.3497,-4.3513,-4.3582,-4.3582,-4.3634,-4.3753,-4.3804,-4.3486,-4.2717,-4.2545,-4.2094,-4.1319,-4.0067,-3.9287,-3.9101,-3.9101,-3.9101,-3.9101,-3.9101,-3.9101,-3.9101,-3.9101,-3.9101,-2.4999,-2.5228,-2.557,-2.5941,-2.5977,-2.6154,-2.725,-2.7524,-2.7434,-2.6804,-2.6377,-2.6213,-2.6527,-2.6078,-2.5644,-2.5615,-2.6057,-2.6275,-2.5814,-2.61,-2.6255,-2.605,-2.6216,-2.6344,-2.6217,-2.622,-2.6274,-2.6434,-2.6452,-2.6572,-2.6923,-2.7276,-2.7522,-2.7683,-2.8025,-2.8182,-2.8182,-2.8182,-2.8182,-2.8182,-2.8182,-2.8182,-2.82,-2.8637,-2.862,-2.8217,-2.8655,-2.8834,-2.8905,-2.9672,-3.038,-3.1102,-3.1884,-3.3029,-3.4323,-3.5134,-3.557,-3.5864,-3.6285,-3.5957,-3.5308,-3.5269,-3.5682,-3.622,-3.613,-3.6661,-3.7376,-3.7756,-3.7877,-3.8104,-3.886,-3.9507,-4.0165,-4.0946,-4.2066,-4.302,-4.3406,-4.3497,-4.3497,-4.3497,-4.3497,-4.3497,-4.3497,-4.3497,-4.3497,-4.3497,-4.3497,-4.3497,-4.3497,-4.3497,-4.3513,-4.3548,-4.3582,-4.3667,-4.3804,-4.3837,-4.3532,-4.2792,-4.2402,-4.2006,-4.1609,-4.0383,-3.99,-4.029,-3.9918,-3.99,-4.029,-3.99,-3.9714,-3.9714,-3.9714,-3.9491,-2.5301,-2.5599,-2.6155,-2.6968,-2.6745,-2.6485,-2.7202,-2.7488,-2.7425,-2.6822,-2.6153,-2.5734,-2.6168,-2.536,-2.4716,-2.5196,-2.5682,-2.5872,-2.5311,-2.5853,-2.616,-2.5659,-2.5954,-2.622,-2.622,-2.622,-2.6329,-2.6657,-2.6691,-2.6858,-2.7276,-2.7552,-2.773,-2.7789,-2.7911,-2.8039,-2.8182,-2.8039,-2.7986,-2.7986,-2.7986,-2.8084,-2.8182,-2.8182,-2.8182,-2.8182,-2.8182,-2.8182,-2.8235,-2.8923,-2.9538,-3.0168,-3.091,-3.2049,-3.3353,-3.4142,-3.4964,-3.5717,-3.5696,-3.5784,-3.5805,-3.4839,-3.5291,-3.6148,-3.5729,-3.6242,-3.7086,-3.7596,-3.7703,-3.7774,-3.8401,-3.9153,-3.9717,-3.9863,-4.091,-4.2139,-4.3075,-4.3387,-4.3497,-4.3497,-4.3497,-4.3497,-4.3497,-4.3497,-4.3497,-4.3497,-4.3497,-4.3497,-4.3497,-4.3497,-4.3497,-4.3497,-4.3548,-4.3634,-4.3771,-4.3851,-4.3619,-4.2996,-4.2229,-4.1783,-4.1783,-4.0903,-4.0773,-4.1571,-4.094,-4.0866,-4.1386,-4.0717,-4.0401,-4.0401,-4.0234,-3.9788,-2.5727,-2.577,-2.6003,-2.6828,-2.6557,-2.627,-2.7034,-2.7335,-2.7423,-2.7333,-2.6385,-2.5465,-2.4986,-2.4701,-2.4462,-2.3954,-2.4754,-2.5323,-2.4995,-2.5342,-2.5745,-2.6059,-2.6168,-2.622,-2.622,-2.622,-2.6329,-2.6657,-2.6691,-2.6971,-2.7612,-2.7672,-2.7818,-2.8126,-2.7487,-2.7496,-2.8182,-2.7513,-2.7157,-2.7157,-2.7157,-2.7531,-2.8182,-2.8182,-2.8182,-2.8182,-2.8182,-2.8182,-2.82,-2.8307,-2.8721,-2.9349,-3.0132,-3.1192,-3.2388,-3.3119,-3.4189,-3.5261,-3.5278,-3.5833,-3.6301,-3.4701,-3.4814,-3.5535,-3.5004,-3.5375,-3.6209,-3.7254,-3.7756,-3.8034,-3.8135,-3.8524,-3.9038,-3.9717,-4.0047,-4.0616,-4.2139,-4.3002,-4.3497,-4.3497,-4.3497,-4.3497,-4.3497,-4.3497,-4.3497,-4.3497,-4.3497,-4.3497,-4.3497,-4.3497,-4.3497,-4.3497,-4.3548,-4.3615,-4.3634,-4.3753,-4.3749,-4.367,-4.2958,-4.2545,-4.2545,-4.1171,-4.0773,-4.1571,-4.1479,-4.1144,-4.055,-4.0438,-4.0401,-4.0364,-3.9621,-3.9212,-2.5691,-2.6054,-2.6468,-2.6826,-2.6732,-2.6638,-2.7034,-2.7196,-2.7181,-2.6876,-2.6128,-2.5416,-2.5179,-2.4821,-2.4403,-2.3714,-2.4756,-2.5462,-2.4958,-2.546,-2.599,-2.6184,-2.622,-2.622,-2.622,-2.6364,-2.6607,-2.6956,-2.6736,-2.68,-2.7278,-2.688,-2.6703,-2.6845,-2.6514,-2.6496,-2.6853,-2.6496,-2.6336,-2.6336,-2.6336,-2.6514,-2.6871,-2.7335,-2.7781,-2.8182,-2.8182,-2.8449,-2.8841,-2.8738,-2.9066,-2.962,-2.9913,-3.0539,-3.1409,-3.2154,-3.3325,-3.4576,-3.4576,-3.5417,-3.6201,-3.4616,-3.4814,-3.557,-3.514,-3.536,-3.6048,-3.7182,-3.7614,-3.7879,-3.8336,-3.8564,-3.8799,-3.9148,-3.957,-4.0084,-4.0799,-4.1589,-4.2286,-4.2745,-4.2818,-4.2965,-4.3406,-4.3497,-4.3497,-4.3497,-4.3497,-4.3497,-4.3497,-4.3497,-4.3497,-4.3497,-4.3548,-4.3634,-4.3719,-4.3786,-4.3883,-4.3897,-4.2773,-4.2477,-4.3386,-4.1468,-4.0773,-4.1571,-4.1144,-4.0977,-4.107,-4.0606,-4.0401,-4.0383,-4.0011,-3.9565,-2.5662,-2.6271,-2.6779,-2.6779,-2.6899,-2.6951,-2.6951,-2.7041,-2.7049,-2.6627,-2.609,-2.5604,-2.5535,-2.4972,-2.4384,-2.3857,-2.4922,-2.5608,-2.5123,-2.5863,-2.6419,-2.6236,-2.622,-2.6173,-2.6027,-2.6084,-2.6279,-2.6688,-2.6388,-2.6355,-2.6693,-2.6139,-2.589,-2.6104,-2.5729,-2.5818,-2.6407,-2.6211,-2.6104,-2.6104,-2.5908,-2.5793,-2.5804,-2.6425,-2.7112,-2.7851,-2.811,-2.852,-2.9027,-2.8894,-2.9034,-2.9376,-2.9443,-2.9762,-3.0196,-3.0938,-3.2059,-3.3248,-3.3438,-3.4352,-3.5249,-3.4145,-3.438,-3.5007,-3.473,-3.5048,-3.5729,-3.6769,-3.7345,-3.7809,-3.8401,-3.8627,-3.8707,-3.8707,-3.9166,-3.9698,-4.012,-4.0689,-4.1295,-4.1882,-4.2158,-4.2488,-4.3075,-4.3351,-4.3497,-4.3497,-4.3497,-4.3497,-4.3497,-4.3497,-4.3532,-4.3513,-4.3548,-4.3667,-4.3804,-4.3818,-4.3865,-4.391,-4.2576,-4.2365,-4.3571,-4.1728,-4.0977,-4.159,-4.0996,-4.0903,-4.1293,-4.068,-4.0401,-4.0383,-4.016,-3.9844,-2.5778,-2.6271,-2.6779,-2.6779,-2.6779,-2.6779,-2.6779,-2.6884,-2.6989,-2.6959,-2.6636,-2.6183,-2.553,-2.4805,-2.4307,-2.4276,-2.4974,-2.5513,-2.5465,-2.6475,-2.6965,-2.6286,-2.622,-2.6027,-2.558,-2.492,-2.4756,-2.5335,-2.5372,-2.55,-2.5829,-2.5818,-2.6157,-2.6907,-2.5515,-2.5836,-2.8039,-2.7317,-2.6925,-2.6925,-2.6157,-2.5786,-2.5719,-2.5804,-2.6249,-2.6925,-2.7816,-2.8144,-2.8067,-2.8067,-2.7883,-2.7718,-2.8383,-2.8585,-2.861,-2.9351,-3.0144,-3.0972,-3.1679,-3.2421,-3.3059,-3.299,-3.299,-3.3062,-3.3024,-3.383,-3.4918,-3.5656,-3.6934,-3.8068,-3.8101,-3.8401,-3.8707,-3.8707,-3.8726,-3.9184,-4.0726,-4.1075,-4.113,-4.1167,-4.1791,-4.2304,-4.2359,-4.2983,-4.3497,-4.3497,-4.3497,-4.3497,-4.3497,-4.3497,-4.3513,-4.3582,-4.3582,-4.3667,-4.3804,-4.3667,-4.3615,-4.3615,-4.2871,-4.2493,-4.2585,-4.1908,-4.1553,-4.159,-4.1553,-4.1181,-4.0457,-4.042,-4.0401,-4.0364,-3.9547,-3.9584,-2.5067,-2.5647,-2.6242,-2.6678,-2.6779,-2.6779,-2.6779,-2.6846,-2.6899,-2.7003,-2.6817,-2.6474,-2.5876,-2.562,-2.5244,-2.4441,-2.5338,-2.5999,-2.5567,-2.6114,-2.6501,-2.6236,-2.5789,-2.5478,-2.5511,-2.5023,-2.489,-2.5285,-2.5059,-2.5159,-2.5783,-2.5354,-2.5229,-2.5515,-2.4998,-2.5105,-2.5961,-2.6139,-2.6229,-2.6229,-2.5841,-2.5417,-2.4966,-2.5879,-2.617,-2.5975,-2.73,-2.8176,-2.8718,-2.9018,-2.8823,-2.8345,-2.8932,-2.8883,-2.8489,-2.923,-3.0006,-3.08,-3.1541,-3.2283,-3.2817,-3.2352,-3.2507,-3.2904,-3.2904,-3.3554,-3.4526,-3.5528,-3.6717,-3.7756,-3.8034,-3.8401,-3.8707,-3.8707,-3.8707,-3.8872,-3.9441,-3.957,-3.9882,-4.091,-4.135,-4.1864,-4.2892,-4.3296,-4.3497,-4.3497,-4.3497,-4.3497,-4.3497,-4.3497,-4.3532,-4.3513,-4.3582,-4.3615,-4.3667,-4.3719,-4.3719,-4.3719,-4.2959,-4.2738,-4.3324,-4.2162,-4.176,-4.2279,-4.1839,-4.12,-4.0401,-4.0401,-4.0104,-3.9565,-3.9807,-4.0085,-2.4612,-2.5299,-2.5937,-2.662,-2.6779,-2.6779,-2.6779,-2.6922,-2.7063,-2.7181,-2.725,-2.7145,-2.6321,-2.6361,-2.6174,-2.4898,-2.567,-2.6254,-2.5803,-2.6241,-2.6485,-2.6236,-2.5878,-2.5547,-2.53,-2.4901,-2.4704,-2.4707,-2.4449,-2.4516,-2.5015,-2.4569,-2.4427,-2.4694,-2.4944,-2.5069,-2.5069,-2.5786,-2.5992,-2.5743,-2.5871,-2.5368,-2.439,-2.5349,-2.5637,-2.5372,-2.6405,-2.7496,-2.8604,-2.9176,-2.8925,-2.8285,-2.89,-2.8678,-2.8092,-2.8575,-2.9265,-2.9989,-3.0489,-3.1317,-3.2076,-3.1593,-3.1921,-3.2524,-3.2524,-3.3266,-3.4259,-3.5,-3.6242,-3.7395,-3.7791,-3.8285,-3.8707,-3.8707,-3.8707,-3.8707,-3.8707,-3.8909,-3.9423,-4.0487,-4.0928,-4.1534,-4.2873,-4.2873,-4.2873,-4.3406,-4.3259,-4.3185,-4.3461,-4.3497,-4.3532,-4.3513,-4.3582,-4.3615,-4.3667,-4.3719,-4.3719,-4.3719,-4.3185,-4.3129,-4.3701,-4.2783,-4.2501,-4.3037,-4.2582,-4.1927,-4.1093,-4.0892,-4.0494,-3.9955,-4.0531,-4.0791,0.0,0.0,0.0,-2.6591,-2.6779,-2.6779,-2.6832,-2.7152,-2.75,-2.7515,-2.8061,-2.8108,-2.6774,-2.6961,-2.6903,-2.5707,-2.5901,-2.622,-2.622,-2.6816,-2.7018,-2.6286,-2.6487,-2.6196,-2.4986,-2.453,-2.4123,-2.3618,-2.3565,-2.3565,-2.3565,-2.3547,-2.3891,-2.4676,-2.539,-2.5783,-2.58,-2.6428,-2.6393,-2.5641,-2.63,-2.5705,-2.4041,-2.4209,-2.4628,-2.5216,-2.524,-2.6092,-2.7531,-2.8282,-2.8132,-2.7402,-2.8144,-2.7971,-2.7333,-2.7333,-2.7782,-2.8403,-2.8454,-2.9455,-3.0696,-3.0713,-3.1214,-3.18,-3.18,-3.2852,-3.4059,-3.4076,-3.5431,-3.6981,-3.7414,-3.8101,-3.8676,-3.8707,-3.8707,-3.8707,-3.8726,-3.935,-3.99,-3.9918,-4.0598,-4.1405,-4.2194,-4.1699,-4.1699,-4.3259,-4.2837,-4.2616,-4.3387,-4.3497,-4.3513,-4.3582,-4.3582,-4.3667,-4.3771,-4.3667,-4.3582,-4.3582,-4.3582,-4.3582,-4.3582,-4.3719,-4.3804,-4.3804,-4.3804,-4.3398,-4.2535,-4.1927,-4.1627,-4.159,-4.1609,-4.1627,-2.4094,0.0,0.0,0.0,0.0,0.0,-2.724,-2.7429,-2.7615,-2.7997,-2.8543,-2.8511,-2.717,-2.7374,-2.7291,-2.5982,-2.5954,-2.6079,-2.6168,-2.6385,-2.6526,-2.6572,-2.6184,-2.5934,-2.6017,-2.5452,-2.5112,-2.5169,-2.5158,-2.5158,-2.5158,-2.4659,-2.448,-2.4694,-2.4908,-2.5216,-2.564,-2.5888,-2.6118,-2.63,-2.6405,-2.59,-2.4903,-2.5704,-2.6,-2.5875,-2.6196,-2.6399,-2.6619,-2.8485,-2.8781,-2.8161,-2.892,-2.8747,-2.8092,-2.8092,-2.8213,-2.8558,-2.9679,-3.0334,-3.0782,-3.1317,-3.1627,-3.18,-3.18,-3.2472,-3.3352,-3.3921,-3.5066,-3.6406,-3.763,-3.8101,-3.8336,-3.8627,-3.8707,-3.8854,-3.9441,-3.9735,-4.0065,-4.0671,-4.1423,-4.2213,-4.302,-4.2983,-4.2983,-4.3424,-4.3296,-4.324,-4.3461,-4.3497,-4.3532,-4.3532,-4.3532,-4.3532,-4.3566,-4.3566,-4.3532,-4.3532,-4.3532,-4.3532,-4.3532,-4.36,-4.3667,-4.3667,-4.3753,-4.3693,-4.3453,-4.2736,-4.2094,-4.1538,-4.2173,-4.2463,-2.4283,-2.5023,-2.585,-2.6126,0.0,0.0,-2.7086,-2.7406,-2.7685,-2.769,-2.816,-2.8195,-2.715,-2.7203,-2.7046,-2.5987,-2.5864,-2.5937,-2.6079,-2.6241,-2.6435,-2.6657,-2.6578,-2.6493,-2.6503,-2.6231,-2.5878,-2.5365,-2.564,-2.5676,-2.5354,-2.4623,-2.4331,-2.4622,-2.4302,-2.4424,-2.5059,-2.5024,-2.5156,-2.553,-2.5917,-2.5712,-2.4976,-2.579,-2.603,-2.5785,-2.6179,-2.6192,-2.6076,-2.7722,-2.8011,-2.7575,-2.8972,-2.8868,-2.7971,-2.8282,-2.8592,-2.8903,-2.9179,-3.011,-3.111,-3.0903,-3.1282,-3.18,-3.18,-3.2317,-3.3076,-3.3869,-3.5136,-3.6453,-3.7344,-3.7721,-3.7948,-3.8368,-3.8318,-3.8413,-3.9232,-3.9548,-4.0032,-4.1354,-4.1717,-4.2158,-4.3296,-4.2928,-4.2598,-4.2947,-4.2708,-4.2506,-4.2506,-4.2782,-4.3002,-4.3002,-4.3296,-4.3497,-4.3497,-4.3497,-4.3497,-4.3497,-4.3497,-4.3497,-4.3497,-4.3532,-4.3548,-4.3548,-4.3652,-4.3686,-4.3719,-4.3338,-4.2939,-4.2508,-4.3033,-4.3268,-2.48,-2.5392,-2.6112,-2.6637,-2.7195,0.0,-2.6909,-2.7458,-2.7968,-2.7352,-2.7624,-2.7737,-2.7057,-2.6863,-2.6626,-2.6021,-2.5798,-2.5775,-2.601,-2.6297,-2.6556,-2.6725,-2.7289,-2.7391,-2.6736,-2.6916,-2.6488,-2.5069,-2.5383,-2.5419,-2.4831,-2.3952,-2.3744,-2.4339,-2.366,-2.3587,-2.426,-2.4016,-2.3892,-2.3969,-2.5043,-2.5229,-2.4557,-2.5128,-2.5397,-2.543,-2.5645,-2.5658,-2.5605,-2.6417,-2.6544,-2.6454,-2.8525,-2.8593,-2.7609,-2.8178,-2.8868,-2.9317,-2.7989,-2.9351,-3.1472,-3.0179,-3.0679,-3.18,-3.18,-3.2265,-3.2955,-3.3835,-3.5409,-3.6821,-3.69,-3.717,-3.7542,-3.7948,-3.7774,-3.7703,-3.8528,-3.8904,-3.9692,-4.1659,-4.1595,-4.1699,-4.3112,-4.2249,-4.1589,-4.2213,-4.1772,-4.135,-4.1258,-4.1864,-4.2323,-4.2415,-4.2983,-4.3387,-4.3479,-4.3497,-4.3497,-4.3497,-4.3497,-4.3497,-4.3497,-4.3497,-4.3497,-4.3497,-4.3497,-4.3513,-4.3582,-4.3719,-4.3837,-4.3883,-4.3883,-4.3929,-2.493,-2.5947,-2.708,-2.6743,-2.7421,0.0,-2.8529,-2.8731,-2.8973,-2.9279,-2.9394,-2.927,-2.8514,-2.7915,-2.7462,-2.7356,-2.6383,-2.5787,-2.6189,-2.6279,-2.6521,-2.7053,-2.7213,-2.7409,-2.7681,-2.7635,-2.7285,-2.6595,-2.5415,-2.4974,-2.5496,-2.4042,-2.3239,-2.3372,-2.3214,-2.3438,-2.4059,-2.3441,-2.3283,-2.3625,-2.4411,-2.4644,-2.4307,-2.5376,-2.5974,-2.6183,-2.6009,-2.5379,-2.4574,-2.5362,-2.6247,-2.7161,-2.798,-2.8596,-2.9023,-2.8575,-2.8868,-2.9472,-2.9179,-2.9868,-3.0955,-3.1248,-3.1541,-3.18,-3.18,-3.1903,-3.23,-3.3697,-3.5227,-3.6492,-3.6821,-3.6978,-3.7132,-3.7542,-3.7542,-3.7702,-3.8528,-3.8241,-3.8348,-4.0037,-4.1286,-4.2176,-4.2488,-4.28,-4.2873,-4.2378,-4.2708,-4.28,-4.2158,-4.2194,-4.2543,-4.3185,-4.2818,-4.28,-4.3424,-4.3497,-4.3497,-4.3497,-4.3497,-4.3497,-4.3497,-4.3497,-4.3497,-4.3497,-4.3497,-4.3532,-4.3513,-4.36,-4.3701,-4.3837,-4.3837,-4.3837,-2.5756,-2.657,-2.749,-2.744,-2.809,0.0,0.0,-2.8748,-2.8934,-2.8812,-2.879,-2.8676,-2.832,-2.7948,-2.7591,-2.7267,-2.672,-2.6496,-2.6881,-2.6704,-2.6657,-2.7149,-2.7338,-2.7552,-2.7836,-2.7425,-2.6947,-2.6435,-2.4789,-2.4208,-2.5113,-2.3851,-2.307,-2.2995,-2.2995,-2.3119,-2.3344,-2.2901,-2.274,-2.2966,-2.3429,-2.3762,-2.4033,-2.4851,-2.552,-2.601,-2.601,-2.5436,-2.4564,-2.463,-2.5077,-2.589,-2.7402,-2.8391,-2.9006,-2.9403,-2.9782,-3.0041,-2.9644,-3.0265,-3.1248,-3.1248,-3.1489,-3.18,-3.18,-3.2334,-3.3093,-3.3869,-3.5145,-3.6343,-3.6557,-3.6597,-3.6719,-3.7094,-3.7055,-3.7122,-3.7913,-3.7773,-3.7737,-3.856,-3.9842,-4.1079,-4.1864,-4.2514,-4.2763,-4.2359,-4.1956,-4.1552,-4.1148,-4.1093,-4.1405,-4.2213,-4.2304,-4.2635,-4.3424,-4.3497,-4.3497,-4.3497,-4.3497,-4.3497,-4.3497,-4.3497,-4.3497,-4.3497,-4.3497,-4.3497,-4.3497,-4.3513,-4.36,-4.3719,-4.3719,-4.3719,-2.6723,-2.7259,-2.7898,-2.8352,-2.8889,-2.9085,0.0,0.0,0.0,-2.8255,-2.8126,-2.8126,-2.8126,-2.8012,-2.7737,-2.7187,-2.7234,-2.7375,-2.7573,-2.7213,-2.7079,-2.7373,-2.7548,-2.7612,-2.7672,-2.7074,-2.6489,-2.6009,-2.4343,-2.3788,-2.4728,-2.3809,-2.3179,-2.3076,-2.3076,-2.2955,-2.2712,-2.2515,-2.2377,-2.2321,-2.2571,-2.3079,-2.3752,-2.4229,-2.483,-2.554,-2.577,-2.5353,-2.4536,-2.4163,-2.4067,-2.4377,-2.6607,-2.7827,-2.8491,-2.9955,-3.0558,-3.0593,-2.9955,-3.0541,-3.1507,-3.1058,-3.13,-3.18,-3.18,-3.2766,-3.3886,-3.4042,-3.5059,-3.6111,-3.6266,-3.6301,-3.6367,-3.6719,-3.6533,-3.6492,-3.7132,-3.7283,-3.7283,-3.7283,-3.824,-3.9517,-4.089,-4.1593,-4.1891,-4.1745,-4.0822,-4.0065,-3.9918,-3.99,-4.0212,-4.102,-4.1552,-4.2231,-4.3185,-4.3259,-4.3332,-4.3479,-4.3497,-4.3497,-4.3497,-4.3497,-4.3497,-4.3497,-4.3497,-4.3497,-4.3497,-4.3497,-4.3532,-4.3582,-4.3582,-4.3634,-2.7208,-2.8033,-2.8935,-2.8982,-2.9425,-2.9798,-2.9717,0.0,-2.9772,-2.9691,0.0,-2.9659,-2.9659,0.0,0.0,-2.8563,-2.8281,-2.7937,-2.7551,-2.7722,-2.7947,-2.8232,-2.771,-2.739,-2.7526,-2.7187,-2.6854,-2.6613,-2.5207,-2.4683,-2.5454,-2.4365,-2.3722,-2.3695,-2.3695,-2.3384,-2.2712,-2.2515,-2.2276,-2.2056,-2.2493,-2.2998,-2.3564,-2.4012,-2.466,-2.5333,-2.5371,-2.4601,-2.3362,-2.4107,-2.4241,-2.4067,-2.5229,-2.6657,-2.8186,-2.9248,-3.0093,-3.0679,-3.0593,-3.0679,-3.0903,-3.1489,-3.1731,-3.18,-3.18,-3.2369,-3.3179,-3.3886,-3.468,-3.5473,-3.6128,-3.6301,-3.6301,-3.6385,-3.6343,-3.6343,-3.6409,-3.6451,-3.6451,-3.6451,-3.7393,-3.8394,-3.8972,-3.9987,-4.0454,-3.9763,-4.0401,-4.0726,-3.9992,-3.99,-4.0212,-4.102,-4.0543,-4.0781,-4.2304,-4.2433,-4.2745,-4.3442,-4.3497,-4.3497,-4.3497,-4.3497,-4.3497,-4.3497,-4.3497,-4.3497,-4.3497,-4.3497,-4.3479,-4.3532,-4.3532,-4.3532,-2.7799,-2.8044,-2.8432,-2.9178,-2.9315,-2.9356,-2.9821,-2.9918,-2.9918,-2.9918,0.0,0.0,0.0,0.0,0.0,0.0,-2.9231,-2.9299,-2.909,-2.8952,-2.8579,-2.7851,-2.7868,-2.7607,-2.677,-2.6179,-2.5497,-2.4664,-2.4296,-2.4112,-2.4161,-2.3927,-2.3598,-2.3168,-2.3564,-2.3388,-2.2542,-2.2287,-2.2044,-2.1827,-2.1789,-2.2086,-2.2678,-2.2793,-2.3453,-2.4487,-2.4487,-2.4392,-2.4195,-2.418,-2.4067,-2.3971,-2.4792,-2.6555,-2.8765,-2.9798,-3.0679,-3.1334,-3.1334,-3.1334,-3.1386,-3.1696,-3.18,-3.18,-3.18,-3.2628,-3.3662,-3.399,-3.4938,-3.5904,-3.6215,-3.6301,-3.6301,-3.6301,-3.6301,-3.6301,-3.6301,-3.6492,-3.6557,-3.6343,-3.6899,-3.7374,-3.7334,-3.8516,-3.9662,-4.0261,-3.9786,-3.9491,-3.9832,-3.9478,-3.9515,-4.0322,-4.0102,-4.0359,-4.1515,-4.2029,-4.2433,-4.2782,-4.3222,-4.3497,-4.3497,-4.3497,-4.3497,-4.3497,-4.3497,-4.3497,-4.3497,-4.3497,-4.3497,-4.3497,-4.3497,-4.3497,-2.7896,-2.7984,-2.8168,-2.8923,-2.9002,-2.9038,-2.9641,-2.9609,-2.9523,-2.9567,-2.9464,0.0,0.0,0.0,-2.9552,-2.9081,0.0,-3.0122,-2.9938,-2.9848,-2.9437,-2.8351,-2.8506,-2.8265,-2.7144,-2.6502,-2.5579,-2.4147,-2.4261,-2.4182,-2.3726,-2.3969,-2.3902,-2.3367,-2.3766,-2.3511,-2.2422,-2.2089,-2.1811,-2.1617,-2.1262,-2.1439,-2.2043,-2.1872,-2.2508,-2.3815,-2.3815,-2.4115,-2.4571,-2.4334,-2.4097,-2.4014,-2.4857,-2.6562,-2.8704,-2.9846,-3.0762,-3.145,-3.1677,-3.1763,-3.18,-3.18,-3.18,-3.18,-3.18,-3.2714,-3.3818,-3.4024,-3.5007,-3.6042,-3.6249,-3.6301,-3.6301,-3.6301,-3.6301,-3.6301,-3.6301,-3.6516,-3.6638,-3.6385,-3.6533,-3.6678,-3.6492,-3.7435,-3.8652,-3.994,-3.8946,-3.847,-3.9447,-3.9056,-3.9019,-3.9808,-3.99,-4.0322,-4.135,-4.1974,-4.2396,-4.2598,-4.3167,-4.3497,-4.3497,-4.3497,-4.3497,-4.3497,-4.3497,-4.3497,-4.3497,-4.3497,-4.3387,-4.3167,-4.3387,-4.3497,-2.733,-2.8062,-2.8886,-2.8284,-2.8616,-2.9182,-2.9425,-2.8986,-2.8533,-2.8779,-2.8271,-2.7769,-2.7769,-2.7996,-2.8178,-2.8256,-2.9341,0.0,0.0,-3.0038,-3.0627,-3.0593,-2.992,-2.9455,-2.9403,-2.9255,-2.8397,-2.6521,-2.6038,-2.5646,-2.5242,-2.5062,-2.4954,-2.4936,-2.4714,-2.3867,-2.2422,-2.1932,-2.1617,-2.1417,-2.1183,-2.1373,-2.1922,-2.1612,-2.2269,-2.36,-2.36,-2.3616,-2.3733,-2.4587,-2.4523,-2.4062,-2.5411,-2.6458,-2.7346,-2.8742,-2.974,-3.0563,-3.1339,-3.1709,-3.18,-3.18,-3.18,-3.18,-3.18,-3.2334,-3.3093,-3.3869,-3.4645,-3.5387,-3.6111,-3.6301,-3.6301,-3.6301,-3.6301,-3.6301,-3.6301,-3.6301,-3.6301,-3.6301,-3.6301,-3.6451,-3.6821,-3.6917,-3.7091,-3.754,-3.7897,-3.8252,-3.8695,-3.8726,-3.9019,-3.9808,-3.99,-4.0543,-4.2139,-4.2286,-4.2635,-4.3406,-4.3479,-4.3497,-4.3497,-4.3497,-4.3497,-4.3497,-4.3497,-4.3497,-4.3497,-4.3497,-4.3094,-4.2359,-4.313,-4.3497,-2.6627,-2.6698,-2.6914,-2.7118,-2.7425,-2.7759,-2.8035,-2.8254,-2.8329,-2.8133,-2.8013,-2.7954,-2.7954,-2.8367,-2.8874,-2.9433,-3.0074,-3.0604,0.0,-3.1121,-3.1256,-3.1236,-2.9799,-2.8972,-2.9455,-2.8077,-2.6708,-2.5582,-2.5383,-2.5028,-2.4351,-2.5207,-2.5505,-2.5023,-2.4735,-2.3985,-2.2752,-2.1908,-2.1324,-2.1007,-2.0794,-2.0787,-2.0973,-2.0783,-2.1456,-2.274,-2.274,-2.325,-2.4101,-2.4415,-2.4368,-2.4262,-2.5271,-2.5798,-2.622,-2.7857,-2.9279,-3.0529,-3.1322,-3.1617,-3.1671,-3.1746,-3.18,-3.1886,-3.2386,-3.3076,-3.3835,-3.4594,-3.5352,-3.599,-3.6232,-3.6301,-3.6301,-3.6301,-3.6301,-3.6301,-3.6301,-3.6301,-3.6301,-3.6301,-3.6301,-3.6343,-3.6492,-3.6492,-3.6719,-3.7395,-3.7614,-3.7844,-3.8252,-3.9004,-3.9588,-3.9863,-4.0377,-4.091,-4.1479,-4.1992,-4.2635,-4.3442,-4.3497,-4.3497,-4.3497,-4.3497,-4.3497,-4.3497,-4.3497,-4.3497,-4.3497,-4.2965,-4.2561,-4.2286,-4.2029,-4.2194,-2.6041,-2.5944,-2.5982,-2.6153,-2.6502,-2.6848,-2.7105,-2.7392,-2.755,-2.7169,-2.7264,-2.7394,-2.724,-2.7931,-2.8808,-2.957,-2.9962,-3.0417,0.0,-3.1462,-3.1576,-3.1517,-3.0328,-2.9592,-2.9833,-2.8591,-2.7151,-2.5505,-2.5502,-2.5172,-2.4253,-2.5119,-2.5566,-2.533,-2.4927,-2.4242,-2.3223,-2.2118,-2.139,-2.1057,-2.0686,-2.046,-2.0426,-2.0339,-2.1044,-2.2286,-2.2286,-2.3055,-2.4302,-2.4302,-2.4302,-2.4385,-2.502,-2.5389,-2.5696,-2.738,-2.8987,-3.0438,-3.121,-3.1542,-3.1617,-3.1709,-3.1746,-3.1886,-3.2369,-3.3248,-3.418,-3.4663,-3.5525,-3.6301,-3.6301,-3.6301,-3.6301,-3.6301,-3.6301,-3.6301,-3.6301,-3.6301,-3.6301,-3.6301,-3.6301,-3.6301,-3.6301,-3.6301,-3.6516,-3.7208,-3.7283,-3.7521,-3.8169,-3.8952,-3.9719,-4.0437,-4.0985,-4.1458,-4.1886,-4.2176,-4.2525,-4.3039,-4.28,-4.2763,-4.3057,-4.3057,-4.3204,-4.3479,-4.3497,-4.3497,-4.3497,-4.2983,-4.2433,-4.1864,-4.135,-4.1222]}]]